<?xml version="1.0" encoding="UTF-8" standalone="no" ?>
<gpx xmlns="http://www.topografix.com/GPX/1/1" xmlns:xsi="http://www.w3.org/2001/XMLSchema-instance" xsi:schemaLocation="http://www.topografix.com/GPX/1/1 http://www.topografix.com/GPX/1/1/gpx.xsd" version="1.1" creator="VisuGPX - https://www.visugpx.com">
  <metadata>
    <name>Osmoy (proche Septeuil)</name>
    <desc><![CDATA[Osmoy, Flexanville, Villiers le mailleux.]]></desc>
  </metadata>
  <trk>
    <name><![CDATA[MA-rando-2018-10-21-162848]]></name>
    <trkseg>
      <trkpt lat="48.86637" lon="1.71639">
        <ele>112</ele>
        <time>2018-10-21T07:41:17Z</time>
      </trkpt>
      <trkpt lat="48.86647" lon="1.71637">
        <ele>112</ele>
        <time>2018-10-21T07:41:26Z</time>
      </trkpt>
      <trkpt lat="48.86656" lon="1.71634">
        <ele>111</ele>
        <time>2018-10-21T07:41:33Z</time>
      </trkpt>
      <trkpt lat="48.86666" lon="1.71633">
        <ele>111</ele>
        <time>2018-10-21T07:41:40Z</time>
      </trkpt>
      <trkpt lat="48.86676" lon="1.71631">
        <ele>111</ele>
        <time>2018-10-21T07:41:48Z</time>
      </trkpt>
      <trkpt lat="48.86685" lon="1.71629">
        <ele>111</ele>
        <time>2018-10-21T07:41:54Z</time>
      </trkpt>
      <trkpt lat="48.86695" lon="1.71626">
        <ele>111</ele>
        <time>2018-10-21T07:42:01Z</time>
      </trkpt>
      <trkpt lat="48.86704" lon="1.71626">
        <ele>111</ele>
        <time>2018-10-21T07:42:07Z</time>
      </trkpt>
      <trkpt lat="48.86713" lon="1.71623">
        <ele>111</ele>
        <time>2018-10-21T07:42:13Z</time>
      </trkpt>
      <trkpt lat="48.86723" lon="1.71621">
        <ele>111</ele>
        <time>2018-10-21T07:42:19Z</time>
      </trkpt>
      <trkpt lat="48.86732" lon="1.71618">
        <ele>111</ele>
        <time>2018-10-21T07:42:27Z</time>
      </trkpt>
      <trkpt lat="48.86742" lon="1.71614">
        <ele>109</ele>
        <time>2018-10-21T07:42:36Z</time>
      </trkpt>
      <trkpt lat="48.86751" lon="1.71609">
        <ele>108</ele>
        <time>2018-10-21T07:42:41Z</time>
      </trkpt>
      <trkpt lat="48.86759" lon="1.71603">
        <ele>106</ele>
        <time>2018-10-21T07:42:48Z</time>
      </trkpt>
      <trkpt lat="48.86769" lon="1.71598">
        <ele>106</ele>
        <time>2018-10-21T07:42:58Z</time>
      </trkpt>
      <trkpt lat="48.86771" lon="1.71583">
        <ele>106</ele>
        <time>2018-10-21T07:43:06Z</time>
      </trkpt>
      <trkpt lat="48.86773" lon="1.71569">
        <ele>106</ele>
        <time>2018-10-21T07:43:13Z</time>
      </trkpt>
      <trkpt lat="48.86776" lon="1.71556">
        <ele>107</ele>
        <time>2018-10-21T07:43:20Z</time>
      </trkpt>
      <trkpt lat="48.86779" lon="1.71542">
        <ele>107</ele>
        <time>2018-10-21T07:43:25Z</time>
      </trkpt>
      <trkpt lat="48.86783" lon="1.71528">
        <ele>107</ele>
        <time>2018-10-21T07:43:31Z</time>
      </trkpt>
      <trkpt lat="48.86788" lon="1.71517">
        <ele>107</ele>
        <time>2018-10-21T07:43:37Z</time>
      </trkpt>
      <trkpt lat="48.86791" lon="1.71504">
        <ele>107</ele>
        <time>2018-10-21T07:43:42Z</time>
      </trkpt>
      <trkpt lat="48.86792" lon="1.71487">
        <ele>107</ele>
        <time>2018-10-21T07:43:48Z</time>
      </trkpt>
      <trkpt lat="48.86793" lon="1.71473">
        <ele>108</ele>
        <time>2018-10-21T07:43:54Z</time>
      </trkpt>
      <trkpt lat="48.86798" lon="1.7146">
        <ele>108</ele>
        <time>2018-10-21T07:44:00Z</time>
      </trkpt>
      <trkpt lat="48.86801" lon="1.71445">
        <ele>109</ele>
        <time>2018-10-21T07:44:06Z</time>
      </trkpt>
      <trkpt lat="48.86804" lon="1.7143">
        <ele>110</ele>
        <time>2018-10-21T07:44:11Z</time>
      </trkpt>
      <trkpt lat="48.86805" lon="1.71415">
        <ele>111</ele>
        <time>2018-10-21T07:44:18Z</time>
      </trkpt>
      <trkpt lat="48.86811" lon="1.71402">
        <ele>112</ele>
        <time>2018-10-21T07:44:25Z</time>
      </trkpt>
      <trkpt lat="48.86816" lon="1.7139">
        <ele>113</ele>
        <time>2018-10-21T07:44:31Z</time>
      </trkpt>
      <trkpt lat="48.8682" lon="1.71378">
        <ele>114</ele>
        <time>2018-10-21T07:44:38Z</time>
      </trkpt>
      <trkpt lat="48.86824" lon="1.71365">
        <ele>115</ele>
        <time>2018-10-21T07:44:45Z</time>
      </trkpt>
      <trkpt lat="48.8683" lon="1.71353">
        <ele>116</ele>
        <time>2018-10-21T07:44:53Z</time>
      </trkpt>
      <trkpt lat="48.86837" lon="1.71342">
        <ele>117</ele>
        <time>2018-10-21T07:45:00Z</time>
      </trkpt>
      <trkpt lat="48.86841" lon="1.7133">
        <ele>117</ele>
        <time>2018-10-21T07:45:08Z</time>
      </trkpt>
      <trkpt lat="48.86847" lon="1.71317">
        <ele>117</ele>
        <time>2018-10-21T07:45:15Z</time>
      </trkpt>
      <trkpt lat="48.86854" lon="1.71305">
        <ele>117</ele>
        <time>2018-10-21T07:45:23Z</time>
      </trkpt>
      <trkpt lat="48.86859" lon="1.71292">
        <ele>117</ele>
        <time>2018-10-21T07:45:31Z</time>
      </trkpt>
      <trkpt lat="48.86865" lon="1.71281">
        <ele>118</ele>
        <time>2018-10-21T07:45:37Z</time>
      </trkpt>
      <trkpt lat="48.8687" lon="1.71269">
        <ele>119</ele>
        <time>2018-10-21T07:45:45Z</time>
      </trkpt>
      <trkpt lat="48.86877" lon="1.71259">
        <ele>119</ele>
        <time>2018-10-21T07:45:52Z</time>
      </trkpt>
      <trkpt lat="48.86883" lon="1.7125">
        <ele>119</ele>
        <time>2018-10-21T07:45:58Z</time>
      </trkpt>
      <trkpt lat="48.86891" lon="1.7124">
        <ele>119</ele>
        <time>2018-10-21T07:46:04Z</time>
      </trkpt>
      <trkpt lat="48.86897" lon="1.71229">
        <ele>119</ele>
        <time>2018-10-21T07:46:11Z</time>
      </trkpt>
      <trkpt lat="48.86905" lon="1.71217">
        <ele>119</ele>
        <time>2018-10-21T07:46:19Z</time>
      </trkpt>
      <trkpt lat="48.86911" lon="1.71207">
        <ele>119</ele>
        <time>2018-10-21T07:46:26Z</time>
      </trkpt>
      <trkpt lat="48.86918" lon="1.71198">
        <ele>119</ele>
        <time>2018-10-21T07:46:33Z</time>
      </trkpt>
      <trkpt lat="48.86926" lon="1.71188">
        <ele>119</ele>
        <time>2018-10-21T07:46:40Z</time>
      </trkpt>
      <trkpt lat="48.86933" lon="1.71179">
        <ele>118</ele>
        <time>2018-10-21T07:46:47Z</time>
      </trkpt>
      <trkpt lat="48.86939" lon="1.71168">
        <ele>117</ele>
        <time>2018-10-21T07:46:54Z</time>
      </trkpt>
      <trkpt lat="48.86945" lon="1.71157">
        <ele>117</ele>
        <time>2018-10-21T07:47:01Z</time>
      </trkpt>
      <trkpt lat="48.86952" lon="1.71146">
        <ele>117</ele>
        <time>2018-10-21T07:47:07Z</time>
      </trkpt>
      <trkpt lat="48.86959" lon="1.71136">
        <ele>117</ele>
        <time>2018-10-21T07:47:13Z</time>
      </trkpt>
      <trkpt lat="48.86965" lon="1.71126">
        <ele>117</ele>
        <time>2018-10-21T07:47:20Z</time>
      </trkpt>
      <trkpt lat="48.86972" lon="1.71115">
        <ele>117</ele>
        <time>2018-10-21T07:47:26Z</time>
      </trkpt>
      <trkpt lat="48.86978" lon="1.71103">
        <ele>117</ele>
        <time>2018-10-21T07:47:34Z</time>
      </trkpt>
      <trkpt lat="48.86986" lon="1.71095">
        <ele>117</ele>
        <time>2018-10-21T07:47:41Z</time>
      </trkpt>
      <trkpt lat="48.86993" lon="1.71085">
        <ele>117</ele>
        <time>2018-10-21T07:47:48Z</time>
      </trkpt>
      <trkpt lat="48.87" lon="1.71075">
        <ele>118</ele>
        <time>2018-10-21T07:47:56Z</time>
      </trkpt>
      <trkpt lat="48.87005" lon="1.71064">
        <ele>118</ele>
        <time>2018-10-21T07:48:03Z</time>
      </trkpt>
      <trkpt lat="48.87012" lon="1.71052">
        <ele>118</ele>
        <time>2018-10-21T07:48:11Z</time>
      </trkpt>
      <trkpt lat="48.8702" lon="1.71041">
        <ele>117</ele>
        <time>2018-10-21T07:48:18Z</time>
      </trkpt>
      <trkpt lat="48.87026" lon="1.71028">
        <ele>117</ele>
        <time>2018-10-21T07:48:27Z</time>
      </trkpt>
      <trkpt lat="48.87031" lon="1.71017">
        <ele>117</ele>
        <time>2018-10-21T07:48:34Z</time>
      </trkpt>
      <trkpt lat="48.87038" lon="1.71007">
        <ele>116</ele>
        <time>2018-10-21T07:48:41Z</time>
      </trkpt>
      <trkpt lat="48.87045" lon="1.70996">
        <ele>115</ele>
        <time>2018-10-21T07:48:48Z</time>
      </trkpt>
      <trkpt lat="48.87051" lon="1.70984">
        <ele>114</ele>
        <time>2018-10-21T07:48:54Z</time>
      </trkpt>
      <trkpt lat="48.87057" lon="1.70973">
        <ele>114</ele>
        <time>2018-10-21T07:49:00Z</time>
      </trkpt>
      <trkpt lat="48.87061" lon="1.7096">
        <ele>115</ele>
        <time>2018-10-21T07:49:06Z</time>
      </trkpt>
      <trkpt lat="48.87067" lon="1.70948">
        <ele>115</ele>
        <time>2018-10-21T07:49:13Z</time>
      </trkpt>
      <trkpt lat="48.87072" lon="1.70935">
        <ele>115</ele>
        <time>2018-10-21T07:49:20Z</time>
      </trkpt>
      <trkpt lat="48.87078" lon="1.70923">
        <ele>115</ele>
        <time>2018-10-21T07:49:26Z</time>
      </trkpt>
      <trkpt lat="48.87083" lon="1.70912">
        <ele>116</ele>
        <time>2018-10-21T07:49:32Z</time>
      </trkpt>
      <trkpt lat="48.87089" lon="1.70901">
        <ele>116</ele>
        <time>2018-10-21T07:49:39Z</time>
      </trkpt>
      <trkpt lat="48.87096" lon="1.70891">
        <ele>117</ele>
        <time>2018-10-21T07:49:46Z</time>
      </trkpt>
      <trkpt lat="48.87102" lon="1.70879">
        <ele>118</ele>
        <time>2018-10-21T07:49:53Z</time>
      </trkpt>
      <trkpt lat="48.87108" lon="1.70867">
        <ele>118</ele>
        <time>2018-10-21T07:50:01Z</time>
      </trkpt>
      <trkpt lat="48.87116" lon="1.70862">
        <ele>119</ele>
        <time>2018-10-21T07:50:11Z</time>
      </trkpt>
      <trkpt lat="48.87123" lon="1.70872">
        <ele>118</ele>
        <time>2018-10-21T07:50:19Z</time>
      </trkpt>
      <trkpt lat="48.87127" lon="1.70885">
        <ele>117</ele>
        <time>2018-10-21T07:50:27Z</time>
      </trkpt>
      <trkpt lat="48.87132" lon="1.70898">
        <ele>117</ele>
        <time>2018-10-21T07:50:34Z</time>
      </trkpt>
      <trkpt lat="48.87141" lon="1.70907">
        <ele>117</ele>
        <time>2018-10-21T07:50:42Z</time>
      </trkpt>
      <trkpt lat="48.87149" lon="1.70914">
        <ele>117</ele>
        <time>2018-10-21T07:50:48Z</time>
      </trkpt>
      <trkpt lat="48.87154" lon="1.70927">
        <ele>117</ele>
        <time>2018-10-21T07:50:55Z</time>
      </trkpt>
      <trkpt lat="48.87159" lon="1.70938">
        <ele>117</ele>
        <time>2018-10-21T07:51:03Z</time>
      </trkpt>
      <trkpt lat="48.87167" lon="1.70947">
        <ele>117</ele>
        <time>2018-10-21T07:51:10Z</time>
      </trkpt>
      <trkpt lat="48.87173" lon="1.70958">
        <ele>116</ele>
        <time>2018-10-21T07:51:18Z</time>
      </trkpt>
      <trkpt lat="48.87179" lon="1.7097">
        <ele>116</ele>
        <time>2018-10-21T07:51:24Z</time>
      </trkpt>
      <trkpt lat="48.87184" lon="1.70981">
        <ele>116</ele>
        <time>2018-10-21T07:51:31Z</time>
      </trkpt>
      <trkpt lat="48.8719" lon="1.70992">
        <ele>117</ele>
        <time>2018-10-21T07:51:37Z</time>
      </trkpt>
      <trkpt lat="48.87197" lon="1.71003">
        <ele>117</ele>
        <time>2018-10-21T07:51:45Z</time>
      </trkpt>
      <trkpt lat="48.87204" lon="1.71014">
        <ele>117</ele>
        <time>2018-10-21T07:51:52Z</time>
      </trkpt>
      <trkpt lat="48.87209" lon="1.71026">
        <ele>117</ele>
        <time>2018-10-21T07:51:59Z</time>
      </trkpt>
      <trkpt lat="48.87214" lon="1.71039">
        <ele>118</ele>
        <time>2018-10-21T07:52:08Z</time>
      </trkpt>
      <trkpt lat="48.87218" lon="1.71053">
        <ele>118</ele>
        <time>2018-10-21T07:52:15Z</time>
      </trkpt>
      <trkpt lat="48.87222" lon="1.71065">
        <ele>118</ele>
        <time>2018-10-21T07:52:22Z</time>
      </trkpt>
      <trkpt lat="48.87229" lon="1.71075">
        <ele>118</ele>
        <time>2018-10-21T07:52:29Z</time>
      </trkpt>
      <trkpt lat="48.87235" lon="1.71086">
        <ele>118</ele>
        <time>2018-10-21T07:52:38Z</time>
      </trkpt>
      <trkpt lat="48.8724" lon="1.711">
        <ele>118</ele>
        <time>2018-10-21T07:52:46Z</time>
      </trkpt>
      <trkpt lat="48.87246" lon="1.71111">
        <ele>118</ele>
        <time>2018-10-21T07:52:52Z</time>
      </trkpt>
      <trkpt lat="48.87252" lon="1.71121">
        <ele>118</ele>
        <time>2018-10-21T07:52:59Z</time>
      </trkpt>
      <trkpt lat="48.87256" lon="1.71135">
        <ele>119</ele>
        <time>2018-10-21T07:53:06Z</time>
      </trkpt>
      <trkpt lat="48.87258" lon="1.71149">
        <ele>119</ele>
        <time>2018-10-21T07:53:13Z</time>
      </trkpt>
      <trkpt lat="48.87262" lon="1.71162">
        <ele>120</ele>
        <time>2018-10-21T07:53:19Z</time>
      </trkpt>
      <trkpt lat="48.87266" lon="1.71177">
        <ele>120</ele>
        <time>2018-10-21T07:53:26Z</time>
      </trkpt>
      <trkpt lat="48.8727" lon="1.7119">
        <ele>120</ele>
        <time>2018-10-21T07:53:32Z</time>
      </trkpt>
      <trkpt lat="48.87276" lon="1.71202">
        <ele>120</ele>
        <time>2018-10-21T07:53:39Z</time>
      </trkpt>
      <trkpt lat="48.87283" lon="1.71212">
        <ele>120</ele>
        <time>2018-10-21T07:53:47Z</time>
      </trkpt>
      <trkpt lat="48.87292" lon="1.71213">
        <ele>119</ele>
        <time>2018-10-21T07:53:58Z</time>
      </trkpt>
      <trkpt lat="48.873" lon="1.71205">
        <ele>119</ele>
        <time>2018-10-21T07:54:04Z</time>
      </trkpt>
      <trkpt lat="48.87309" lon="1.71196">
        <ele>119</ele>
        <time>2018-10-21T07:54:10Z</time>
      </trkpt>
      <trkpt lat="48.87315" lon="1.71185">
        <ele>118</ele>
        <time>2018-10-21T07:54:16Z</time>
      </trkpt>
      <trkpt lat="48.87322" lon="1.71175">
        <ele>118</ele>
        <time>2018-10-21T07:54:22Z</time>
      </trkpt>
      <trkpt lat="48.8733" lon="1.71166">
        <ele>117</ele>
        <time>2018-10-21T07:54:30Z</time>
      </trkpt>
      <trkpt lat="48.87338" lon="1.71157">
        <ele>117</ele>
        <time>2018-10-21T07:54:38Z</time>
      </trkpt>
      <trkpt lat="48.87346" lon="1.71149">
        <ele>116</ele>
        <time>2018-10-21T07:54:44Z</time>
      </trkpt>
      <trkpt lat="48.87354" lon="1.71142">
        <ele>116</ele>
        <time>2018-10-21T07:54:50Z</time>
      </trkpt>
      <trkpt lat="48.87363" lon="1.71133">
        <ele>116</ele>
        <time>2018-10-21T07:54:57Z</time>
      </trkpt>
      <trkpt lat="48.87371" lon="1.71126">
        <ele>116</ele>
        <time>2018-10-21T07:55:03Z</time>
      </trkpt>
      <trkpt lat="48.87379" lon="1.7112">
        <ele>115</ele>
        <time>2018-10-21T07:55:10Z</time>
      </trkpt>
      <trkpt lat="48.87388" lon="1.71112">
        <ele>115</ele>
        <time>2018-10-21T07:55:16Z</time>
      </trkpt>
      <trkpt lat="48.87396" lon="1.71106">
        <ele>115</ele>
        <time>2018-10-21T07:55:21Z</time>
      </trkpt>
      <trkpt lat="48.87406" lon="1.711">
        <ele>116</ele>
        <time>2018-10-21T07:55:28Z</time>
      </trkpt>
      <trkpt lat="48.87415" lon="1.71093">
        <ele>116</ele>
        <time>2018-10-21T07:55:35Z</time>
      </trkpt>
      <trkpt lat="48.87424" lon="1.71088">
        <ele>116</ele>
        <time>2018-10-21T07:55:41Z</time>
      </trkpt>
      <trkpt lat="48.87434" lon="1.71084">
        <ele>116</ele>
        <time>2018-10-21T07:55:47Z</time>
      </trkpt>
      <trkpt lat="48.87443" lon="1.71079">
        <ele>116</ele>
        <time>2018-10-21T07:55:56Z</time>
      </trkpt>
      <trkpt lat="48.87453" lon="1.71073">
        <ele>115</ele>
        <time>2018-10-21T07:56:04Z</time>
      </trkpt>
      <trkpt lat="48.87462" lon="1.71069">
        <ele>114</ele>
        <time>2018-10-21T07:56:11Z</time>
      </trkpt>
      <trkpt lat="48.87472" lon="1.71065">
        <ele>113</ele>
        <time>2018-10-21T07:56:18Z</time>
      </trkpt>
      <trkpt lat="48.87482" lon="1.71061">
        <ele>112</ele>
        <time>2018-10-21T07:56:24Z</time>
      </trkpt>
      <trkpt lat="48.87491" lon="1.71058">
        <ele>112</ele>
        <time>2018-10-21T07:56:29Z</time>
      </trkpt>
      <trkpt lat="48.87501" lon="1.71055">
        <ele>111</ele>
        <time>2018-10-21T07:56:35Z</time>
      </trkpt>
      <trkpt lat="48.87511" lon="1.71052">
        <ele>111</ele>
        <time>2018-10-21T07:56:41Z</time>
      </trkpt>
      <trkpt lat="48.87521" lon="1.71048">
        <ele>111</ele>
        <time>2018-10-21T07:56:48Z</time>
      </trkpt>
      <trkpt lat="48.8753" lon="1.71043">
        <ele>110</ele>
        <time>2018-10-21T07:56:54Z</time>
      </trkpt>
      <trkpt lat="48.87539" lon="1.7104">
        <ele>111</ele>
        <time>2018-10-21T07:57:01Z</time>
      </trkpt>
      <trkpt lat="48.87549" lon="1.71036">
        <ele>111</ele>
        <time>2018-10-21T07:57:08Z</time>
      </trkpt>
      <trkpt lat="48.87559" lon="1.71033">
        <ele>110</ele>
        <time>2018-10-21T07:57:15Z</time>
      </trkpt>
      <trkpt lat="48.87569" lon="1.71029">
        <ele>110</ele>
        <time>2018-10-21T07:57:22Z</time>
      </trkpt>
      <trkpt lat="48.87579" lon="1.71025">
        <ele>109</ele>
        <time>2018-10-21T07:57:28Z</time>
      </trkpt>
      <trkpt lat="48.87588" lon="1.71019">
        <ele>108</ele>
        <time>2018-10-21T07:57:35Z</time>
      </trkpt>
      <trkpt lat="48.87596" lon="1.71013">
        <ele>107</ele>
        <time>2018-10-21T07:57:59Z</time>
      </trkpt>
      <trkpt lat="48.87606" lon="1.71007">
        <ele>106</ele>
        <time>2018-10-21T07:58:06Z</time>
      </trkpt>
      <trkpt lat="48.87614" lon="1.71001">
        <ele>106</ele>
        <time>2018-10-21T07:58:13Z</time>
      </trkpt>
      <trkpt lat="48.87624" lon="1.70996">
        <ele>105</ele>
        <time>2018-10-21T07:58:21Z</time>
      </trkpt>
      <trkpt lat="48.87632" lon="1.70988">
        <ele>106</ele>
        <time>2018-10-21T07:58:29Z</time>
      </trkpt>
      <trkpt lat="48.87641" lon="1.7098">
        <ele>106</ele>
        <time>2018-10-21T07:58:35Z</time>
      </trkpt>
      <trkpt lat="48.87649" lon="1.70974">
        <ele>105</ele>
        <time>2018-10-21T07:58:42Z</time>
      </trkpt>
      <trkpt lat="48.87658" lon="1.70968">
        <ele>105</ele>
        <time>2018-10-21T07:58:49Z</time>
      </trkpt>
      <trkpt lat="48.87666" lon="1.70961">
        <ele>105</ele>
        <time>2018-10-21T07:58:56Z</time>
      </trkpt>
      <trkpt lat="48.87675" lon="1.70953">
        <ele>105</ele>
        <time>2018-10-21T07:59:05Z</time>
      </trkpt>
      <trkpt lat="48.87684" lon="1.70945">
        <ele>105</ele>
        <time>2018-10-21T07:59:13Z</time>
      </trkpt>
      <trkpt lat="48.87691" lon="1.70936">
        <ele>105</ele>
        <time>2018-10-21T07:59:19Z</time>
      </trkpt>
      <trkpt lat="48.87699" lon="1.70927">
        <ele>105</ele>
        <time>2018-10-21T07:59:26Z</time>
      </trkpt>
      <trkpt lat="48.87707" lon="1.70919">
        <ele>105</ele>
        <time>2018-10-21T07:59:33Z</time>
      </trkpt>
      <trkpt lat="48.87715" lon="1.7091">
        <ele>105</ele>
        <time>2018-10-21T07:59:40Z</time>
      </trkpt>
      <trkpt lat="48.87722" lon="1.70902">
        <ele>106</ele>
        <time>2018-10-21T07:59:46Z</time>
      </trkpt>
      <trkpt lat="48.87731" lon="1.70894">
        <ele>106</ele>
        <time>2018-10-21T07:59:53Z</time>
      </trkpt>
      <trkpt lat="48.87739" lon="1.70886">
        <ele>106</ele>
        <time>2018-10-21T08:00:00Z</time>
      </trkpt>
      <trkpt lat="48.87747" lon="1.70878">
        <ele>106</ele>
        <time>2018-10-21T08:00:08Z</time>
      </trkpt>
      <trkpt lat="48.87755" lon="1.70869">
        <ele>106</ele>
        <time>2018-10-21T08:00:15Z</time>
      </trkpt>
      <trkpt lat="48.87763" lon="1.70861">
        <ele>106</ele>
        <time>2018-10-21T08:00:22Z</time>
      </trkpt>
      <trkpt lat="48.87772" lon="1.70853">
        <ele>107</ele>
        <time>2018-10-21T08:00:28Z</time>
      </trkpt>
      <trkpt lat="48.87779" lon="1.70843">
        <ele>107</ele>
        <time>2018-10-21T08:00:37Z</time>
      </trkpt>
      <trkpt lat="48.87787" lon="1.70833">
        <ele>108</ele>
        <time>2018-10-21T08:00:48Z</time>
      </trkpt>
      <trkpt lat="48.87794" lon="1.70823">
        <ele>109</ele>
        <time>2018-10-21T08:00:56Z</time>
      </trkpt>
      <trkpt lat="48.87802" lon="1.70816">
        <ele>109</ele>
        <time>2018-10-21T08:01:03Z</time>
      </trkpt>
      <trkpt lat="48.8781" lon="1.70807">
        <ele>109</ele>
        <time>2018-10-21T08:01:12Z</time>
      </trkpt>
      <trkpt lat="48.87818" lon="1.708">
        <ele>110</ele>
        <time>2018-10-21T08:01:21Z</time>
      </trkpt>
      <trkpt lat="48.87825" lon="1.70792">
        <ele>110</ele>
        <time>2018-10-21T08:01:28Z</time>
      </trkpt>
      <trkpt lat="48.87832" lon="1.70781">
        <ele>110</ele>
        <time>2018-10-21T08:01:36Z</time>
      </trkpt>
      <trkpt lat="48.8784" lon="1.70773">
        <ele>110</ele>
        <time>2018-10-21T08:01:44Z</time>
      </trkpt>
      <trkpt lat="48.87849" lon="1.70768">
        <ele>111</ele>
        <time>2018-10-21T08:01:52Z</time>
      </trkpt>
      <trkpt lat="48.87858" lon="1.7076">
        <ele>112</ele>
        <time>2018-10-21T08:02:00Z</time>
      </trkpt>
      <trkpt lat="48.87867" lon="1.70755">
        <ele>112</ele>
        <time>2018-10-21T08:02:06Z</time>
      </trkpt>
      <trkpt lat="48.87876" lon="1.7075">
        <ele>112</ele>
        <time>2018-10-21T08:02:13Z</time>
      </trkpt>
      <trkpt lat="48.87884" lon="1.70745">
        <ele>112</ele>
        <time>2018-10-21T08:02:21Z</time>
      </trkpt>
      <trkpt lat="48.87894" lon="1.70742">
        <ele>112</ele>
        <time>2018-10-21T08:02:27Z</time>
      </trkpt>
      <trkpt lat="48.87903" lon="1.70738">
        <ele>112</ele>
        <time>2018-10-21T08:02:33Z</time>
      </trkpt>
      <trkpt lat="48.87912" lon="1.70738">
        <ele>113</ele>
        <time>2018-10-21T08:02:40Z</time>
      </trkpt>
      <trkpt lat="48.87922" lon="1.70737">
        <ele>113</ele>
        <time>2018-10-21T08:02:46Z</time>
      </trkpt>
      <trkpt lat="48.87932" lon="1.70735">
        <ele>113</ele>
        <time>2018-10-21T08:02:53Z</time>
      </trkpt>
      <trkpt lat="48.8794" lon="1.70729">
        <ele>114</ele>
        <time>2018-10-21T08:03:13Z</time>
      </trkpt>
      <trkpt lat="48.8795" lon="1.70724">
        <ele>113</ele>
        <time>2018-10-21T08:04:20Z</time>
      </trkpt>
      <trkpt lat="48.87956" lon="1.70714">
        <ele>114</ele>
        <time>2018-10-21T08:04:26Z</time>
      </trkpt>
      <trkpt lat="48.87962" lon="1.70703">
        <ele>114</ele>
        <time>2018-10-21T08:04:35Z</time>
      </trkpt>
      <trkpt lat="48.87968" lon="1.70692">
        <ele>115</ele>
        <time>2018-10-21T08:04:41Z</time>
      </trkpt>
      <trkpt lat="48.87975" lon="1.7068">
        <ele>115</ele>
        <time>2018-10-21T08:04:48Z</time>
      </trkpt>
      <trkpt lat="48.87982" lon="1.70671">
        <ele>115</ele>
        <time>2018-10-21T08:04:53Z</time>
      </trkpt>
      <trkpt lat="48.87989" lon="1.70662">
        <ele>116</ele>
        <time>2018-10-21T08:04:58Z</time>
      </trkpt>
      <trkpt lat="48.87997" lon="1.70654">
        <ele>116</ele>
        <time>2018-10-21T08:05:03Z</time>
      </trkpt>
      <trkpt lat="48.88005" lon="1.70646">
        <ele>117</ele>
        <time>2018-10-21T08:05:09Z</time>
      </trkpt>
      <trkpt lat="48.88011" lon="1.70635">
        <ele>117</ele>
        <time>2018-10-21T08:05:16Z</time>
      </trkpt>
      <trkpt lat="48.88017" lon="1.70625">
        <ele>117</ele>
        <time>2018-10-21T08:05:22Z</time>
      </trkpt>
      <trkpt lat="48.88024" lon="1.70616">
        <ele>117</ele>
        <time>2018-10-21T08:05:28Z</time>
      </trkpt>
      <trkpt lat="48.88033" lon="1.70608">
        <ele>117</ele>
        <time>2018-10-21T08:05:35Z</time>
      </trkpt>
      <trkpt lat="48.88041" lon="1.70598">
        <ele>117</ele>
        <time>2018-10-21T08:05:41Z</time>
      </trkpt>
      <trkpt lat="48.88047" lon="1.70587">
        <ele>117</ele>
        <time>2018-10-21T08:05:47Z</time>
      </trkpt>
      <trkpt lat="48.88055" lon="1.70579">
        <ele>118</ele>
        <time>2018-10-21T08:05:56Z</time>
      </trkpt>
      <trkpt lat="48.88063" lon="1.70571">
        <ele>118</ele>
        <time>2018-10-21T08:06:04Z</time>
      </trkpt>
      <trkpt lat="48.88071" lon="1.70564">
        <ele>118</ele>
        <time>2018-10-21T08:06:11Z</time>
      </trkpt>
      <trkpt lat="48.8808" lon="1.70559">
        <ele>117</ele>
        <time>2018-10-21T08:06:18Z</time>
      </trkpt>
      <trkpt lat="48.88089" lon="1.70553">
        <ele>117</ele>
        <time>2018-10-21T08:06:27Z</time>
      </trkpt>
      <trkpt lat="48.88097" lon="1.70559">
        <ele>116</ele>
        <time>2018-10-21T08:06:36Z</time>
      </trkpt>
      <trkpt lat="48.88103" lon="1.70571">
        <ele>116</ele>
        <time>2018-10-21T08:06:43Z</time>
      </trkpt>
      <trkpt lat="48.8811" lon="1.70581">
        <ele>116</ele>
        <time>2018-10-21T08:06:50Z</time>
      </trkpt>
      <trkpt lat="48.88118" lon="1.70589">
        <ele>116</ele>
        <time>2018-10-21T08:06:56Z</time>
      </trkpt>
      <trkpt lat="48.88124" lon="1.70601">
        <ele>116</ele>
        <time>2018-10-21T08:07:02Z</time>
      </trkpt>
      <trkpt lat="48.88131" lon="1.70612">
        <ele>116</ele>
        <time>2018-10-21T08:07:08Z</time>
      </trkpt>
      <trkpt lat="48.88136" lon="1.70623">
        <ele>116</ele>
        <time>2018-10-21T08:07:15Z</time>
      </trkpt>
      <trkpt lat="48.88141" lon="1.70636">
        <ele>116</ele>
        <time>2018-10-21T08:07:22Z</time>
      </trkpt>
      <trkpt lat="48.88148" lon="1.70648">
        <ele>116</ele>
        <time>2018-10-21T08:07:29Z</time>
      </trkpt>
      <trkpt lat="48.88156" lon="1.70656">
        <ele>116</ele>
        <time>2018-10-21T08:07:34Z</time>
      </trkpt>
      <trkpt lat="48.88162" lon="1.70667">
        <ele>117</ele>
        <time>2018-10-21T08:07:41Z</time>
      </trkpt>
      <trkpt lat="48.88168" lon="1.70678">
        <ele>117</ele>
        <time>2018-10-21T08:07:49Z</time>
      </trkpt>
      <trkpt lat="48.88173" lon="1.70689">
        <ele>117</ele>
        <time>2018-10-21T08:07:55Z</time>
      </trkpt>
      <trkpt lat="48.88179" lon="1.70702">
        <ele>117</ele>
        <time>2018-10-21T08:08:01Z</time>
      </trkpt>
      <trkpt lat="48.88184" lon="1.70714">
        <ele>117</ele>
        <time>2018-10-21T08:08:07Z</time>
      </trkpt>
      <trkpt lat="48.8819" lon="1.70728">
        <ele>117</ele>
        <time>2018-10-21T08:08:14Z</time>
      </trkpt>
      <trkpt lat="48.88192" lon="1.70741">
        <ele>117</ele>
        <time>2018-10-21T08:08:22Z</time>
      </trkpt>
      <trkpt lat="48.88196" lon="1.70727">
        <ele>117</ele>
        <time>2018-10-21T08:08:32Z</time>
      </trkpt>
      <trkpt lat="48.88199" lon="1.70713">
        <ele>117</ele>
        <time>2018-10-21T08:08:38Z</time>
      </trkpt>
      <trkpt lat="48.88201" lon="1.707">
        <ele>117</ele>
        <time>2018-10-21T08:08:44Z</time>
      </trkpt>
      <trkpt lat="48.88204" lon="1.70687">
        <ele>117</ele>
        <time>2018-10-21T08:08:50Z</time>
      </trkpt>
      <trkpt lat="48.88207" lon="1.70672">
        <ele>117</ele>
        <time>2018-10-21T08:08:57Z</time>
      </trkpt>
      <trkpt lat="48.88209" lon="1.70657">
        <ele>117</ele>
        <time>2018-10-21T08:09:04Z</time>
      </trkpt>
      <trkpt lat="48.88211" lon="1.70643">
        <ele>117</ele>
        <time>2018-10-21T08:09:09Z</time>
      </trkpt>
      <trkpt lat="48.88214" lon="1.70629">
        <ele>116</ele>
        <time>2018-10-21T08:09:16Z</time>
      </trkpt>
      <trkpt lat="48.88216" lon="1.70615">
        <ele>116</ele>
        <time>2018-10-21T08:09:23Z</time>
      </trkpt>
      <trkpt lat="48.88218" lon="1.70599">
        <ele>116</ele>
        <time>2018-10-21T08:09:29Z</time>
      </trkpt>
      <trkpt lat="48.8822" lon="1.70585">
        <ele>116</ele>
        <time>2018-10-21T08:09:35Z</time>
      </trkpt>
      <trkpt lat="48.88221" lon="1.7057">
        <ele>115</ele>
        <time>2018-10-21T08:09:41Z</time>
      </trkpt>
      <trkpt lat="48.88221" lon="1.70555">
        <ele>115</ele>
        <time>2018-10-21T08:09:47Z</time>
      </trkpt>
      <trkpt lat="48.8822" lon="1.7054">
        <ele>114</ele>
        <time>2018-10-21T08:09:55Z</time>
      </trkpt>
      <trkpt lat="48.88219" lon="1.70526">
        <ele>113</ele>
        <time>2018-10-21T08:10:02Z</time>
      </trkpt>
      <trkpt lat="48.88218" lon="1.70512">
        <ele>111</ele>
        <time>2018-10-21T08:10:09Z</time>
      </trkpt>
      <trkpt lat="48.88215" lon="1.70499">
        <ele>109</ele>
        <time>2018-10-21T08:10:17Z</time>
      </trkpt>
      <trkpt lat="48.88211" lon="1.70486">
        <ele>107</ele>
        <time>2018-10-21T08:10:25Z</time>
      </trkpt>
      <trkpt lat="48.88207" lon="1.70471">
        <ele>106</ele>
        <time>2018-10-21T08:10:31Z</time>
      </trkpt>
      <trkpt lat="48.88201" lon="1.70458">
        <ele>105</ele>
        <time>2018-10-21T08:10:37Z</time>
      </trkpt>
      <trkpt lat="48.88195" lon="1.70445">
        <ele>104</ele>
        <time>2018-10-21T08:10:42Z</time>
      </trkpt>
      <trkpt lat="48.88189" lon="1.70435">
        <ele>103</ele>
        <time>2018-10-21T08:10:47Z</time>
      </trkpt>
      <trkpt lat="48.88183" lon="1.70424">
        <ele>103</ele>
        <time>2018-10-21T08:10:53Z</time>
      </trkpt>
      <trkpt lat="48.88176" lon="1.70412">
        <ele>102</ele>
        <time>2018-10-21T08:11:00Z</time>
      </trkpt>
      <trkpt lat="48.88172" lon="1.70399">
        <ele>102</ele>
        <time>2018-10-21T08:11:06Z</time>
      </trkpt>
      <trkpt lat="48.88167" lon="1.70385">
        <ele>101</ele>
        <time>2018-10-21T08:11:14Z</time>
      </trkpt>
      <trkpt lat="48.88162" lon="1.70373">
        <ele>101</ele>
        <time>2018-10-21T08:11:20Z</time>
      </trkpt>
      <trkpt lat="48.88157" lon="1.70361">
        <ele>100</ele>
        <time>2018-10-21T08:11:26Z</time>
      </trkpt>
      <trkpt lat="48.88151" lon="1.7035">
        <ele>100</ele>
        <time>2018-10-21T08:11:32Z</time>
      </trkpt>
      <trkpt lat="48.88144" lon="1.70338">
        <ele>99</ele>
        <time>2018-10-21T08:11:38Z</time>
      </trkpt>
      <trkpt lat="48.88138" lon="1.70326">
        <ele>99</ele>
        <time>2018-10-21T08:11:44Z</time>
      </trkpt>
      <trkpt lat="48.88133" lon="1.70312">
        <ele>100</ele>
        <time>2018-10-21T08:11:50Z</time>
      </trkpt>
      <trkpt lat="48.88128" lon="1.703">
        <ele>100</ele>
        <time>2018-10-21T08:11:56Z</time>
      </trkpt>
      <trkpt lat="48.88122" lon="1.70288">
        <ele>100</ele>
        <time>2018-10-21T08:12:03Z</time>
      </trkpt>
      <trkpt lat="48.88116" lon="1.70276">
        <ele>101</ele>
        <time>2018-10-21T08:12:10Z</time>
      </trkpt>
      <trkpt lat="48.88109" lon="1.70266">
        <ele>101</ele>
        <time>2018-10-21T08:12:17Z</time>
      </trkpt>
      <trkpt lat="48.881" lon="1.70258">
        <ele>101</ele>
        <time>2018-10-21T08:12:25Z</time>
      </trkpt>
      <trkpt lat="48.88094" lon="1.70248">
        <ele>101</ele>
        <time>2018-10-21T08:12:31Z</time>
      </trkpt>
      <trkpt lat="48.88086" lon="1.70238">
        <ele>101</ele>
        <time>2018-10-21T08:12:37Z</time>
      </trkpt>
      <trkpt lat="48.8808" lon="1.70227">
        <ele>101</ele>
        <time>2018-10-21T08:12:42Z</time>
      </trkpt>
      <trkpt lat="48.88075" lon="1.70216">
        <ele>101</ele>
        <time>2018-10-21T08:12:49Z</time>
      </trkpt>
      <trkpt lat="48.88068" lon="1.70206">
        <ele>101</ele>
        <time>2018-10-21T08:12:56Z</time>
      </trkpt>
      <trkpt lat="48.88061" lon="1.70195">
        <ele>101</ele>
        <time>2018-10-21T08:13:04Z</time>
      </trkpt>
      <trkpt lat="48.88054" lon="1.70184">
        <ele>101</ele>
        <time>2018-10-21T08:13:10Z</time>
      </trkpt>
      <trkpt lat="48.88048" lon="1.70173">
        <ele>101</ele>
        <time>2018-10-21T08:13:16Z</time>
      </trkpt>
      <trkpt lat="48.88042" lon="1.70162">
        <ele>101</ele>
        <time>2018-10-21T08:13:23Z</time>
      </trkpt>
      <trkpt lat="48.88036" lon="1.70151">
        <ele>101</ele>
        <time>2018-10-21T08:13:30Z</time>
      </trkpt>
      <trkpt lat="48.88029" lon="1.70141">
        <ele>101</ele>
        <time>2018-10-21T08:13:38Z</time>
      </trkpt>
      <trkpt lat="48.88023" lon="1.70131">
        <ele>101</ele>
        <time>2018-10-21T08:13:44Z</time>
      </trkpt>
      <trkpt lat="48.88016" lon="1.7012">
        <ele>101</ele>
        <time>2018-10-21T08:13:51Z</time>
      </trkpt>
      <trkpt lat="48.88009" lon="1.7011">
        <ele>101</ele>
        <time>2018-10-21T08:13:58Z</time>
      </trkpt>
      <trkpt lat="48.88001" lon="1.70099">
        <ele>100</ele>
        <time>2018-10-21T08:14:05Z</time>
      </trkpt>
      <trkpt lat="48.87994" lon="1.70089">
        <ele>100</ele>
        <time>2018-10-21T08:14:12Z</time>
      </trkpt>
      <trkpt lat="48.87987" lon="1.7008">
        <ele>100</ele>
        <time>2018-10-21T08:14:19Z</time>
      </trkpt>
      <trkpt lat="48.87981" lon="1.7007">
        <ele>100</ele>
        <time>2018-10-21T08:14:25Z</time>
      </trkpt>
      <trkpt lat="48.87974" lon="1.70059">
        <ele>100</ele>
        <time>2018-10-21T08:14:32Z</time>
      </trkpt>
      <trkpt lat="48.87967" lon="1.7005">
        <ele>101</ele>
        <time>2018-10-21T08:14:38Z</time>
      </trkpt>
      <trkpt lat="48.87971" lon="1.70063">
        <ele>102</ele>
        <time>2018-10-21T08:15:01Z</time>
      </trkpt>
      <trkpt lat="48.87973" lon="1.70076">
        <ele>102</ele>
        <time>2018-10-21T08:15:09Z</time>
      </trkpt>
      <trkpt lat="48.87967" lon="1.70087">
        <ele>102</ele>
        <time>2018-10-21T08:15:17Z</time>
      </trkpt>
      <trkpt lat="48.87961" lon="1.70097">
        <ele>102</ele>
        <time>2018-10-21T08:15:25Z</time>
      </trkpt>
      <trkpt lat="48.87954" lon="1.70109">
        <ele>103</ele>
        <time>2018-10-21T08:15:34Z</time>
      </trkpt>
      <trkpt lat="48.87946" lon="1.70119">
        <ele>103</ele>
        <time>2018-10-21T08:15:41Z</time>
      </trkpt>
      <trkpt lat="48.87939" lon="1.7013">
        <ele>104</ele>
        <time>2018-10-21T08:15:47Z</time>
      </trkpt>
      <trkpt lat="48.87932" lon="1.7014">
        <ele>105</ele>
        <time>2018-10-21T08:15:54Z</time>
      </trkpt>
      <trkpt lat="48.87926" lon="1.70151">
        <ele>106</ele>
        <time>2018-10-21T08:16:03Z</time>
      </trkpt>
      <trkpt lat="48.8792" lon="1.70162">
        <ele>107</ele>
        <time>2018-10-21T08:16:10Z</time>
      </trkpt>
      <trkpt lat="48.87911" lon="1.70167">
        <ele>109</ele>
        <time>2018-10-21T08:16:25Z</time>
      </trkpt>
      <trkpt lat="48.87903" lon="1.70159">
        <ele>109</ele>
        <time>2018-10-21T08:16:34Z</time>
      </trkpt>
      <trkpt lat="48.87895" lon="1.70151">
        <ele>108</ele>
        <time>2018-10-21T08:16:42Z</time>
      </trkpt>
      <trkpt lat="48.87886" lon="1.70145">
        <ele>108</ele>
        <time>2018-10-21T08:16:49Z</time>
      </trkpt>
      <trkpt lat="48.87877" lon="1.70138">
        <ele>108</ele>
        <time>2018-10-21T08:16:58Z</time>
      </trkpt>
      <trkpt lat="48.87869" lon="1.70129">
        <ele>108</ele>
        <time>2018-10-21T08:17:05Z</time>
      </trkpt>
      <trkpt lat="48.8786" lon="1.70124">
        <ele>108</ele>
        <time>2018-10-21T08:17:12Z</time>
      </trkpt>
      <trkpt lat="48.87853" lon="1.70115">
        <ele>108</ele>
        <time>2018-10-21T08:17:18Z</time>
      </trkpt>
      <trkpt lat="48.87845" lon="1.70108">
        <ele>109</ele>
        <time>2018-10-21T08:17:27Z</time>
      </trkpt>
      <trkpt lat="48.87836" lon="1.70099">
        <ele>109</ele>
        <time>2018-10-21T08:17:34Z</time>
      </trkpt>
      <trkpt lat="48.87829" lon="1.7009">
        <ele>110</ele>
        <time>2018-10-21T08:17:40Z</time>
      </trkpt>
      <trkpt lat="48.87822" lon="1.7008">
        <ele>111</ele>
        <time>2018-10-21T08:17:49Z</time>
      </trkpt>
      <trkpt lat="48.87814" lon="1.70074">
        <ele>111</ele>
        <time>2018-10-21T08:17:57Z</time>
      </trkpt>
      <trkpt lat="48.87805" lon="1.7007">
        <ele>111</ele>
        <time>2018-10-21T08:18:03Z</time>
      </trkpt>
      <trkpt lat="48.87795" lon="1.70066">
        <ele>111</ele>
        <time>2018-10-21T08:18:08Z</time>
      </trkpt>
      <trkpt lat="48.87787" lon="1.70059">
        <ele>111</ele>
        <time>2018-10-21T08:18:14Z</time>
      </trkpt>
      <trkpt lat="48.87778" lon="1.70052">
        <ele>111</ele>
        <time>2018-10-21T08:18:25Z</time>
      </trkpt>
      <trkpt lat="48.87769" lon="1.70046">
        <ele>111</ele>
        <time>2018-10-21T08:18:37Z</time>
      </trkpt>
      <trkpt lat="48.87759" lon="1.70049">
        <ele>111</ele>
        <time>2018-10-21T08:18:42Z</time>
      </trkpt>
      <trkpt lat="48.8775" lon="1.70051">
        <ele>111</ele>
        <time>2018-10-21T08:18:46Z</time>
      </trkpt>
      <trkpt lat="48.87741" lon="1.70053">
        <ele>111</ele>
        <time>2018-10-21T08:18:51Z</time>
      </trkpt>
      <trkpt lat="48.87731" lon="1.70055">
        <ele>111</ele>
        <time>2018-10-21T08:18:57Z</time>
      </trkpt>
      <trkpt lat="48.87722" lon="1.70054">
        <ele>112</ele>
        <time>2018-10-21T08:19:06Z</time>
      </trkpt>
      <trkpt lat="48.87712" lon="1.70056">
        <ele>113</ele>
        <time>2018-10-21T08:19:20Z</time>
      </trkpt>
      <trkpt lat="48.87703" lon="1.70058">
        <ele>114</ele>
        <time>2018-10-21T08:19:32Z</time>
      </trkpt>
      <trkpt lat="48.87693" lon="1.70059">
        <ele>115</ele>
        <time>2018-10-21T08:19:41Z</time>
      </trkpt>
      <trkpt lat="48.87683" lon="1.70057">
        <ele>115</ele>
        <time>2018-10-21T08:19:50Z</time>
      </trkpt>
      <trkpt lat="48.87692" lon="1.70066">
        <ele>112</ele>
        <time>2018-10-21T08:20:29Z</time>
      </trkpt>
      <trkpt lat="48.87678" lon="1.70068">
        <ele>111</ele>
        <time>2018-10-21T08:20:31Z</time>
      </trkpt>
      <trkpt lat="48.87673" lon="1.7008">
        <ele>112</ele>
        <time>2018-10-21T08:20:42Z</time>
      </trkpt>
      <trkpt lat="48.87666" lon="1.70072">
        <ele>113</ele>
        <time>2018-10-21T08:21:10Z</time>
      </trkpt>
      <trkpt lat="48.87656" lon="1.70069">
        <ele>113</ele>
        <time>2018-10-21T08:21:17Z</time>
      </trkpt>
      <trkpt lat="48.87647" lon="1.70069">
        <ele>114</ele>
        <time>2018-10-21T08:21:24Z</time>
      </trkpt>
      <trkpt lat="48.87638" lon="1.70071">
        <ele>115</ele>
        <time>2018-10-21T08:21:32Z</time>
      </trkpt>
      <trkpt lat="48.8763" lon="1.70077">
        <ele>115</ele>
        <time>2018-10-21T08:21:43Z</time>
      </trkpt>
      <trkpt lat="48.87621" lon="1.70083">
        <ele>117</ele>
        <time>2018-10-21T08:22:10Z</time>
      </trkpt>
      <trkpt lat="48.87613" lon="1.70089">
        <ele>118</ele>
        <time>2018-10-21T08:22:21Z</time>
      </trkpt>
      <trkpt lat="48.87604" lon="1.70097">
        <ele>118</ele>
        <time>2018-10-21T08:22:32Z</time>
      </trkpt>
      <trkpt lat="48.87596" lon="1.70102">
        <ele>118</ele>
        <time>2018-10-21T08:22:40Z</time>
      </trkpt>
      <trkpt lat="48.87586" lon="1.70108">
        <ele>118</ele>
        <time>2018-10-21T08:22:48Z</time>
      </trkpt>
      <trkpt lat="48.87576" lon="1.70114">
        <ele>119</ele>
        <time>2018-10-21T08:22:55Z</time>
      </trkpt>
      <trkpt lat="48.87568" lon="1.70122">
        <ele>119</ele>
        <time>2018-10-21T08:23:01Z</time>
      </trkpt>
      <trkpt lat="48.87561" lon="1.70132">
        <ele>119</ele>
        <time>2018-10-21T08:23:08Z</time>
      </trkpt>
      <trkpt lat="48.87554" lon="1.70141">
        <ele>118</ele>
        <time>2018-10-21T08:23:15Z</time>
      </trkpt>
      <trkpt lat="48.87547" lon="1.7015">
        <ele>118</ele>
        <time>2018-10-21T08:23:23Z</time>
      </trkpt>
      <trkpt lat="48.87537" lon="1.70153">
        <ele>117</ele>
        <time>2018-10-21T08:23:31Z</time>
      </trkpt>
      <trkpt lat="48.87527" lon="1.70149">
        <ele>117</ele>
        <time>2018-10-21T08:23:37Z</time>
      </trkpt>
      <trkpt lat="48.87519" lon="1.70143">
        <ele>115</ele>
        <time>2018-10-21T08:23:45Z</time>
      </trkpt>
      <trkpt lat="48.87511" lon="1.70133">
        <ele>113</ele>
        <time>2018-10-21T08:23:53Z</time>
      </trkpt>
      <trkpt lat="48.87503" lon="1.70126">
        <ele>112</ele>
        <time>2018-10-21T08:23:59Z</time>
      </trkpt>
      <trkpt lat="48.87495" lon="1.7012">
        <ele>111</ele>
        <time>2018-10-21T08:24:05Z</time>
      </trkpt>
      <trkpt lat="48.87487" lon="1.70111">
        <ele>110</ele>
        <time>2018-10-21T08:24:12Z</time>
      </trkpt>
      <trkpt lat="48.87478" lon="1.70106">
        <ele>109</ele>
        <time>2018-10-21T08:24:19Z</time>
      </trkpt>
      <trkpt lat="48.87468" lon="1.70101">
        <ele>108</ele>
        <time>2018-10-21T08:24:26Z</time>
      </trkpt>
      <trkpt lat="48.87458" lon="1.70095">
        <ele>107</ele>
        <time>2018-10-21T08:24:33Z</time>
      </trkpt>
      <trkpt lat="48.8745" lon="1.70089">
        <ele>106</ele>
        <time>2018-10-21T08:24:40Z</time>
      </trkpt>
      <trkpt lat="48.87441" lon="1.70085">
        <ele>105</ele>
        <time>2018-10-21T08:24:47Z</time>
      </trkpt>
      <trkpt lat="48.87432" lon="1.70079">
        <ele>104</ele>
        <time>2018-10-21T08:24:54Z</time>
      </trkpt>
      <trkpt lat="48.87423" lon="1.70071">
        <ele>104</ele>
        <time>2018-10-21T08:25:00Z</time>
      </trkpt>
      <trkpt lat="48.87414" lon="1.70067">
        <ele>103</ele>
        <time>2018-10-21T08:25:07Z</time>
      </trkpt>
      <trkpt lat="48.87406" lon="1.70062">
        <ele>102</ele>
        <time>2018-10-21T08:25:14Z</time>
      </trkpt>
      <trkpt lat="48.87397" lon="1.70056">
        <ele>102</ele>
        <time>2018-10-21T08:25:21Z</time>
      </trkpt>
      <trkpt lat="48.87388" lon="1.70049">
        <ele>101</ele>
        <time>2018-10-21T08:25:27Z</time>
      </trkpt>
      <trkpt lat="48.87379" lon="1.70043">
        <ele>101</ele>
        <time>2018-10-21T08:25:33Z</time>
      </trkpt>
      <trkpt lat="48.87371" lon="1.70038">
        <ele>100</ele>
        <time>2018-10-21T08:25:39Z</time>
      </trkpt>
      <trkpt lat="48.87362" lon="1.70032">
        <ele>100</ele>
        <time>2018-10-21T08:25:46Z</time>
      </trkpt>
      <trkpt lat="48.87354" lon="1.70025">
        <ele>100</ele>
        <time>2018-10-21T08:25:53Z</time>
      </trkpt>
      <trkpt lat="48.87346" lon="1.70017">
        <ele>100</ele>
        <time>2018-10-21T08:25:59Z</time>
      </trkpt>
      <trkpt lat="48.87338" lon="1.70025">
        <ele>101</ele>
        <time>2018-10-21T08:26:14Z</time>
      </trkpt>
      <trkpt lat="48.87332" lon="1.70037">
        <ele>101</ele>
        <time>2018-10-21T08:26:22Z</time>
      </trkpt>
      <trkpt lat="48.87328" lon="1.70051">
        <ele>101</ele>
        <time>2018-10-21T08:26:31Z</time>
      </trkpt>
      <trkpt lat="48.87325" lon="1.70065">
        <ele>101</ele>
        <time>2018-10-21T08:26:39Z</time>
      </trkpt>
      <trkpt lat="48.87317" lon="1.70076">
        <ele>99</ele>
        <time>2018-10-21T08:26:49Z</time>
      </trkpt>
      <trkpt lat="48.87313" lon="1.70089">
        <ele>98</ele>
        <time>2018-10-21T08:26:55Z</time>
      </trkpt>
      <trkpt lat="48.87308" lon="1.70101">
        <ele>97</ele>
        <time>2018-10-21T08:27:01Z</time>
      </trkpt>
      <trkpt lat="48.87303" lon="1.70114">
        <ele>96</ele>
        <time>2018-10-21T08:27:07Z</time>
      </trkpt>
      <trkpt lat="48.87298" lon="1.70127">
        <ele>96</ele>
        <time>2018-10-21T08:27:14Z</time>
      </trkpt>
      <trkpt lat="48.87293" lon="1.70139">
        <ele>96</ele>
        <time>2018-10-21T08:27:20Z</time>
      </trkpt>
      <trkpt lat="48.87288" lon="1.70151">
        <ele>96</ele>
        <time>2018-10-21T08:27:27Z</time>
      </trkpt>
      <trkpt lat="48.87284" lon="1.70164">
        <ele>96</ele>
        <time>2018-10-21T08:27:33Z</time>
      </trkpt>
      <trkpt lat="48.8728" lon="1.70176">
        <ele>96</ele>
        <time>2018-10-21T08:27:39Z</time>
      </trkpt>
      <trkpt lat="48.87271" lon="1.70184">
        <ele>96</ele>
        <time>2018-10-21T08:27:51Z</time>
      </trkpt>
      <trkpt lat="48.87261" lon="1.70184">
        <ele>96</ele>
        <time>2018-10-21T08:27:58Z</time>
      </trkpt>
      <trkpt lat="48.87256" lon="1.7017">
        <ele>97</ele>
        <time>2018-10-21T08:28:09Z</time>
      </trkpt>
      <trkpt lat="48.87251" lon="1.70158">
        <ele>97</ele>
        <time>2018-10-21T08:28:16Z</time>
      </trkpt>
      <trkpt lat="48.87243" lon="1.70148">
        <ele>98</ele>
        <time>2018-10-21T08:28:24Z</time>
      </trkpt>
      <trkpt lat="48.87235" lon="1.70139">
        <ele>98</ele>
        <time>2018-10-21T08:28:32Z</time>
      </trkpt>
      <trkpt lat="48.87227" lon="1.7013">
        <ele>98</ele>
        <time>2018-10-21T08:28:38Z</time>
      </trkpt>
      <trkpt lat="48.87219" lon="1.70121">
        <ele>99</ele>
        <time>2018-10-21T08:28:44Z</time>
      </trkpt>
      <trkpt lat="48.87211" lon="1.70113">
        <ele>99</ele>
        <time>2018-10-21T08:28:51Z</time>
      </trkpt>
      <trkpt lat="48.87201" lon="1.7011">
        <ele>99</ele>
        <time>2018-10-21T08:29:00Z</time>
      </trkpt>
      <trkpt lat="48.87193" lon="1.70103">
        <ele>100</ele>
        <time>2018-10-21T08:29:06Z</time>
      </trkpt>
      <trkpt lat="48.87185" lon="1.70096">
        <ele>100</ele>
        <time>2018-10-21T08:29:12Z</time>
      </trkpt>
      <trkpt lat="48.87175" lon="1.70091">
        <ele>100</ele>
        <time>2018-10-21T08:29:19Z</time>
      </trkpt>
      <trkpt lat="48.87167" lon="1.70085">
        <ele>100</ele>
        <time>2018-10-21T08:29:25Z</time>
      </trkpt>
      <trkpt lat="48.87159" lon="1.70078">
        <ele>100</ele>
        <time>2018-10-21T08:29:33Z</time>
      </trkpt>
      <trkpt lat="48.8715" lon="1.70075">
        <ele>100</ele>
        <time>2018-10-21T08:29:40Z</time>
      </trkpt>
      <trkpt lat="48.8714" lon="1.70074">
        <ele>101</ele>
        <time>2018-10-21T08:29:48Z</time>
      </trkpt>
      <trkpt lat="48.87131" lon="1.70069">
        <ele>101</ele>
        <time>2018-10-21T08:29:55Z</time>
      </trkpt>
      <trkpt lat="48.87122" lon="1.70067">
        <ele>101</ele>
        <time>2018-10-21T08:30:02Z</time>
      </trkpt>
      <trkpt lat="48.87112" lon="1.70066">
        <ele>101</ele>
        <time>2018-10-21T08:30:09Z</time>
      </trkpt>
      <trkpt lat="48.87102" lon="1.70064">
        <ele>101</ele>
        <time>2018-10-21T08:30:15Z</time>
      </trkpt>
      <trkpt lat="48.87091" lon="1.70066">
        <ele>102</ele>
        <time>2018-10-21T08:30:23Z</time>
      </trkpt>
      <trkpt lat="48.87081" lon="1.70069">
        <ele>102</ele>
        <time>2018-10-21T08:30:30Z</time>
      </trkpt>
      <trkpt lat="48.87072" lon="1.70072">
        <ele>102</ele>
        <time>2018-10-21T08:30:38Z</time>
      </trkpt>
      <trkpt lat="48.87063" lon="1.70071">
        <ele>102</ele>
        <time>2018-10-21T08:30:44Z</time>
      </trkpt>
      <trkpt lat="48.87052" lon="1.70069">
        <ele>101</ele>
        <time>2018-10-21T08:30:51Z</time>
      </trkpt>
      <trkpt lat="48.87041" lon="1.70067">
        <ele>101</ele>
        <time>2018-10-21T08:30:56Z</time>
      </trkpt>
      <trkpt lat="48.87032" lon="1.70069">
        <ele>101</ele>
        <time>2018-10-21T08:31:05Z</time>
      </trkpt>
      <trkpt lat="48.87022" lon="1.70068">
        <ele>101</ele>
        <time>2018-10-21T08:31:09Z</time>
      </trkpt>
      <trkpt lat="48.87012" lon="1.70071">
        <ele>101</ele>
        <time>2018-10-21T08:31:17Z</time>
      </trkpt>
      <trkpt lat="48.87002" lon="1.70073">
        <ele>101</ele>
        <time>2018-10-21T08:31:24Z</time>
      </trkpt>
      <trkpt lat="48.86994" lon="1.70079">
        <ele>101</ele>
        <time>2018-10-21T08:31:30Z</time>
      </trkpt>
      <trkpt lat="48.86986" lon="1.70087">
        <ele>101</ele>
        <time>2018-10-21T08:31:36Z</time>
      </trkpt>
      <trkpt lat="48.86979" lon="1.70095">
        <ele>101</ele>
        <time>2018-10-21T08:31:43Z</time>
      </trkpt>
      <trkpt lat="48.86972" lon="1.70107">
        <ele>101</ele>
        <time>2018-10-21T08:31:50Z</time>
      </trkpt>
      <trkpt lat="48.86964" lon="1.70114">
        <ele>100</ele>
        <time>2018-10-21T08:31:57Z</time>
      </trkpt>
      <trkpt lat="48.86955" lon="1.70121">
        <ele>100</ele>
        <time>2018-10-21T08:32:04Z</time>
      </trkpt>
      <trkpt lat="48.86948" lon="1.7013">
        <ele>100</ele>
        <time>2018-10-21T08:32:12Z</time>
      </trkpt>
      <trkpt lat="48.86939" lon="1.70139">
        <ele>101</ele>
        <time>2018-10-21T08:32:19Z</time>
      </trkpt>
      <trkpt lat="48.86931" lon="1.70145">
        <ele>101</ele>
        <time>2018-10-21T08:32:25Z</time>
      </trkpt>
      <trkpt lat="48.86922" lon="1.70147">
        <ele>101</ele>
        <time>2018-10-21T08:32:31Z</time>
      </trkpt>
      <trkpt lat="48.86913" lon="1.70153">
        <ele>101</ele>
        <time>2018-10-21T08:32:44Z</time>
      </trkpt>
      <trkpt lat="48.86904" lon="1.70158">
        <ele>100</ele>
        <time>2018-10-21T08:32:52Z</time>
      </trkpt>
      <trkpt lat="48.86895" lon="1.70164">
        <ele>100</ele>
        <time>2018-10-21T08:32:59Z</time>
      </trkpt>
      <trkpt lat="48.86886" lon="1.7017">
        <ele>99</ele>
        <time>2018-10-21T08:33:04Z</time>
      </trkpt>
      <trkpt lat="48.86877" lon="1.70174">
        <ele>99</ele>
        <time>2018-10-21T08:33:10Z</time>
      </trkpt>
      <trkpt lat="48.86869" lon="1.70181">
        <ele>98</ele>
        <time>2018-10-21T08:33:16Z</time>
      </trkpt>
      <trkpt lat="48.8686" lon="1.70187">
        <ele>98</ele>
        <time>2018-10-21T08:33:23Z</time>
      </trkpt>
      <trkpt lat="48.86852" lon="1.70194">
        <ele>97</ele>
        <time>2018-10-21T08:33:30Z</time>
      </trkpt>
      <trkpt lat="48.86844" lon="1.702">
        <ele>98</ele>
        <time>2018-10-21T08:33:36Z</time>
      </trkpt>
      <trkpt lat="48.86835" lon="1.70205">
        <ele>98</ele>
        <time>2018-10-21T08:33:43Z</time>
      </trkpt>
      <trkpt lat="48.86824" lon="1.70206">
        <ele>98</ele>
        <time>2018-10-21T08:33:52Z</time>
      </trkpt>
      <trkpt lat="48.86815" lon="1.70202">
        <ele>98</ele>
        <time>2018-10-21T08:34:01Z</time>
      </trkpt>
      <trkpt lat="48.86806" lon="1.70199">
        <ele>98</ele>
        <time>2018-10-21T08:34:11Z</time>
      </trkpt>
      <trkpt lat="48.86796" lon="1.70196">
        <ele>97</ele>
        <time>2018-10-21T08:34:20Z</time>
      </trkpt>
      <trkpt lat="48.86787" lon="1.70191">
        <ele>97</ele>
        <time>2018-10-21T08:34:26Z</time>
      </trkpt>
      <trkpt lat="48.86778" lon="1.70188">
        <ele>97</ele>
        <time>2018-10-21T08:34:30Z</time>
      </trkpt>
      <trkpt lat="48.86769" lon="1.70186">
        <ele>96</ele>
        <time>2018-10-21T08:34:34Z</time>
      </trkpt>
      <trkpt lat="48.86759" lon="1.70187">
        <ele>96</ele>
        <time>2018-10-21T08:34:40Z</time>
      </trkpt>
      <trkpt lat="48.8675" lon="1.70188">
        <ele>96</ele>
        <time>2018-10-21T08:34:48Z</time>
      </trkpt>
      <trkpt lat="48.8674" lon="1.70186">
        <ele>95</ele>
        <time>2018-10-21T08:34:56Z</time>
      </trkpt>
      <trkpt lat="48.86731" lon="1.70186">
        <ele>95</ele>
        <time>2018-10-21T08:35:04Z</time>
      </trkpt>
      <trkpt lat="48.86722" lon="1.70187">
        <ele>94</ele>
        <time>2018-10-21T08:35:10Z</time>
      </trkpt>
      <trkpt lat="48.86712" lon="1.70192">
        <ele>93</ele>
        <time>2018-10-21T08:35:16Z</time>
      </trkpt>
      <trkpt lat="48.86702" lon="1.70196">
        <ele>93</ele>
        <time>2018-10-21T08:35:22Z</time>
      </trkpt>
      <trkpt lat="48.86693" lon="1.70202">
        <ele>93</ele>
        <time>2018-10-21T08:35:28Z</time>
      </trkpt>
      <trkpt lat="48.86684" lon="1.70207">
        <ele>93</ele>
        <time>2018-10-21T08:35:34Z</time>
      </trkpt>
      <trkpt lat="48.86675" lon="1.70213">
        <ele>93</ele>
        <time>2018-10-21T08:35:41Z</time>
      </trkpt>
      <trkpt lat="48.86665" lon="1.70219">
        <ele>93</ele>
        <time>2018-10-21T08:35:48Z</time>
      </trkpt>
      <trkpt lat="48.86657" lon="1.70225">
        <ele>94</ele>
        <time>2018-10-21T08:35:54Z</time>
      </trkpt>
      <trkpt lat="48.86648" lon="1.7023">
        <ele>94</ele>
        <time>2018-10-21T08:36:00Z</time>
      </trkpt>
      <trkpt lat="48.8664" lon="1.70237">
        <ele>94</ele>
        <time>2018-10-21T08:36:07Z</time>
      </trkpt>
      <trkpt lat="48.86631" lon="1.70243">
        <ele>95</ele>
        <time>2018-10-21T08:36:14Z</time>
      </trkpt>
      <trkpt lat="48.86622" lon="1.7025">
        <ele>95</ele>
        <time>2018-10-21T08:36:21Z</time>
      </trkpt>
      <trkpt lat="48.86614" lon="1.70256">
        <ele>95</ele>
        <time>2018-10-21T08:36:28Z</time>
      </trkpt>
      <trkpt lat="48.86605" lon="1.70264">
        <ele>95</ele>
        <time>2018-10-21T08:36:35Z</time>
      </trkpt>
      <trkpt lat="48.86596" lon="1.70271">
        <ele>96</ele>
        <time>2018-10-21T08:36:42Z</time>
      </trkpt>
      <trkpt lat="48.86587" lon="1.70277">
        <ele>96</ele>
        <time>2018-10-21T08:36:49Z</time>
      </trkpt>
      <trkpt lat="48.86579" lon="1.70283">
        <ele>96</ele>
        <time>2018-10-21T08:36:59Z</time>
      </trkpt>
      <trkpt lat="48.8657" lon="1.70291">
        <ele>96</ele>
        <time>2018-10-21T08:37:07Z</time>
      </trkpt>
      <trkpt lat="48.86561" lon="1.70297">
        <ele>96</ele>
        <time>2018-10-21T08:37:13Z</time>
      </trkpt>
      <trkpt lat="48.86553" lon="1.70303">
        <ele>96</ele>
        <time>2018-10-21T08:37:20Z</time>
      </trkpt>
      <trkpt lat="48.86545" lon="1.70309">
        <ele>96</ele>
        <time>2018-10-21T08:37:27Z</time>
      </trkpt>
      <trkpt lat="48.86536" lon="1.70315">
        <ele>96</ele>
        <time>2018-10-21T08:37:34Z</time>
      </trkpt>
      <trkpt lat="48.86527" lon="1.70322">
        <ele>96</ele>
        <time>2018-10-21T08:37:41Z</time>
      </trkpt>
      <trkpt lat="48.86517" lon="1.70327">
        <ele>96</ele>
        <time>2018-10-21T08:37:48Z</time>
      </trkpt>
      <trkpt lat="48.86508" lon="1.70332">
        <ele>96</ele>
        <time>2018-10-21T08:37:55Z</time>
      </trkpt>
      <trkpt lat="48.86499" lon="1.70337">
        <ele>96</ele>
        <time>2018-10-21T08:38:03Z</time>
      </trkpt>
      <trkpt lat="48.86489" lon="1.70342">
        <ele>96</ele>
        <time>2018-10-21T08:38:11Z</time>
      </trkpt>
      <trkpt lat="48.86481" lon="1.70346">
        <ele>96</ele>
        <time>2018-10-21T08:38:17Z</time>
      </trkpt>
      <trkpt lat="48.86471" lon="1.70351">
        <ele>96</ele>
        <time>2018-10-21T08:38:23Z</time>
      </trkpt>
      <trkpt lat="48.86462" lon="1.70358">
        <ele>96</ele>
        <time>2018-10-21T08:38:30Z</time>
      </trkpt>
      <trkpt lat="48.86454" lon="1.70363">
        <ele>97</ele>
        <time>2018-10-21T08:38:36Z</time>
      </trkpt>
      <trkpt lat="48.86444" lon="1.70369">
        <ele>97</ele>
        <time>2018-10-21T08:38:43Z</time>
      </trkpt>
      <trkpt lat="48.86436" lon="1.70374">
        <ele>98</ele>
        <time>2018-10-21T08:38:49Z</time>
      </trkpt>
      <trkpt lat="48.86428" lon="1.70383">
        <ele>98</ele>
        <time>2018-10-21T08:38:57Z</time>
      </trkpt>
      <trkpt lat="48.8642" lon="1.7039">
        <ele>98</ele>
        <time>2018-10-21T08:39:04Z</time>
      </trkpt>
      <trkpt lat="48.86413" lon="1.70399">
        <ele>98</ele>
        <time>2018-10-21T08:39:11Z</time>
      </trkpt>
      <trkpt lat="48.86405" lon="1.70408">
        <ele>98</ele>
        <time>2018-10-21T08:39:18Z</time>
      </trkpt>
      <trkpt lat="48.86397" lon="1.70416">
        <ele>98</ele>
        <time>2018-10-21T08:39:25Z</time>
      </trkpt>
      <trkpt lat="48.86389" lon="1.70425">
        <ele>98</ele>
        <time>2018-10-21T08:39:31Z</time>
      </trkpt>
      <trkpt lat="48.86382" lon="1.70433">
        <ele>98</ele>
        <time>2018-10-21T08:39:37Z</time>
      </trkpt>
      <trkpt lat="48.86374" lon="1.70441">
        <ele>98</ele>
        <time>2018-10-21T08:39:43Z</time>
      </trkpt>
      <trkpt lat="48.86366" lon="1.70449">
        <ele>98</ele>
        <time>2018-10-21T08:39:49Z</time>
      </trkpt>
      <trkpt lat="48.86359" lon="1.70459">
        <ele>98</ele>
        <time>2018-10-21T08:39:56Z</time>
      </trkpt>
      <trkpt lat="48.86351" lon="1.70466">
        <ele>99</ele>
        <time>2018-10-21T08:40:03Z</time>
      </trkpt>
      <trkpt lat="48.86344" lon="1.70474">
        <ele>99</ele>
        <time>2018-10-21T08:40:10Z</time>
      </trkpt>
      <trkpt lat="48.86336" lon="1.70482">
        <ele>99</ele>
        <time>2018-10-21T08:40:16Z</time>
      </trkpt>
      <trkpt lat="48.86329" lon="1.7049">
        <ele>99</ele>
        <time>2018-10-21T08:40:23Z</time>
      </trkpt>
      <trkpt lat="48.86321" lon="1.70498">
        <ele>99</ele>
        <time>2018-10-21T08:40:30Z</time>
      </trkpt>
      <trkpt lat="48.86313" lon="1.70506">
        <ele>99</ele>
        <time>2018-10-21T08:40:36Z</time>
      </trkpt>
      <trkpt lat="48.86305" lon="1.70515">
        <ele>99</ele>
        <time>2018-10-21T08:40:42Z</time>
      </trkpt>
      <trkpt lat="48.86297" lon="1.70524">
        <ele>99</ele>
        <time>2018-10-21T08:40:49Z</time>
      </trkpt>
      <trkpt lat="48.86289" lon="1.70533">
        <ele>99</ele>
        <time>2018-10-21T08:40:56Z</time>
      </trkpt>
      <trkpt lat="48.86281" lon="1.70542">
        <ele>99</ele>
        <time>2018-10-21T08:41:02Z</time>
      </trkpt>
      <trkpt lat="48.86273" lon="1.70552">
        <ele>99</ele>
        <time>2018-10-21T08:41:09Z</time>
      </trkpt>
      <trkpt lat="48.86265" lon="1.70561">
        <ele>99</ele>
        <time>2018-10-21T08:41:17Z</time>
      </trkpt>
      <trkpt lat="48.86258" lon="1.70569">
        <ele>99</ele>
        <time>2018-10-21T08:41:24Z</time>
      </trkpt>
      <trkpt lat="48.8625" lon="1.70578">
        <ele>99</ele>
        <time>2018-10-21T08:41:31Z</time>
      </trkpt>
      <trkpt lat="48.86243" lon="1.70587">
        <ele>99</ele>
        <time>2018-10-21T08:41:37Z</time>
      </trkpt>
      <trkpt lat="48.86235" lon="1.70596">
        <ele>99</ele>
        <time>2018-10-21T08:41:44Z</time>
      </trkpt>
      <trkpt lat="48.86228" lon="1.70605">
        <ele>99</ele>
        <time>2018-10-21T08:41:51Z</time>
      </trkpt>
      <trkpt lat="48.8622" lon="1.70616">
        <ele>99</ele>
        <time>2018-10-21T08:41:58Z</time>
      </trkpt>
      <trkpt lat="48.86213" lon="1.70625">
        <ele>99</ele>
        <time>2018-10-21T08:42:04Z</time>
      </trkpt>
      <trkpt lat="48.86206" lon="1.70635">
        <ele>99</ele>
        <time>2018-10-21T08:42:10Z</time>
      </trkpt>
      <trkpt lat="48.86199" lon="1.70644">
        <ele>99</ele>
        <time>2018-10-21T08:42:17Z</time>
      </trkpt>
      <trkpt lat="48.86191" lon="1.70654">
        <ele>99</ele>
        <time>2018-10-21T08:42:23Z</time>
      </trkpt>
      <trkpt lat="48.86183" lon="1.70663">
        <ele>99</ele>
        <time>2018-10-21T08:42:30Z</time>
      </trkpt>
      <trkpt lat="48.86174" lon="1.70672">
        <ele>99</ele>
        <time>2018-10-21T08:42:37Z</time>
      </trkpt>
      <trkpt lat="48.86168" lon="1.70683">
        <ele>99</ele>
        <time>2018-10-21T08:42:44Z</time>
      </trkpt>
      <trkpt lat="48.86161" lon="1.70692">
        <ele>99</ele>
        <time>2018-10-21T08:42:51Z</time>
      </trkpt>
      <trkpt lat="48.86155" lon="1.70703">
        <ele>99</ele>
        <time>2018-10-21T08:42:58Z</time>
      </trkpt>
      <trkpt lat="48.86148" lon="1.70714">
        <ele>99</ele>
        <time>2018-10-21T08:43:05Z</time>
      </trkpt>
      <trkpt lat="48.86141" lon="1.70724">
        <ele>99</ele>
        <time>2018-10-21T08:43:11Z</time>
      </trkpt>
      <trkpt lat="48.86134" lon="1.70735">
        <ele>99</ele>
        <time>2018-10-21T08:43:19Z</time>
      </trkpt>
      <trkpt lat="48.86127" lon="1.70745">
        <ele>99</ele>
        <time>2018-10-21T08:43:26Z</time>
      </trkpt>
      <trkpt lat="48.8612" lon="1.70755">
        <ele>99</ele>
        <time>2018-10-21T08:43:32Z</time>
      </trkpt>
      <trkpt lat="48.86113" lon="1.70765">
        <ele>99</ele>
        <time>2018-10-21T08:43:38Z</time>
      </trkpt>
      <trkpt lat="48.86107" lon="1.70774">
        <ele>100</ele>
        <time>2018-10-21T08:43:45Z</time>
      </trkpt>
      <trkpt lat="48.861" lon="1.70785">
        <ele>99</ele>
        <time>2018-10-21T08:43:52Z</time>
      </trkpt>
      <trkpt lat="48.86092" lon="1.70796">
        <ele>99</ele>
        <time>2018-10-21T08:43:59Z</time>
      </trkpt>
      <trkpt lat="48.86086" lon="1.70807">
        <ele>99</ele>
        <time>2018-10-21T08:44:06Z</time>
      </trkpt>
      <trkpt lat="48.86079" lon="1.70818">
        <ele>98</ele>
        <time>2018-10-21T08:44:13Z</time>
      </trkpt>
      <trkpt lat="48.86072" lon="1.70828">
        <ele>98</ele>
        <time>2018-10-21T08:44:20Z</time>
      </trkpt>
      <trkpt lat="48.86065" lon="1.70838">
        <ele>98</ele>
        <time>2018-10-21T08:44:27Z</time>
      </trkpt>
      <trkpt lat="48.86058" lon="1.70847">
        <ele>97</ele>
        <time>2018-10-21T08:44:36Z</time>
      </trkpt>
      <trkpt lat="48.8605" lon="1.70856">
        <ele>97</ele>
        <time>2018-10-21T08:44:45Z</time>
      </trkpt>
      <trkpt lat="48.86041" lon="1.70862">
        <ele>96</ele>
        <time>2018-10-21T08:44:53Z</time>
      </trkpt>
      <trkpt lat="48.86032" lon="1.70869">
        <ele>95</ele>
        <time>2018-10-21T08:45:01Z</time>
      </trkpt>
      <trkpt lat="48.86024" lon="1.70878">
        <ele>94</ele>
        <time>2018-10-21T08:45:09Z</time>
      </trkpt>
      <trkpt lat="48.86015" lon="1.70883">
        <ele>93</ele>
        <time>2018-10-21T08:45:15Z</time>
      </trkpt>
      <trkpt lat="48.86007" lon="1.70889">
        <ele>92</ele>
        <time>2018-10-21T08:45:21Z</time>
      </trkpt>
      <trkpt lat="48.85999" lon="1.70895">
        <ele>91</ele>
        <time>2018-10-21T08:45:28Z</time>
      </trkpt>
      <trkpt lat="48.8599" lon="1.70904">
        <ele>91</ele>
        <time>2018-10-21T08:45:35Z</time>
      </trkpt>
      <trkpt lat="48.85982" lon="1.7091">
        <ele>91</ele>
        <time>2018-10-21T08:45:40Z</time>
      </trkpt>
      <trkpt lat="48.85974" lon="1.70917">
        <ele>91</ele>
        <time>2018-10-21T08:45:45Z</time>
      </trkpt>
      <trkpt lat="48.85965" lon="1.70923">
        <ele>92</ele>
        <time>2018-10-21T08:45:53Z</time>
      </trkpt>
      <trkpt lat="48.85959" lon="1.70936">
        <ele>94</ele>
        <time>2018-10-21T08:46:56Z</time>
      </trkpt>
      <trkpt lat="48.85952" lon="1.70943">
        <ele>95</ele>
        <time>2018-10-21T08:47:05Z</time>
      </trkpt>
      <trkpt lat="48.85944" lon="1.70955">
        <ele>95</ele>
        <time>2018-10-21T08:47:12Z</time>
      </trkpt>
      <trkpt lat="48.85938" lon="1.70965">
        <ele>96</ele>
        <time>2018-10-21T08:47:19Z</time>
      </trkpt>
      <trkpt lat="48.85932" lon="1.70975">
        <ele>97</ele>
        <time>2018-10-21T08:47:28Z</time>
      </trkpt>
      <trkpt lat="48.85924" lon="1.70983">
        <ele>97</ele>
        <time>2018-10-21T08:47:36Z</time>
      </trkpt>
      <trkpt lat="48.85919" lon="1.70995">
        <ele>96</ele>
        <time>2018-10-21T08:47:43Z</time>
      </trkpt>
      <trkpt lat="48.85913" lon="1.71007">
        <ele>95</ele>
        <time>2018-10-21T08:47:53Z</time>
      </trkpt>
      <trkpt lat="48.85906" lon="1.71014">
        <ele>95</ele>
        <time>2018-10-21T08:48:01Z</time>
      </trkpt>
      <trkpt lat="48.85896" lon="1.71019">
        <ele>94</ele>
        <time>2018-10-21T08:48:12Z</time>
      </trkpt>
      <trkpt lat="48.85888" lon="1.71025">
        <ele>94</ele>
        <time>2018-10-21T08:48:23Z</time>
      </trkpt>
      <trkpt lat="48.85882" lon="1.71035">
        <ele>94</ele>
        <time>2018-10-21T08:48:30Z</time>
      </trkpt>
      <trkpt lat="48.85874" lon="1.71046">
        <ele>93</ele>
        <time>2018-10-21T08:48:37Z</time>
      </trkpt>
      <trkpt lat="48.85867" lon="1.71055">
        <ele>93</ele>
        <time>2018-10-21T08:48:44Z</time>
      </trkpt>
      <trkpt lat="48.85861" lon="1.71065">
        <ele>93</ele>
        <time>2018-10-21T08:48:50Z</time>
      </trkpt>
      <trkpt lat="48.85853" lon="1.71075">
        <ele>93</ele>
        <time>2018-10-21T08:48:57Z</time>
      </trkpt>
      <trkpt lat="48.85846" lon="1.71086">
        <ele>93</ele>
        <time>2018-10-21T08:49:05Z</time>
      </trkpt>
      <trkpt lat="48.85839" lon="1.71096">
        <ele>93</ele>
        <time>2018-10-21T08:49:12Z</time>
      </trkpt>
      <trkpt lat="48.85832" lon="1.71105">
        <ele>93</ele>
        <time>2018-10-21T08:49:18Z</time>
      </trkpt>
      <trkpt lat="48.85826" lon="1.71115">
        <ele>93</ele>
        <time>2018-10-21T08:49:24Z</time>
      </trkpt>
      <trkpt lat="48.85819" lon="1.71125">
        <ele>93</ele>
        <time>2018-10-21T08:49:31Z</time>
      </trkpt>
      <trkpt lat="48.85813" lon="1.71137">
        <ele>94</ele>
        <time>2018-10-21T08:49:39Z</time>
      </trkpt>
      <trkpt lat="48.85808" lon="1.71149">
        <ele>94</ele>
        <time>2018-10-21T08:49:49Z</time>
      </trkpt>
      <trkpt lat="48.85801" lon="1.71161">
        <ele>94</ele>
        <time>2018-10-21T08:49:57Z</time>
      </trkpt>
      <trkpt lat="48.85793" lon="1.71167">
        <ele>94</ele>
        <time>2018-10-21T08:50:04Z</time>
      </trkpt>
      <trkpt lat="48.85783" lon="1.7117">
        <ele>94</ele>
        <time>2018-10-21T08:50:11Z</time>
      </trkpt>
      <trkpt lat="48.85775" lon="1.71176">
        <ele>94</ele>
        <time>2018-10-21T08:50:18Z</time>
      </trkpt>
      <trkpt lat="48.85765" lon="1.71181">
        <ele>94</ele>
        <time>2018-10-21T08:50:25Z</time>
      </trkpt>
      <trkpt lat="48.85756" lon="1.71186">
        <ele>93</ele>
        <time>2018-10-21T08:50:32Z</time>
      </trkpt>
      <trkpt lat="48.85747" lon="1.7119">
        <ele>93</ele>
        <time>2018-10-21T08:50:39Z</time>
      </trkpt>
      <trkpt lat="48.85738" lon="1.71194">
        <ele>92</ele>
        <time>2018-10-21T08:50:46Z</time>
      </trkpt>
      <trkpt lat="48.85728" lon="1.71198">
        <ele>92</ele>
        <time>2018-10-21T08:50:53Z</time>
      </trkpt>
      <trkpt lat="48.85718" lon="1.71202">
        <ele>92</ele>
        <time>2018-10-21T08:51:01Z</time>
      </trkpt>
      <trkpt lat="48.85709" lon="1.71206">
        <ele>92</ele>
        <time>2018-10-21T08:51:07Z</time>
      </trkpt>
      <trkpt lat="48.85699" lon="1.7121">
        <ele>92</ele>
        <time>2018-10-21T08:51:14Z</time>
      </trkpt>
      <trkpt lat="48.85689" lon="1.71215">
        <ele>92</ele>
        <time>2018-10-21T08:51:21Z</time>
      </trkpt>
      <trkpt lat="48.85679" lon="1.7122">
        <ele>92</ele>
        <time>2018-10-21T08:51:28Z</time>
      </trkpt>
      <trkpt lat="48.8567" lon="1.71223">
        <ele>91</ele>
        <time>2018-10-21T08:51:35Z</time>
      </trkpt>
      <trkpt lat="48.8566" lon="1.71227">
        <ele>91</ele>
        <time>2018-10-21T08:51:41Z</time>
      </trkpt>
      <trkpt lat="48.8565" lon="1.7123">
        <ele>91</ele>
        <time>2018-10-21T08:51:49Z</time>
      </trkpt>
      <trkpt lat="48.85641" lon="1.71235">
        <ele>91</ele>
        <time>2018-10-21T08:51:55Z</time>
      </trkpt>
      <trkpt lat="48.85632" lon="1.71241">
        <ele>91</ele>
        <time>2018-10-21T08:52:01Z</time>
      </trkpt>
      <trkpt lat="48.85624" lon="1.71249">
        <ele>91</ele>
        <time>2018-10-21T08:52:08Z</time>
      </trkpt>
      <trkpt lat="48.85616" lon="1.71256">
        <ele>91</ele>
        <time>2018-10-21T08:52:15Z</time>
      </trkpt>
      <trkpt lat="48.85608" lon="1.71265">
        <ele>92</ele>
        <time>2018-10-21T08:52:24Z</time>
      </trkpt>
      <trkpt lat="48.85601" lon="1.71275">
        <ele>92</ele>
        <time>2018-10-21T08:52:30Z</time>
      </trkpt>
      <trkpt lat="48.85593" lon="1.71285">
        <ele>92</ele>
        <time>2018-10-21T08:52:36Z</time>
      </trkpt>
      <trkpt lat="48.85586" lon="1.71295">
        <ele>92</ele>
        <time>2018-10-21T08:52:43Z</time>
      </trkpt>
      <trkpt lat="48.85578" lon="1.71305">
        <ele>92</ele>
        <time>2018-10-21T08:52:50Z</time>
      </trkpt>
      <trkpt lat="48.85571" lon="1.71315">
        <ele>91</ele>
        <time>2018-10-21T08:52:58Z</time>
      </trkpt>
      <trkpt lat="48.85563" lon="1.71324">
        <ele>91</ele>
        <time>2018-10-21T08:53:06Z</time>
      </trkpt>
      <trkpt lat="48.85555" lon="1.71333">
        <ele>90</ele>
        <time>2018-10-21T08:53:14Z</time>
      </trkpt>
      <trkpt lat="48.85546" lon="1.71342">
        <ele>90</ele>
        <time>2018-10-21T08:53:21Z</time>
      </trkpt>
      <trkpt lat="48.85538" lon="1.71351">
        <ele>90</ele>
        <time>2018-10-21T08:53:27Z</time>
      </trkpt>
      <trkpt lat="48.85531" lon="1.71361">
        <ele>90</ele>
        <time>2018-10-21T08:53:33Z</time>
      </trkpt>
      <trkpt lat="48.85523" lon="1.7137">
        <ele>90</ele>
        <time>2018-10-21T08:53:40Z</time>
      </trkpt>
      <trkpt lat="48.85515" lon="1.71379">
        <ele>90</ele>
        <time>2018-10-21T08:53:46Z</time>
      </trkpt>
      <trkpt lat="48.85506" lon="1.71388">
        <ele>90</ele>
        <time>2018-10-21T08:53:53Z</time>
      </trkpt>
      <trkpt lat="48.85499" lon="1.71397">
        <ele>90</ele>
        <time>2018-10-21T08:54:00Z</time>
      </trkpt>
      <trkpt lat="48.85492" lon="1.71406">
        <ele>90</ele>
        <time>2018-10-21T08:54:07Z</time>
      </trkpt>
      <trkpt lat="48.85484" lon="1.71414">
        <ele>90</ele>
        <time>2018-10-21T08:54:14Z</time>
      </trkpt>
      <trkpt lat="48.85476" lon="1.71422">
        <ele>90</ele>
        <time>2018-10-21T08:54:20Z</time>
      </trkpt>
      <trkpt lat="48.85468" lon="1.71432">
        <ele>90</ele>
        <time>2018-10-21T08:54:27Z</time>
      </trkpt>
      <trkpt lat="48.85461" lon="1.71443">
        <ele>90</ele>
        <time>2018-10-21T08:54:33Z</time>
      </trkpt>
      <trkpt lat="48.85455" lon="1.71455">
        <ele>90</ele>
        <time>2018-10-21T08:54:40Z</time>
      </trkpt>
      <trkpt lat="48.85449" lon="1.71466">
        <ele>90</ele>
        <time>2018-10-21T08:54:47Z</time>
      </trkpt>
      <trkpt lat="48.85443" lon="1.71479">
        <ele>90</ele>
        <time>2018-10-21T08:54:54Z</time>
      </trkpt>
      <trkpt lat="48.85437" lon="1.71491">
        <ele>89</ele>
        <time>2018-10-21T08:55:01Z</time>
      </trkpt>
      <trkpt lat="48.85431" lon="1.71502">
        <ele>89</ele>
        <time>2018-10-21T08:55:08Z</time>
      </trkpt>
      <trkpt lat="48.85425" lon="1.71513">
        <ele>89</ele>
        <time>2018-10-21T08:55:26Z</time>
      </trkpt>
      <trkpt lat="48.85419" lon="1.71525">
        <ele>89</ele>
        <time>2018-10-21T08:55:33Z</time>
      </trkpt>
      <trkpt lat="48.85413" lon="1.71537">
        <ele>88</ele>
        <time>2018-10-21T08:55:40Z</time>
      </trkpt>
      <trkpt lat="48.85407" lon="1.71549">
        <ele>88</ele>
        <time>2018-10-21T08:55:47Z</time>
      </trkpt>
      <trkpt lat="48.85401" lon="1.71562">
        <ele>88</ele>
        <time>2018-10-21T08:55:54Z</time>
      </trkpt>
      <trkpt lat="48.85397" lon="1.71576">
        <ele>88</ele>
        <time>2018-10-21T08:56:01Z</time>
      </trkpt>
      <trkpt lat="48.85391" lon="1.71588">
        <ele>88</ele>
        <time>2018-10-21T08:56:08Z</time>
      </trkpt>
      <trkpt lat="48.85386" lon="1.71601">
        <ele>89</ele>
        <time>2018-10-21T08:56:15Z</time>
      </trkpt>
      <trkpt lat="48.85381" lon="1.71614">
        <ele>89</ele>
        <time>2018-10-21T08:56:22Z</time>
      </trkpt>
      <trkpt lat="48.85376" lon="1.71626">
        <ele>89</ele>
        <time>2018-10-21T08:56:29Z</time>
      </trkpt>
      <trkpt lat="48.85371" lon="1.71639">
        <ele>90</ele>
        <time>2018-10-21T08:56:36Z</time>
      </trkpt>
      <trkpt lat="48.85366" lon="1.71651">
        <ele>90</ele>
        <time>2018-10-21T08:56:43Z</time>
      </trkpt>
      <trkpt lat="48.85361" lon="1.71664">
        <ele>91</ele>
        <time>2018-10-21T08:56:50Z</time>
      </trkpt>
      <trkpt lat="48.85356" lon="1.71677">
        <ele>91</ele>
        <time>2018-10-21T08:56:57Z</time>
      </trkpt>
      <trkpt lat="48.85352" lon="1.71689">
        <ele>91</ele>
        <time>2018-10-21T08:57:03Z</time>
      </trkpt>
      <trkpt lat="48.85346" lon="1.71701">
        <ele>91</ele>
        <time>2018-10-21T08:57:10Z</time>
      </trkpt>
      <trkpt lat="48.85341" lon="1.71714">
        <ele>90</ele>
        <time>2018-10-21T08:57:17Z</time>
      </trkpt>
      <trkpt lat="48.85336" lon="1.71727">
        <ele>90</ele>
        <time>2018-10-21T08:57:24Z</time>
      </trkpt>
      <trkpt lat="48.85331" lon="1.71739">
        <ele>90</ele>
        <time>2018-10-21T08:57:31Z</time>
      </trkpt>
      <trkpt lat="48.85326" lon="1.71751">
        <ele>89</ele>
        <time>2018-10-21T08:57:37Z</time>
      </trkpt>
      <trkpt lat="48.85321" lon="1.71763">
        <ele>89</ele>
        <time>2018-10-21T08:57:43Z</time>
      </trkpt>
      <trkpt lat="48.85315" lon="1.71775">
        <ele>89</ele>
        <time>2018-10-21T08:57:50Z</time>
      </trkpt>
      <trkpt lat="48.85309" lon="1.71785">
        <ele>89</ele>
        <time>2018-10-21T08:57:56Z</time>
      </trkpt>
      <trkpt lat="48.85303" lon="1.71797">
        <ele>89</ele>
        <time>2018-10-21T08:58:03Z</time>
      </trkpt>
      <trkpt lat="48.85296" lon="1.71809">
        <ele>89</ele>
        <time>2018-10-21T08:58:10Z</time>
      </trkpt>
      <trkpt lat="48.85291" lon="1.71822">
        <ele>89</ele>
        <time>2018-10-21T08:58:17Z</time>
      </trkpt>
      <trkpt lat="48.85284" lon="1.71833">
        <ele>89</ele>
        <time>2018-10-21T08:58:23Z</time>
      </trkpt>
      <trkpt lat="48.85277" lon="1.71845">
        <ele>89</ele>
        <time>2018-10-21T08:58:30Z</time>
      </trkpt>
      <trkpt lat="48.85271" lon="1.71856">
        <ele>88</ele>
        <time>2018-10-21T08:58:37Z</time>
      </trkpt>
      <trkpt lat="48.85264" lon="1.71866">
        <ele>88</ele>
        <time>2018-10-21T08:58:43Z</time>
      </trkpt>
      <trkpt lat="48.85259" lon="1.71879">
        <ele>88</ele>
        <time>2018-10-21T08:58:50Z</time>
      </trkpt>
      <trkpt lat="48.85255" lon="1.71891">
        <ele>89</ele>
        <time>2018-10-21T08:58:56Z</time>
      </trkpt>
      <trkpt lat="48.85249" lon="1.71901">
        <ele>89</ele>
        <time>2018-10-21T08:59:02Z</time>
      </trkpt>
      <trkpt lat="48.85242" lon="1.71913">
        <ele>89</ele>
        <time>2018-10-21T08:59:09Z</time>
      </trkpt>
      <trkpt lat="48.85237" lon="1.71926">
        <ele>89</ele>
        <time>2018-10-21T08:59:16Z</time>
      </trkpt>
      <trkpt lat="48.85231" lon="1.71937">
        <ele>89</ele>
        <time>2018-10-21T08:59:23Z</time>
      </trkpt>
      <trkpt lat="48.85226" lon="1.71949">
        <ele>90</ele>
        <time>2018-10-21T08:59:30Z</time>
      </trkpt>
      <trkpt lat="48.85222" lon="1.71961">
        <ele>90</ele>
        <time>2018-10-21T08:59:37Z</time>
      </trkpt>
      <trkpt lat="48.85217" lon="1.71975">
        <ele>90</ele>
        <time>2018-10-21T08:59:44Z</time>
      </trkpt>
      <trkpt lat="48.85214" lon="1.71988">
        <ele>90</ele>
        <time>2018-10-21T08:59:51Z</time>
      </trkpt>
      <trkpt lat="48.85209" lon="1.72001">
        <ele>90</ele>
        <time>2018-10-21T08:59:57Z</time>
      </trkpt>
      <trkpt lat="48.85205" lon="1.72014">
        <ele>89</ele>
        <time>2018-10-21T09:00:03Z</time>
      </trkpt>
      <trkpt lat="48.85201" lon="1.72027">
        <ele>88</ele>
        <time>2018-10-21T09:00:10Z</time>
      </trkpt>
      <trkpt lat="48.85197" lon="1.72041">
        <ele>88</ele>
        <time>2018-10-21T09:00:17Z</time>
      </trkpt>
      <trkpt lat="48.85194" lon="1.72054">
        <ele>87</ele>
        <time>2018-10-21T09:00:23Z</time>
      </trkpt>
      <trkpt lat="48.8519" lon="1.72068">
        <ele>87</ele>
        <time>2018-10-21T09:00:30Z</time>
      </trkpt>
      <trkpt lat="48.85186" lon="1.72081">
        <ele>87</ele>
        <time>2018-10-21T09:00:35Z</time>
      </trkpt>
      <trkpt lat="48.85183" lon="1.72094">
        <ele>87</ele>
        <time>2018-10-21T09:00:43Z</time>
      </trkpt>
      <trkpt lat="48.85188" lon="1.72107">
        <ele>89</ele>
        <time>2018-10-21T09:03:16Z</time>
      </trkpt>
      <trkpt lat="48.85195" lon="1.72118">
        <ele>89</ele>
        <time>2018-10-21T09:03:24Z</time>
      </trkpt>
      <trkpt lat="48.85202" lon="1.72128">
        <ele>90</ele>
        <time>2018-10-21T09:03:31Z</time>
      </trkpt>
      <trkpt lat="48.85208" lon="1.72138">
        <ele>90</ele>
        <time>2018-10-21T09:03:38Z</time>
      </trkpt>
      <trkpt lat="48.85216" lon="1.72146">
        <ele>91</ele>
        <time>2018-10-21T09:03:45Z</time>
      </trkpt>
      <trkpt lat="48.85224" lon="1.72155">
        <ele>91</ele>
        <time>2018-10-21T09:03:52Z</time>
      </trkpt>
      <trkpt lat="48.85231" lon="1.72164">
        <ele>92</ele>
        <time>2018-10-21T09:04:00Z</time>
      </trkpt>
      <trkpt lat="48.85238" lon="1.72174">
        <ele>92</ele>
        <time>2018-10-21T09:04:06Z</time>
      </trkpt>
      <trkpt lat="48.85246" lon="1.72185">
        <ele>92</ele>
        <time>2018-10-21T09:04:13Z</time>
      </trkpt>
      <trkpt lat="48.85253" lon="1.72195">
        <ele>92</ele>
        <time>2018-10-21T09:04:20Z</time>
      </trkpt>
      <trkpt lat="48.8526" lon="1.72205">
        <ele>92</ele>
        <time>2018-10-21T09:04:27Z</time>
      </trkpt>
      <trkpt lat="48.85266" lon="1.72215">
        <ele>92</ele>
        <time>2018-10-21T09:04:34Z</time>
      </trkpt>
      <trkpt lat="48.85273" lon="1.72224">
        <ele>92</ele>
        <time>2018-10-21T09:04:40Z</time>
      </trkpt>
      <trkpt lat="48.85281" lon="1.72234">
        <ele>93</ele>
        <time>2018-10-21T09:04:47Z</time>
      </trkpt>
      <trkpt lat="48.85288" lon="1.72244">
        <ele>93</ele>
        <time>2018-10-21T09:04:54Z</time>
      </trkpt>
      <trkpt lat="48.85294" lon="1.72253">
        <ele>94</ele>
        <time>2018-10-21T09:05:00Z</time>
      </trkpt>
      <trkpt lat="48.85303" lon="1.72263">
        <ele>95</ele>
        <time>2018-10-21T09:05:07Z</time>
      </trkpt>
      <trkpt lat="48.85311" lon="1.72273">
        <ele>95</ele>
        <time>2018-10-21T09:05:14Z</time>
      </trkpt>
      <trkpt lat="48.85318" lon="1.72283">
        <ele>96</ele>
        <time>2018-10-21T09:05:21Z</time>
      </trkpt>
      <trkpt lat="48.85326" lon="1.72294">
        <ele>96</ele>
        <time>2018-10-21T09:05:28Z</time>
      </trkpt>
      <trkpt lat="48.85333" lon="1.72303">
        <ele>96</ele>
        <time>2018-10-21T09:05:34Z</time>
      </trkpt>
      <trkpt lat="48.85341" lon="1.72312">
        <ele>96</ele>
        <time>2018-10-21T09:05:41Z</time>
      </trkpt>
      <trkpt lat="48.85348" lon="1.72322">
        <ele>96</ele>
        <time>2018-10-21T09:05:48Z</time>
      </trkpt>
      <trkpt lat="48.85353" lon="1.72334">
        <ele>96</ele>
        <time>2018-10-21T09:05:55Z</time>
      </trkpt>
      <trkpt lat="48.8536" lon="1.72344">
        <ele>96</ele>
        <time>2018-10-21T09:06:02Z</time>
      </trkpt>
      <trkpt lat="48.85367" lon="1.72352">
        <ele>96</ele>
        <time>2018-10-21T09:06:09Z</time>
      </trkpt>
      <trkpt lat="48.85368" lon="1.72368">
        <ele>96</ele>
        <time>2018-10-21T09:06:18Z</time>
      </trkpt>
      <trkpt lat="48.85367" lon="1.72383">
        <ele>97</ele>
        <time>2018-10-21T09:06:26Z</time>
      </trkpt>
      <trkpt lat="48.85366" lon="1.72398">
        <ele>97</ele>
        <time>2018-10-21T09:06:33Z</time>
      </trkpt>
      <trkpt lat="48.85365" lon="1.72411">
        <ele>98</ele>
        <time>2018-10-21T09:06:38Z</time>
      </trkpt>
      <trkpt lat="48.85366" lon="1.72426">
        <ele>98</ele>
        <time>2018-10-21T09:06:45Z</time>
      </trkpt>
      <trkpt lat="48.85367" lon="1.72442">
        <ele>98</ele>
        <time>2018-10-21T09:06:53Z</time>
      </trkpt>
      <trkpt lat="48.85366" lon="1.72457">
        <ele>98</ele>
        <time>2018-10-21T09:07:00Z</time>
      </trkpt>
      <trkpt lat="48.85364" lon="1.7247">
        <ele>99</ele>
        <time>2018-10-21T09:07:07Z</time>
      </trkpt>
      <trkpt lat="48.85363" lon="1.72485">
        <ele>100</ele>
        <time>2018-10-21T09:07:14Z</time>
      </trkpt>
      <trkpt lat="48.85361" lon="1.72499">
        <ele>100</ele>
        <time>2018-10-21T09:07:20Z</time>
      </trkpt>
      <trkpt lat="48.85359" lon="1.72515">
        <ele>101</ele>
        <time>2018-10-21T09:07:27Z</time>
      </trkpt>
      <trkpt lat="48.85359" lon="1.7253">
        <ele>103</ele>
        <time>2018-10-21T09:07:34Z</time>
      </trkpt>
      <trkpt lat="48.85363" lon="1.72544">
        <ele>103</ele>
        <time>2018-10-21T09:07:41Z</time>
      </trkpt>
      <trkpt lat="48.85361" lon="1.72558">
        <ele>103</ele>
        <time>2018-10-21T09:07:48Z</time>
      </trkpt>
      <trkpt lat="48.85361" lon="1.72573">
        <ele>103</ele>
        <time>2018-10-21T09:07:56Z</time>
      </trkpt>
      <trkpt lat="48.85362" lon="1.72587">
        <ele>103</ele>
        <time>2018-10-21T09:08:02Z</time>
      </trkpt>
      <trkpt lat="48.85363" lon="1.72601">
        <ele>102</ele>
        <time>2018-10-21T09:08:10Z</time>
      </trkpt>
      <trkpt lat="48.85367" lon="1.72614">
        <ele>100</ele>
        <time>2018-10-21T09:08:18Z</time>
      </trkpt>
      <trkpt lat="48.85369" lon="1.72628">
        <ele>99</ele>
        <time>2018-10-21T09:08:24Z</time>
      </trkpt>
      <trkpt lat="48.8537" lon="1.72644">
        <ele>99</ele>
        <time>2018-10-21T09:08:30Z</time>
      </trkpt>
      <trkpt lat="48.85372" lon="1.72658">
        <ele>99</ele>
        <time>2018-10-21T09:08:37Z</time>
      </trkpt>
      <trkpt lat="48.85376" lon="1.72671">
        <ele>99</ele>
        <time>2018-10-21T09:08:44Z</time>
      </trkpt>
      <trkpt lat="48.85377" lon="1.72685">
        <ele>98</ele>
        <time>2018-10-21T09:08:50Z</time>
      </trkpt>
      <trkpt lat="48.85379" lon="1.72699">
        <ele>99</ele>
        <time>2018-10-21T09:08:56Z</time>
      </trkpt>
      <trkpt lat="48.85382" lon="1.72713">
        <ele>98</ele>
        <time>2018-10-21T09:09:03Z</time>
      </trkpt>
      <trkpt lat="48.85385" lon="1.72728">
        <ele>99</ele>
        <time>2018-10-21T09:09:10Z</time>
      </trkpt>
      <trkpt lat="48.85388" lon="1.72742">
        <ele>99</ele>
        <time>2018-10-21T09:09:16Z</time>
      </trkpt>
      <trkpt lat="48.8539" lon="1.72756">
        <ele>99</ele>
        <time>2018-10-21T09:09:23Z</time>
      </trkpt>
      <trkpt lat="48.85391" lon="1.7277">
        <ele>99</ele>
        <time>2018-10-21T09:09:29Z</time>
      </trkpt>
      <trkpt lat="48.85393" lon="1.72784">
        <ele>99</ele>
        <time>2018-10-21T09:09:36Z</time>
      </trkpt>
      <trkpt lat="48.85394" lon="1.72798">
        <ele>99</ele>
        <time>2018-10-21T09:09:42Z</time>
      </trkpt>
      <trkpt lat="48.85394" lon="1.72813">
        <ele>99</ele>
        <time>2018-10-21T09:09:49Z</time>
      </trkpt>
      <trkpt lat="48.85391" lon="1.72827">
        <ele>99</ele>
        <time>2018-10-21T09:09:56Z</time>
      </trkpt>
      <trkpt lat="48.85388" lon="1.72842">
        <ele>99</ele>
        <time>2018-10-21T09:10:03Z</time>
      </trkpt>
      <trkpt lat="48.85387" lon="1.72857">
        <ele>100</ele>
        <time>2018-10-21T09:10:10Z</time>
      </trkpt>
      <trkpt lat="48.85385" lon="1.72871">
        <ele>100</ele>
        <time>2018-10-21T09:10:17Z</time>
      </trkpt>
      <trkpt lat="48.85382" lon="1.72886">
        <ele>100</ele>
        <time>2018-10-21T09:10:24Z</time>
      </trkpt>
      <trkpt lat="48.85379" lon="1.72901">
        <ele>101</ele>
        <time>2018-10-21T09:10:31Z</time>
      </trkpt>
      <trkpt lat="48.85377" lon="1.72916">
        <ele>101</ele>
        <time>2018-10-21T09:10:38Z</time>
      </trkpt>
      <trkpt lat="48.85374" lon="1.7293">
        <ele>101</ele>
        <time>2018-10-21T09:10:45Z</time>
      </trkpt>
      <trkpt lat="48.85371" lon="1.72945">
        <ele>101</ele>
        <time>2018-10-21T09:10:52Z</time>
      </trkpt>
      <trkpt lat="48.8537" lon="1.72959">
        <ele>101</ele>
        <time>2018-10-21T09:10:58Z</time>
      </trkpt>
      <trkpt lat="48.85368" lon="1.72973">
        <ele>101</ele>
        <time>2018-10-21T09:11:05Z</time>
      </trkpt>
      <trkpt lat="48.85365" lon="1.72987">
        <ele>102</ele>
        <time>2018-10-21T09:11:12Z</time>
      </trkpt>
      <trkpt lat="48.85362" lon="1.73003">
        <ele>102</ele>
        <time>2018-10-21T09:11:19Z</time>
      </trkpt>
      <trkpt lat="48.85359" lon="1.73016">
        <ele>102</ele>
        <time>2018-10-21T09:11:26Z</time>
      </trkpt>
      <trkpt lat="48.85357" lon="1.7303">
        <ele>102</ele>
        <time>2018-10-21T09:11:33Z</time>
      </trkpt>
      <trkpt lat="48.85355" lon="1.73045">
        <ele>103</ele>
        <time>2018-10-21T09:11:40Z</time>
      </trkpt>
      <trkpt lat="48.85353" lon="1.73058">
        <ele>103</ele>
        <time>2018-10-21T09:11:47Z</time>
      </trkpt>
      <trkpt lat="48.8535" lon="1.73073">
        <ele>103</ele>
        <time>2018-10-21T09:11:55Z</time>
      </trkpt>
      <trkpt lat="48.85347" lon="1.73089">
        <ele>103</ele>
        <time>2018-10-21T09:12:02Z</time>
      </trkpt>
      <trkpt lat="48.85343" lon="1.73102">
        <ele>104</ele>
        <time>2018-10-21T09:12:09Z</time>
      </trkpt>
      <trkpt lat="48.8534" lon="1.73115">
        <ele>104</ele>
        <time>2018-10-21T09:12:16Z</time>
      </trkpt>
      <trkpt lat="48.85337" lon="1.7313">
        <ele>104</ele>
        <time>2018-10-21T09:12:23Z</time>
      </trkpt>
      <trkpt lat="48.85335" lon="1.73144">
        <ele>105</ele>
        <time>2018-10-21T09:12:30Z</time>
      </trkpt>
      <trkpt lat="48.85332" lon="1.73158">
        <ele>105</ele>
        <time>2018-10-21T09:12:38Z</time>
      </trkpt>
      <trkpt lat="48.85331" lon="1.73172">
        <ele>106</ele>
        <time>2018-10-21T09:12:46Z</time>
      </trkpt>
      <trkpt lat="48.85328" lon="1.73186">
        <ele>106</ele>
        <time>2018-10-21T09:12:54Z</time>
      </trkpt>
      <trkpt lat="48.85326" lon="1.732">
        <ele>106</ele>
        <time>2018-10-21T09:13:00Z</time>
      </trkpt>
      <trkpt lat="48.85323" lon="1.73213">
        <ele>106</ele>
        <time>2018-10-21T09:13:07Z</time>
      </trkpt>
      <trkpt lat="48.8532" lon="1.73228">
        <ele>107</ele>
        <time>2018-10-21T09:13:15Z</time>
      </trkpt>
      <trkpt lat="48.85318" lon="1.73242">
        <ele>107</ele>
        <time>2018-10-21T09:13:22Z</time>
      </trkpt>
      <trkpt lat="48.85315" lon="1.73257">
        <ele>107</ele>
        <time>2018-10-21T09:13:29Z</time>
      </trkpt>
      <trkpt lat="48.85312" lon="1.73271">
        <ele>107</ele>
        <time>2018-10-21T09:13:36Z</time>
      </trkpt>
      <trkpt lat="48.85309" lon="1.73285">
        <ele>108</ele>
        <time>2018-10-21T09:13:43Z</time>
      </trkpt>
      <trkpt lat="48.85306" lon="1.73299">
        <ele>108</ele>
        <time>2018-10-21T09:13:51Z</time>
      </trkpt>
      <trkpt lat="48.85304" lon="1.73313">
        <ele>110</ele>
        <time>2018-10-21T09:21:20Z</time>
      </trkpt>
      <trkpt lat="48.853" lon="1.73327">
        <ele>110</ele>
        <time>2018-10-21T09:21:30Z</time>
      </trkpt>
      <trkpt lat="48.85297" lon="1.73341">
        <ele>110</ele>
        <time>2018-10-21T09:21:40Z</time>
      </trkpt>
      <trkpt lat="48.85293" lon="1.73355">
        <ele>111</ele>
        <time>2018-10-21T09:21:47Z</time>
      </trkpt>
      <trkpt lat="48.8529" lon="1.73369">
        <ele>111</ele>
        <time>2018-10-21T09:21:54Z</time>
      </trkpt>
      <trkpt lat="48.85286" lon="1.73384">
        <ele>111</ele>
        <time>2018-10-21T09:22:02Z</time>
      </trkpt>
      <trkpt lat="48.85284" lon="1.73399">
        <ele>112</ele>
        <time>2018-10-21T09:22:10Z</time>
      </trkpt>
      <trkpt lat="48.85282" lon="1.73412">
        <ele>112</ele>
        <time>2018-10-21T09:22:17Z</time>
      </trkpt>
      <trkpt lat="48.85281" lon="1.73427">
        <ele>112</ele>
        <time>2018-10-21T09:22:24Z</time>
      </trkpt>
      <trkpt lat="48.85279" lon="1.73441">
        <ele>112</ele>
        <time>2018-10-21T09:22:29Z</time>
      </trkpt>
      <trkpt lat="48.85275" lon="1.73454">
        <ele>112</ele>
        <time>2018-10-21T09:22:36Z</time>
      </trkpt>
      <trkpt lat="48.85268" lon="1.73464">
        <ele>112</ele>
        <time>2018-10-21T09:22:44Z</time>
      </trkpt>
      <trkpt lat="48.85261" lon="1.73474">
        <ele>111</ele>
        <time>2018-10-21T09:22:52Z</time>
      </trkpt>
      <trkpt lat="48.85256" lon="1.73486">
        <ele>111</ele>
        <time>2018-10-21T09:23:00Z</time>
      </trkpt>
      <trkpt lat="48.85256" lon="1.735">
        <ele>111</ele>
        <time>2018-10-21T09:23:07Z</time>
      </trkpt>
      <trkpt lat="48.85263" lon="1.73512">
        <ele>111</ele>
        <time>2018-10-21T09:23:14Z</time>
      </trkpt>
      <trkpt lat="48.85272" lon="1.7352">
        <ele>112</ele>
        <time>2018-10-21T09:23:21Z</time>
      </trkpt>
      <trkpt lat="48.85279" lon="1.73529">
        <ele>112</ele>
        <time>2018-10-21T09:23:28Z</time>
      </trkpt>
      <trkpt lat="48.85288" lon="1.73536">
        <ele>112</ele>
        <time>2018-10-21T09:23:35Z</time>
      </trkpt>
      <trkpt lat="48.85295" lon="1.73546">
        <ele>113</ele>
        <time>2018-10-21T09:23:41Z</time>
      </trkpt>
      <trkpt lat="48.85302" lon="1.73557">
        <ele>113</ele>
        <time>2018-10-21T09:23:47Z</time>
      </trkpt>
      <trkpt lat="48.85309" lon="1.73567">
        <ele>114</ele>
        <time>2018-10-21T09:23:54Z</time>
      </trkpt>
      <trkpt lat="48.85317" lon="1.73576">
        <ele>115</ele>
        <time>2018-10-21T09:24:02Z</time>
      </trkpt>
      <trkpt lat="48.85324" lon="1.73587">
        <ele>115</ele>
        <time>2018-10-21T09:24:14Z</time>
      </trkpt>
      <trkpt lat="48.85329" lon="1.736">
        <ele>115</ele>
        <time>2018-10-21T09:24:21Z</time>
      </trkpt>
      <trkpt lat="48.85333" lon="1.73612">
        <ele>115</ele>
        <time>2018-10-21T09:24:28Z</time>
      </trkpt>
      <trkpt lat="48.85338" lon="1.73624">
        <ele>115</ele>
        <time>2018-10-21T09:24:35Z</time>
      </trkpt>
      <trkpt lat="48.85343" lon="1.73636">
        <ele>115</ele>
        <time>2018-10-21T09:24:42Z</time>
      </trkpt>
      <trkpt lat="48.85347" lon="1.73649">
        <ele>114</ele>
        <time>2018-10-21T09:24:49Z</time>
      </trkpt>
      <trkpt lat="48.85351" lon="1.73663">
        <ele>114</ele>
        <time>2018-10-21T09:24:57Z</time>
      </trkpt>
      <trkpt lat="48.85355" lon="1.73676">
        <ele>114</ele>
        <time>2018-10-21T09:25:04Z</time>
      </trkpt>
      <trkpt lat="48.85361" lon="1.73689">
        <ele>114</ele>
        <time>2018-10-21T09:25:11Z</time>
      </trkpt>
      <trkpt lat="48.85367" lon="1.737">
        <ele>115</ele>
        <time>2018-10-21T09:25:17Z</time>
      </trkpt>
      <trkpt lat="48.85371" lon="1.73714">
        <ele>115</ele>
        <time>2018-10-21T09:25:26Z</time>
      </trkpt>
      <trkpt lat="48.85376" lon="1.73727">
        <ele>115</ele>
        <time>2018-10-21T09:25:33Z</time>
      </trkpt>
      <trkpt lat="48.85382" lon="1.73738">
        <ele>115</ele>
        <time>2018-10-21T09:25:40Z</time>
      </trkpt>
      <trkpt lat="48.85388" lon="1.73749">
        <ele>115</ele>
        <time>2018-10-21T09:25:47Z</time>
      </trkpt>
      <trkpt lat="48.85392" lon="1.73762">
        <ele>115</ele>
        <time>2018-10-21T09:26:03Z</time>
      </trkpt>
      <trkpt lat="48.85391" lon="1.73778">
        <ele>115</ele>
        <time>2018-10-21T09:26:11Z</time>
      </trkpt>
      <trkpt lat="48.85387" lon="1.7379">
        <ele>115</ele>
        <time>2018-10-21T09:26:18Z</time>
      </trkpt>
      <trkpt lat="48.85382" lon="1.73803">
        <ele>115</ele>
        <time>2018-10-21T09:26:25Z</time>
      </trkpt>
      <trkpt lat="48.85378" lon="1.73814">
        <ele>115</ele>
        <time>2018-10-21T09:26:33Z</time>
      </trkpt>
      <trkpt lat="48.85373" lon="1.73827">
        <ele>114</ele>
        <time>2018-10-21T09:26:40Z</time>
      </trkpt>
      <trkpt lat="48.85367" lon="1.7384">
        <ele>114</ele>
        <time>2018-10-21T09:26:47Z</time>
      </trkpt>
      <trkpt lat="48.85366" lon="1.73856">
        <ele>113</ele>
        <time>2018-10-21T09:26:55Z</time>
      </trkpt>
      <trkpt lat="48.85368" lon="1.73871">
        <ele>113</ele>
        <time>2018-10-21T09:27:01Z</time>
      </trkpt>
      <trkpt lat="48.85368" lon="1.73886">
        <ele>113</ele>
        <time>2018-10-21T09:27:08Z</time>
      </trkpt>
      <trkpt lat="48.85368" lon="1.73901">
        <ele>113</ele>
        <time>2018-10-21T09:27:15Z</time>
      </trkpt>
      <trkpt lat="48.85369" lon="1.73915">
        <ele>113</ele>
        <time>2018-10-21T09:27:22Z</time>
      </trkpt>
      <trkpt lat="48.85369" lon="1.73931">
        <ele>114</ele>
        <time>2018-10-21T09:27:30Z</time>
      </trkpt>
      <trkpt lat="48.85371" lon="1.73945">
        <ele>114</ele>
        <time>2018-10-21T09:27:37Z</time>
      </trkpt>
      <trkpt lat="48.85369" lon="1.73958">
        <ele>114</ele>
        <time>2018-10-21T09:27:45Z</time>
      </trkpt>
      <trkpt lat="48.85368" lon="1.73973">
        <ele>114</ele>
        <time>2018-10-21T09:27:52Z</time>
      </trkpt>
      <trkpt lat="48.85365" lon="1.73988">
        <ele>113</ele>
        <time>2018-10-21T09:27:59Z</time>
      </trkpt>
      <trkpt lat="48.85361" lon="1.74001">
        <ele>113</ele>
        <time>2018-10-21T09:28:06Z</time>
      </trkpt>
      <trkpt lat="48.85357" lon="1.74015">
        <ele>113</ele>
        <time>2018-10-21T09:28:13Z</time>
      </trkpt>
      <trkpt lat="48.85353" lon="1.74026">
        <ele>114</ele>
        <time>2018-10-21T09:28:19Z</time>
      </trkpt>
      <trkpt lat="48.85349" lon="1.7404">
        <ele>113</ele>
        <time>2018-10-21T09:28:26Z</time>
      </trkpt>
      <trkpt lat="48.85346" lon="1.74054">
        <ele>113</ele>
        <time>2018-10-21T09:28:32Z</time>
      </trkpt>
      <trkpt lat="48.85341" lon="1.74067">
        <ele>113</ele>
        <time>2018-10-21T09:28:39Z</time>
      </trkpt>
      <trkpt lat="48.85336" lon="1.74078">
        <ele>113</ele>
        <time>2018-10-21T09:28:46Z</time>
      </trkpt>
      <trkpt lat="48.8533" lon="1.7409">
        <ele>113</ele>
        <time>2018-10-21T09:28:54Z</time>
      </trkpt>
      <trkpt lat="48.85326" lon="1.74104">
        <ele>113</ele>
        <time>2018-10-21T09:29:02Z</time>
      </trkpt>
      <trkpt lat="48.85322" lon="1.74117">
        <ele>112</ele>
        <time>2018-10-21T09:29:09Z</time>
      </trkpt>
      <trkpt lat="48.85317" lon="1.74129">
        <ele>111</ele>
        <time>2018-10-21T09:29:17Z</time>
      </trkpt>
      <trkpt lat="48.85311" lon="1.74141">
        <ele>110</ele>
        <time>2018-10-21T09:29:23Z</time>
      </trkpt>
      <trkpt lat="48.85305" lon="1.74154">
        <ele>110</ele>
        <time>2018-10-21T09:29:29Z</time>
      </trkpt>
      <trkpt lat="48.85301" lon="1.74166">
        <ele>110</ele>
        <time>2018-10-21T09:29:35Z</time>
      </trkpt>
      <trkpt lat="48.85296" lon="1.74178">
        <ele>109</ele>
        <time>2018-10-21T09:29:42Z</time>
      </trkpt>
      <trkpt lat="48.85292" lon="1.74192">
        <ele>109</ele>
        <time>2018-10-21T09:29:49Z</time>
      </trkpt>
      <trkpt lat="48.85288" lon="1.74204">
        <ele>109</ele>
        <time>2018-10-21T09:29:56Z</time>
      </trkpt>
      <trkpt lat="48.85283" lon="1.74218">
        <ele>109</ele>
        <time>2018-10-21T09:30:08Z</time>
      </trkpt>
      <trkpt lat="48.85279" lon="1.7423">
        <ele>109</ele>
        <time>2018-10-21T09:30:15Z</time>
      </trkpt>
      <trkpt lat="48.85274" lon="1.74241">
        <ele>109</ele>
        <time>2018-10-21T09:30:21Z</time>
      </trkpt>
      <trkpt lat="48.85268" lon="1.74253">
        <ele>109</ele>
        <time>2018-10-21T09:30:28Z</time>
      </trkpt>
      <trkpt lat="48.85263" lon="1.74266">
        <ele>109</ele>
        <time>2018-10-21T09:30:35Z</time>
      </trkpt>
      <trkpt lat="48.85258" lon="1.74279">
        <ele>108</ele>
        <time>2018-10-21T09:30:42Z</time>
      </trkpt>
      <trkpt lat="48.85254" lon="1.74292">
        <ele>108</ele>
        <time>2018-10-21T09:30:48Z</time>
      </trkpt>
      <trkpt lat="48.8525" lon="1.74306">
        <ele>109</ele>
        <time>2018-10-21T09:30:55Z</time>
      </trkpt>
      <trkpt lat="48.85244" lon="1.74319">
        <ele>109</ele>
        <time>2018-10-21T09:31:02Z</time>
      </trkpt>
      <trkpt lat="48.8524" lon="1.74332">
        <ele>109</ele>
        <time>2018-10-21T09:31:10Z</time>
      </trkpt>
      <trkpt lat="48.85237" lon="1.74345">
        <ele>109</ele>
        <time>2018-10-21T09:31:16Z</time>
      </trkpt>
      <trkpt lat="48.85234" lon="1.74359">
        <ele>109</ele>
        <time>2018-10-21T09:31:22Z</time>
      </trkpt>
      <trkpt lat="48.85231" lon="1.74372">
        <ele>108</ele>
        <time>2018-10-21T09:31:29Z</time>
      </trkpt>
      <trkpt lat="48.85229" lon="1.74386">
        <ele>108</ele>
        <time>2018-10-21T09:31:36Z</time>
      </trkpt>
      <trkpt lat="48.85225" lon="1.744">
        <ele>108</ele>
        <time>2018-10-21T09:31:44Z</time>
      </trkpt>
      <trkpt lat="48.85221" lon="1.74414">
        <ele>108</ele>
        <time>2018-10-21T09:31:50Z</time>
      </trkpt>
      <trkpt lat="48.85217" lon="1.74428">
        <ele>108</ele>
        <time>2018-10-21T09:31:56Z</time>
      </trkpt>
      <trkpt lat="48.85212" lon="1.7444">
        <ele>108</ele>
        <time>2018-10-21T09:32:03Z</time>
      </trkpt>
      <trkpt lat="48.85208" lon="1.74453">
        <ele>107</ele>
        <time>2018-10-21T09:32:10Z</time>
      </trkpt>
      <trkpt lat="48.85203" lon="1.74467">
        <ele>107</ele>
        <time>2018-10-21T09:32:18Z</time>
      </trkpt>
      <trkpt lat="48.85199" lon="1.7448">
        <ele>107</ele>
        <time>2018-10-21T09:32:24Z</time>
      </trkpt>
      <trkpt lat="48.85192" lon="1.74492">
        <ele>107</ele>
        <time>2018-10-21T09:32:31Z</time>
      </trkpt>
      <trkpt lat="48.85186" lon="1.74503">
        <ele>107</ele>
        <time>2018-10-21T09:32:38Z</time>
      </trkpt>
      <trkpt lat="48.85179" lon="1.74513">
        <ele>107</ele>
        <time>2018-10-21T09:32:45Z</time>
      </trkpt>
      <trkpt lat="48.85171" lon="1.74523">
        <ele>107</ele>
        <time>2018-10-21T09:32:52Z</time>
      </trkpt>
      <trkpt lat="48.85165" lon="1.74532">
        <ele>106</ele>
        <time>2018-10-21T09:32:59Z</time>
      </trkpt>
      <trkpt lat="48.85158" lon="1.74541">
        <ele>106</ele>
        <time>2018-10-21T09:33:06Z</time>
      </trkpt>
      <trkpt lat="48.8515" lon="1.74551">
        <ele>106</ele>
        <time>2018-10-21T09:33:13Z</time>
      </trkpt>
      <trkpt lat="48.85142" lon="1.7456">
        <ele>106</ele>
        <time>2018-10-21T09:33:20Z</time>
      </trkpt>
      <trkpt lat="48.85134" lon="1.74569">
        <ele>105</ele>
        <time>2018-10-21T09:33:27Z</time>
      </trkpt>
      <trkpt lat="48.85126" lon="1.74577">
        <ele>105</ele>
        <time>2018-10-21T09:33:35Z</time>
      </trkpt>
      <trkpt lat="48.85118" lon="1.74582">
        <ele>104</ele>
        <time>2018-10-21T09:33:58Z</time>
      </trkpt>
      <trkpt lat="48.85111" lon="1.74593">
        <ele>104</ele>
        <time>2018-10-21T09:34:11Z</time>
      </trkpt>
      <trkpt lat="48.85104" lon="1.74603">
        <ele>104</ele>
        <time>2018-10-21T09:34:24Z</time>
      </trkpt>
      <trkpt lat="48.85096" lon="1.74614">
        <ele>104</ele>
        <time>2018-10-21T09:34:33Z</time>
      </trkpt>
      <trkpt lat="48.85088" lon="1.7462">
        <ele>104</ele>
        <time>2018-10-21T09:34:50Z</time>
      </trkpt>
      <trkpt lat="48.8508" lon="1.74627">
        <ele>104</ele>
        <time>2018-10-21T09:34:59Z</time>
      </trkpt>
      <trkpt lat="48.85074" lon="1.74638">
        <ele>104</ele>
        <time>2018-10-21T09:35:07Z</time>
      </trkpt>
      <trkpt lat="48.85067" lon="1.74649">
        <ele>105</ele>
        <time>2018-10-21T09:35:17Z</time>
      </trkpt>
      <trkpt lat="48.85062" lon="1.7466">
        <ele>105</ele>
        <time>2018-10-21T09:35:25Z</time>
      </trkpt>
      <trkpt lat="48.85057" lon="1.74671">
        <ele>106</ele>
        <time>2018-10-21T09:35:33Z</time>
      </trkpt>
      <trkpt lat="48.85052" lon="1.74684">
        <ele>107</ele>
        <time>2018-10-21T09:35:40Z</time>
      </trkpt>
      <trkpt lat="48.85049" lon="1.74697">
        <ele>107</ele>
        <time>2018-10-21T09:35:46Z</time>
      </trkpt>
      <trkpt lat="48.85048" lon="1.74713">
        <ele>108</ele>
        <time>2018-10-21T09:35:52Z</time>
      </trkpt>
      <trkpt lat="48.85039" lon="1.7471">
        <ele>107</ele>
        <time>2018-10-21T09:36:22Z</time>
      </trkpt>
      <trkpt lat="48.85029" lon="1.74705">
        <ele>107</ele>
        <time>2018-10-21T09:36:29Z</time>
      </trkpt>
      <trkpt lat="48.85021" lon="1.74697">
        <ele>108</ele>
        <time>2018-10-21T09:36:36Z</time>
      </trkpt>
      <trkpt lat="48.85013" lon="1.74688">
        <ele>109</ele>
        <time>2018-10-21T09:36:43Z</time>
      </trkpt>
      <trkpt lat="48.85003" lon="1.74682">
        <ele>109</ele>
        <time>2018-10-21T09:36:52Z</time>
      </trkpt>
      <trkpt lat="48.84995" lon="1.74675">
        <ele>110</ele>
        <time>2018-10-21T09:37:00Z</time>
      </trkpt>
      <trkpt lat="48.84985" lon="1.7467">
        <ele>111</ele>
        <time>2018-10-21T09:37:07Z</time>
      </trkpt>
      <trkpt lat="48.84976" lon="1.74665">
        <ele>112</ele>
        <time>2018-10-21T09:37:15Z</time>
      </trkpt>
      <trkpt lat="48.84967" lon="1.74658">
        <ele>112</ele>
        <time>2018-10-21T09:37:23Z</time>
      </trkpt>
      <trkpt lat="48.84959" lon="1.74654">
        <ele>112</ele>
        <time>2018-10-21T09:37:31Z</time>
      </trkpt>
      <trkpt lat="48.8495" lon="1.74653">
        <ele>111</ele>
        <time>2018-10-21T09:37:39Z</time>
      </trkpt>
      <trkpt lat="48.84939" lon="1.74652">
        <ele>111</ele>
        <time>2018-10-21T09:37:45Z</time>
      </trkpt>
      <trkpt lat="48.8493" lon="1.74653">
        <ele>110</ele>
        <time>2018-10-21T09:37:51Z</time>
      </trkpt>
      <trkpt lat="48.84921" lon="1.7465">
        <ele>110</ele>
        <time>2018-10-21T09:37:59Z</time>
      </trkpt>
      <trkpt lat="48.8491" lon="1.7465">
        <ele>109</ele>
        <time>2018-10-21T09:38:07Z</time>
      </trkpt>
      <trkpt lat="48.84901" lon="1.74645">
        <ele>109</ele>
        <time>2018-10-21T09:38:15Z</time>
      </trkpt>
      <trkpt lat="48.84891" lon="1.7464">
        <ele>108</ele>
        <time>2018-10-21T09:38:23Z</time>
      </trkpt>
      <trkpt lat="48.84882" lon="1.7464">
        <ele>108</ele>
        <time>2018-10-21T09:38:28Z</time>
      </trkpt>
      <trkpt lat="48.84873" lon="1.74642">
        <ele>108</ele>
        <time>2018-10-21T09:38:35Z</time>
      </trkpt>
      <trkpt lat="48.84863" lon="1.74643">
        <ele>108</ele>
        <time>2018-10-21T09:38:43Z</time>
      </trkpt>
      <trkpt lat="48.84853" lon="1.74644">
        <ele>107</ele>
        <time>2018-10-21T09:38:51Z</time>
      </trkpt>
      <trkpt lat="48.84843" lon="1.74645">
        <ele>107</ele>
        <time>2018-10-21T09:39:00Z</time>
      </trkpt>
      <trkpt lat="48.84834" lon="1.74648">
        <ele>107</ele>
        <time>2018-10-21T09:39:07Z</time>
      </trkpt>
      <trkpt lat="48.84825" lon="1.74651">
        <ele>107</ele>
        <time>2018-10-21T09:39:13Z</time>
      </trkpt>
      <trkpt lat="48.84816" lon="1.74657">
        <ele>107</ele>
        <time>2018-10-21T09:39:24Z</time>
      </trkpt>
      <trkpt lat="48.84807" lon="1.74663">
        <ele>106</ele>
        <time>2018-10-21T09:39:33Z</time>
      </trkpt>
      <trkpt lat="48.84798" lon="1.74668">
        <ele>106</ele>
        <time>2018-10-21T09:39:39Z</time>
      </trkpt>
      <trkpt lat="48.84789" lon="1.74674">
        <ele>106</ele>
        <time>2018-10-21T09:39:46Z</time>
      </trkpt>
      <trkpt lat="48.84781" lon="1.74681">
        <ele>106</ele>
        <time>2018-10-21T09:39:54Z</time>
      </trkpt>
      <trkpt lat="48.84773" lon="1.74692">
        <ele>106</ele>
        <time>2018-10-21T09:40:00Z</time>
      </trkpt>
      <trkpt lat="48.84764" lon="1.74699">
        <ele>105</ele>
        <time>2018-10-21T09:40:08Z</time>
      </trkpt>
      <trkpt lat="48.84755" lon="1.74704">
        <ele>105</ele>
        <time>2018-10-21T09:40:16Z</time>
      </trkpt>
      <trkpt lat="48.84747" lon="1.7471">
        <ele>105</ele>
        <time>2018-10-21T09:40:26Z</time>
      </trkpt>
      <trkpt lat="48.84737" lon="1.74715">
        <ele>105</ele>
        <time>2018-10-21T09:40:34Z</time>
      </trkpt>
      <trkpt lat="48.84727" lon="1.74718">
        <ele>105</ele>
        <time>2018-10-21T09:40:41Z</time>
      </trkpt>
      <trkpt lat="48.84718" lon="1.74722">
        <ele>106</ele>
        <time>2018-10-21T09:40:48Z</time>
      </trkpt>
      <trkpt lat="48.84709" lon="1.74726">
        <ele>106</ele>
        <time>2018-10-21T09:40:56Z</time>
      </trkpt>
      <trkpt lat="48.84699" lon="1.74729">
        <ele>106</ele>
        <time>2018-10-21T09:41:04Z</time>
      </trkpt>
      <trkpt lat="48.8469" lon="1.74731">
        <ele>106</ele>
        <time>2018-10-21T09:41:12Z</time>
      </trkpt>
      <trkpt lat="48.8468" lon="1.74735">
        <ele>106</ele>
        <time>2018-10-21T09:41:18Z</time>
      </trkpt>
      <trkpt lat="48.84671" lon="1.74736">
        <ele>107</ele>
        <time>2018-10-21T09:41:24Z</time>
      </trkpt>
      <trkpt lat="48.84661" lon="1.74737">
        <ele>107</ele>
        <time>2018-10-21T09:41:32Z</time>
      </trkpt>
      <trkpt lat="48.84651" lon="1.74739">
        <ele>108</ele>
        <time>2018-10-21T09:41:39Z</time>
      </trkpt>
      <trkpt lat="48.84641" lon="1.74744">
        <ele>108</ele>
        <time>2018-10-21T09:41:47Z</time>
      </trkpt>
      <trkpt lat="48.84631" lon="1.74744">
        <ele>108</ele>
        <time>2018-10-21T09:41:54Z</time>
      </trkpt>
      <trkpt lat="48.84621" lon="1.74747">
        <ele>107</ele>
        <time>2018-10-21T09:42:01Z</time>
      </trkpt>
      <trkpt lat="48.84612" lon="1.74751">
        <ele>108</ele>
        <time>2018-10-21T09:42:10Z</time>
      </trkpt>
      <trkpt lat="48.84602" lon="1.74756">
        <ele>108</ele>
        <time>2018-10-21T09:42:19Z</time>
      </trkpt>
      <trkpt lat="48.84596" lon="1.74766">
        <ele>108</ele>
        <time>2018-10-21T09:42:26Z</time>
      </trkpt>
      <trkpt lat="48.84587" lon="1.74773">
        <ele>108</ele>
        <time>2018-10-21T09:42:33Z</time>
      </trkpt>
      <trkpt lat="48.84579" lon="1.74783">
        <ele>109</ele>
        <time>2018-10-21T09:42:40Z</time>
      </trkpt>
      <trkpt lat="48.84573" lon="1.74792">
        <ele>109</ele>
        <time>2018-10-21T09:42:48Z</time>
      </trkpt>
      <trkpt lat="48.84565" lon="1.74803">
        <ele>109</ele>
        <time>2018-10-21T09:42:56Z</time>
      </trkpt>
      <trkpt lat="48.84557" lon="1.74812">
        <ele>110</ele>
        <time>2018-10-21T09:43:05Z</time>
      </trkpt>
      <trkpt lat="48.84551" lon="1.74823">
        <ele>110</ele>
        <time>2018-10-21T09:43:13Z</time>
      </trkpt>
      <trkpt lat="48.84544" lon="1.74834">
        <ele>111</ele>
        <time>2018-10-21T09:43:19Z</time>
      </trkpt>
      <trkpt lat="48.84537" lon="1.74844">
        <ele>111</ele>
        <time>2018-10-21T09:43:25Z</time>
      </trkpt>
      <trkpt lat="48.8453" lon="1.74854">
        <ele>111</ele>
        <time>2018-10-21T09:43:32Z</time>
      </trkpt>
      <trkpt lat="48.84524" lon="1.74865">
        <ele>111</ele>
        <time>2018-10-21T09:43:41Z</time>
      </trkpt>
      <trkpt lat="48.84518" lon="1.74877">
        <ele>111</ele>
        <time>2018-10-21T09:43:48Z</time>
      </trkpt>
      <trkpt lat="48.84511" lon="1.74887">
        <ele>110</ele>
        <time>2018-10-21T09:43:56Z</time>
      </trkpt>
      <trkpt lat="48.84504" lon="1.74896">
        <ele>110</ele>
        <time>2018-10-21T09:44:05Z</time>
      </trkpt>
      <trkpt lat="48.84507" lon="1.74909">
        <ele>110</ele>
        <time>2018-10-21T09:44:16Z</time>
      </trkpt>
      <trkpt lat="48.84514" lon="1.74919">
        <ele>110</ele>
        <time>2018-10-21T09:44:23Z</time>
      </trkpt>
      <trkpt lat="48.84521" lon="1.74929">
        <ele>111</ele>
        <time>2018-10-21T09:44:30Z</time>
      </trkpt>
      <trkpt lat="48.84529" lon="1.74939">
        <ele>112</ele>
        <time>2018-10-21T09:44:37Z</time>
      </trkpt>
      <trkpt lat="48.84536" lon="1.74948">
        <ele>112</ele>
        <time>2018-10-21T09:44:44Z</time>
      </trkpt>
      <trkpt lat="48.84543" lon="1.74956">
        <ele>112</ele>
        <time>2018-10-21T09:44:52Z</time>
      </trkpt>
      <trkpt lat="48.84551" lon="1.74966">
        <ele>113</ele>
        <time>2018-10-21T09:45:00Z</time>
      </trkpt>
      <trkpt lat="48.84557" lon="1.74977">
        <ele>113</ele>
        <time>2018-10-21T09:45:06Z</time>
      </trkpt>
      <trkpt lat="48.84563" lon="1.74988">
        <ele>113</ele>
        <time>2018-10-21T09:45:13Z</time>
      </trkpt>
      <trkpt lat="48.8457" lon="1.74998">
        <ele>114</ele>
        <time>2018-10-21T09:45:20Z</time>
      </trkpt>
      <trkpt lat="48.84577" lon="1.75009">
        <ele>114</ele>
        <time>2018-10-21T09:45:27Z</time>
      </trkpt>
      <trkpt lat="48.84583" lon="1.75019">
        <ele>114</ele>
        <time>2018-10-21T09:45:34Z</time>
      </trkpt>
      <trkpt lat="48.8459" lon="1.75028">
        <ele>114</ele>
        <time>2018-10-21T09:45:41Z</time>
      </trkpt>
      <trkpt lat="48.84597" lon="1.75039">
        <ele>114</ele>
        <time>2018-10-21T09:45:48Z</time>
      </trkpt>
      <trkpt lat="48.84603" lon="1.75051">
        <ele>114</ele>
        <time>2018-10-21T09:45:55Z</time>
      </trkpt>
      <trkpt lat="48.84609" lon="1.75063">
        <ele>114</ele>
        <time>2018-10-21T09:46:03Z</time>
      </trkpt>
      <trkpt lat="48.84614" lon="1.75075">
        <ele>115</ele>
        <time>2018-10-21T09:46:09Z</time>
      </trkpt>
      <trkpt lat="48.84619" lon="1.75087">
        <ele>115</ele>
        <time>2018-10-21T09:46:16Z</time>
      </trkpt>
      <trkpt lat="48.84626" lon="1.75097">
        <ele>115</ele>
        <time>2018-10-21T09:46:23Z</time>
      </trkpt>
      <trkpt lat="48.84632" lon="1.75109">
        <ele>116</ele>
        <time>2018-10-21T09:46:30Z</time>
      </trkpt>
      <trkpt lat="48.84639" lon="1.75119">
        <ele>116</ele>
        <time>2018-10-21T09:46:37Z</time>
      </trkpt>
      <trkpt lat="48.84646" lon="1.75129">
        <ele>116</ele>
        <time>2018-10-21T09:46:45Z</time>
      </trkpt>
      <trkpt lat="48.84653" lon="1.7514">
        <ele>116</ele>
        <time>2018-10-21T09:46:53Z</time>
      </trkpt>
      <trkpt lat="48.8466" lon="1.7515">
        <ele>116</ele>
        <time>2018-10-21T09:47:01Z</time>
      </trkpt>
      <trkpt lat="48.84668" lon="1.7516">
        <ele>116</ele>
        <time>2018-10-21T09:47:09Z</time>
      </trkpt>
      <trkpt lat="48.84675" lon="1.75171">
        <ele>116</ele>
        <time>2018-10-21T09:47:16Z</time>
      </trkpt>
      <trkpt lat="48.84682" lon="1.75182">
        <ele>116</ele>
        <time>2018-10-21T09:47:23Z</time>
      </trkpt>
      <trkpt lat="48.8469" lon="1.75193">
        <ele>116</ele>
        <time>2018-10-21T09:47:31Z</time>
      </trkpt>
      <trkpt lat="48.84696" lon="1.75204">
        <ele>115</ele>
        <time>2018-10-21T09:47:38Z</time>
      </trkpt>
      <trkpt lat="48.84702" lon="1.75215">
        <ele>115</ele>
        <time>2018-10-21T09:47:45Z</time>
      </trkpt>
      <trkpt lat="48.84709" lon="1.75226">
        <ele>114</ele>
        <time>2018-10-21T09:47:52Z</time>
      </trkpt>
      <trkpt lat="48.84714" lon="1.75238">
        <ele>113</ele>
        <time>2018-10-21T09:47:59Z</time>
      </trkpt>
      <trkpt lat="48.84721" lon="1.7525">
        <ele>113</ele>
        <time>2018-10-21T09:48:06Z</time>
      </trkpt>
      <trkpt lat="48.84724" lon="1.75262">
        <ele>114</ele>
        <time>2018-10-21T09:48:13Z</time>
      </trkpt>
      <trkpt lat="48.84731" lon="1.75274">
        <ele>114</ele>
        <time>2018-10-21T09:48:21Z</time>
      </trkpt>
      <trkpt lat="48.84736" lon="1.75285">
        <ele>114</ele>
        <time>2018-10-21T09:48:27Z</time>
      </trkpt>
      <trkpt lat="48.84743" lon="1.75296">
        <ele>113</ele>
        <time>2018-10-21T09:48:34Z</time>
      </trkpt>
      <trkpt lat="48.84748" lon="1.75308">
        <ele>113</ele>
        <time>2018-10-21T09:48:41Z</time>
      </trkpt>
      <trkpt lat="48.84754" lon="1.7532">
        <ele>113</ele>
        <time>2018-10-21T09:48:48Z</time>
      </trkpt>
      <trkpt lat="48.8476" lon="1.75331">
        <ele>113</ele>
        <time>2018-10-21T09:48:55Z</time>
      </trkpt>
      <trkpt lat="48.84768" lon="1.7534">
        <ele>113</ele>
        <time>2018-10-21T09:49:01Z</time>
      </trkpt>
      <trkpt lat="48.84775" lon="1.75349">
        <ele>113</ele>
        <time>2018-10-21T09:49:08Z</time>
      </trkpt>
      <trkpt lat="48.84781" lon="1.75359">
        <ele>114</ele>
        <time>2018-10-21T09:49:14Z</time>
      </trkpt>
      <trkpt lat="48.84789" lon="1.75368">
        <ele>114</ele>
        <time>2018-10-21T09:49:21Z</time>
      </trkpt>
      <trkpt lat="48.84796" lon="1.75378">
        <ele>114</ele>
        <time>2018-10-21T09:49:28Z</time>
      </trkpt>
      <trkpt lat="48.84804" lon="1.75388">
        <ele>115</ele>
        <time>2018-10-21T09:49:35Z</time>
      </trkpt>
      <trkpt lat="48.84813" lon="1.75392">
        <ele>116</ele>
        <time>2018-10-21T09:49:49Z</time>
      </trkpt>
      <trkpt lat="48.84818" lon="1.75379">
        <ele>116</ele>
        <time>2018-10-21T09:49:57Z</time>
      </trkpt>
      <trkpt lat="48.84823" lon="1.75367">
        <ele>116</ele>
        <time>2018-10-21T09:50:04Z</time>
      </trkpt>
      <trkpt lat="48.84828" lon="1.75355">
        <ele>116</ele>
        <time>2018-10-21T09:50:12Z</time>
      </trkpt>
      <trkpt lat="48.84834" lon="1.75345">
        <ele>116</ele>
        <time>2018-10-21T09:50:19Z</time>
      </trkpt>
      <trkpt lat="48.8484" lon="1.75334">
        <ele>116</ele>
        <time>2018-10-21T09:50:26Z</time>
      </trkpt>
      <trkpt lat="48.84847" lon="1.75323">
        <ele>115</ele>
        <time>2018-10-21T09:50:34Z</time>
      </trkpt>
      <trkpt lat="48.84854" lon="1.75312">
        <ele>115</ele>
        <time>2018-10-21T09:50:42Z</time>
      </trkpt>
      <trkpt lat="48.84861" lon="1.75304">
        <ele>115</ele>
        <time>2018-10-21T09:50:49Z</time>
      </trkpt>
      <trkpt lat="48.84867" lon="1.75294">
        <ele>115</ele>
        <time>2018-10-21T09:50:55Z</time>
      </trkpt>
      <trkpt lat="48.84874" lon="1.75283">
        <ele>115</ele>
        <time>2018-10-21T09:51:03Z</time>
      </trkpt>
      <trkpt lat="48.84882" lon="1.75274">
        <ele>115</ele>
        <time>2018-10-21T09:51:12Z</time>
      </trkpt>
      <trkpt lat="48.84889" lon="1.75265">
        <ele>114</ele>
        <time>2018-10-21T09:51:19Z</time>
      </trkpt>
      <trkpt lat="48.84898" lon="1.75256">
        <ele>114</ele>
        <time>2018-10-21T09:51:27Z</time>
      </trkpt>
      <trkpt lat="48.84906" lon="1.7525">
        <ele>113</ele>
        <time>2018-10-21T09:51:35Z</time>
      </trkpt>
      <trkpt lat="48.84913" lon="1.75239">
        <ele>113</ele>
        <time>2018-10-21T09:51:42Z</time>
      </trkpt>
      <trkpt lat="48.84922" lon="1.75232">
        <ele>113</ele>
        <time>2018-10-21T09:51:48Z</time>
      </trkpt>
      <trkpt lat="48.84932" lon="1.75229">
        <ele>113</ele>
        <time>2018-10-21T09:51:54Z</time>
      </trkpt>
      <trkpt lat="48.84942" lon="1.75228">
        <ele>113</ele>
        <time>2018-10-21T09:52:00Z</time>
      </trkpt>
      <trkpt lat="48.84951" lon="1.75228">
        <ele>114</ele>
        <time>2018-10-21T09:52:06Z</time>
      </trkpt>
      <trkpt lat="48.84961" lon="1.75227">
        <ele>114</ele>
        <time>2018-10-21T09:52:14Z</time>
      </trkpt>
      <trkpt lat="48.84971" lon="1.75228">
        <ele>115</ele>
        <time>2018-10-21T09:52:22Z</time>
      </trkpt>
      <trkpt lat="48.84981" lon="1.75231">
        <ele>116</ele>
        <time>2018-10-21T09:52:29Z</time>
      </trkpt>
      <trkpt lat="48.8499" lon="1.75233">
        <ele>117</ele>
        <time>2018-10-21T09:52:35Z</time>
      </trkpt>
      <trkpt lat="48.85" lon="1.75235">
        <ele>118</ele>
        <time>2018-10-21T09:52:42Z</time>
      </trkpt>
      <trkpt lat="48.85009" lon="1.75237">
        <ele>119</ele>
        <time>2018-10-21T09:52:50Z</time>
      </trkpt>
      <trkpt lat="48.85019" lon="1.7524">
        <ele>120</ele>
        <time>2018-10-21T09:52:59Z</time>
      </trkpt>
      <trkpt lat="48.85029" lon="1.75244">
        <ele>120</ele>
        <time>2018-10-21T09:53:07Z</time>
      </trkpt>
      <trkpt lat="48.85039" lon="1.75247">
        <ele>121</ele>
        <time>2018-10-21T09:53:14Z</time>
      </trkpt>
      <trkpt lat="48.85048" lon="1.75249">
        <ele>121</ele>
        <time>2018-10-21T09:53:20Z</time>
      </trkpt>
      <trkpt lat="48.85058" lon="1.7525">
        <ele>121</ele>
        <time>2018-10-21T09:53:26Z</time>
      </trkpt>
      <trkpt lat="48.85067" lon="1.75249">
        <ele>120</ele>
        <time>2018-10-21T09:53:32Z</time>
      </trkpt>
      <trkpt lat="48.85077" lon="1.75249">
        <ele>120</ele>
        <time>2018-10-21T09:53:40Z</time>
      </trkpt>
      <trkpt lat="48.85086" lon="1.75251">
        <ele>118</ele>
        <time>2018-10-21T09:57:42Z</time>
      </trkpt>
      <trkpt lat="48.85094" lon="1.75261">
        <ele>117</ele>
        <time>2018-10-21T09:57:50Z</time>
      </trkpt>
      <trkpt lat="48.851" lon="1.75273">
        <ele>117</ele>
        <time>2018-10-21T09:57:58Z</time>
      </trkpt>
      <trkpt lat="48.85106" lon="1.75286">
        <ele>117</ele>
        <time>2018-10-21T09:58:05Z</time>
      </trkpt>
      <trkpt lat="48.85111" lon="1.75296">
        <ele>117</ele>
        <time>2018-10-21T09:58:13Z</time>
      </trkpt>
      <trkpt lat="48.85118" lon="1.75307">
        <ele>117</ele>
        <time>2018-10-21T09:58:20Z</time>
      </trkpt>
      <trkpt lat="48.85125" lon="1.75317">
        <ele>117</ele>
        <time>2018-10-21T09:58:27Z</time>
      </trkpt>
      <trkpt lat="48.85132" lon="1.75327">
        <ele>117</ele>
        <time>2018-10-21T09:58:34Z</time>
      </trkpt>
      <trkpt lat="48.85138" lon="1.75339">
        <ele>117</ele>
        <time>2018-10-21T09:58:42Z</time>
      </trkpt>
      <trkpt lat="48.85144" lon="1.7535">
        <ele>117</ele>
        <time>2018-10-21T09:58:48Z</time>
      </trkpt>
      <trkpt lat="48.85151" lon="1.75359">
        <ele>117</ele>
        <time>2018-10-21T09:58:56Z</time>
      </trkpt>
      <trkpt lat="48.85158" lon="1.75369">
        <ele>117</ele>
        <time>2018-10-21T09:59:03Z</time>
      </trkpt>
      <trkpt lat="48.85163" lon="1.7538">
        <ele>117</ele>
        <time>2018-10-21T09:59:10Z</time>
      </trkpt>
      <trkpt lat="48.8517" lon="1.75391">
        <ele>117</ele>
        <time>2018-10-21T09:59:17Z</time>
      </trkpt>
      <trkpt lat="48.85176" lon="1.75403">
        <ele>116</ele>
        <time>2018-10-21T09:59:24Z</time>
      </trkpt>
      <trkpt lat="48.85185" lon="1.75413">
        <ele>116</ele>
        <time>2018-10-21T09:59:32Z</time>
      </trkpt>
      <trkpt lat="48.85191" lon="1.75425">
        <ele>115</ele>
        <time>2018-10-21T09:59:39Z</time>
      </trkpt>
      <trkpt lat="48.85196" lon="1.75438">
        <ele>115</ele>
        <time>2018-10-21T09:59:46Z</time>
      </trkpt>
      <trkpt lat="48.85204" lon="1.75449">
        <ele>115</ele>
        <time>2018-10-21T09:59:54Z</time>
      </trkpt>
      <trkpt lat="48.85211" lon="1.75458">
        <ele>115</ele>
        <time>2018-10-21T10:00:00Z</time>
      </trkpt>
      <trkpt lat="48.85218" lon="1.75468">
        <ele>115</ele>
        <time>2018-10-21T10:00:07Z</time>
      </trkpt>
      <trkpt lat="48.85225" lon="1.7548">
        <ele>115</ele>
        <time>2018-10-21T10:00:15Z</time>
      </trkpt>
      <trkpt lat="48.85232" lon="1.75489">
        <ele>115</ele>
        <time>2018-10-21T10:00:23Z</time>
      </trkpt>
      <trkpt lat="48.8524" lon="1.755">
        <ele>115</ele>
        <time>2018-10-21T10:00:31Z</time>
      </trkpt>
      <trkpt lat="48.85247" lon="1.7551">
        <ele>115</ele>
        <time>2018-10-21T10:00:39Z</time>
      </trkpt>
      <trkpt lat="48.85255" lon="1.7552">
        <ele>115</ele>
        <time>2018-10-21T10:00:47Z</time>
      </trkpt>
      <trkpt lat="48.85261" lon="1.75531">
        <ele>115</ele>
        <time>2018-10-21T10:00:55Z</time>
      </trkpt>
      <trkpt lat="48.85269" lon="1.75539">
        <ele>115</ele>
        <time>2018-10-21T10:01:04Z</time>
      </trkpt>
      <trkpt lat="48.85268" lon="1.75554">
        <ele>116</ele>
        <time>2018-10-21T10:01:14Z</time>
      </trkpt>
      <trkpt lat="48.85263" lon="1.75566">
        <ele>117</ele>
        <time>2018-10-21T10:01:21Z</time>
      </trkpt>
      <trkpt lat="48.85258" lon="1.75578">
        <ele>117</ele>
        <time>2018-10-21T10:01:28Z</time>
      </trkpt>
      <trkpt lat="48.85252" lon="1.75591">
        <ele>118</ele>
        <time>2018-10-21T10:01:35Z</time>
      </trkpt>
      <trkpt lat="48.85247" lon="1.75604">
        <ele>119</ele>
        <time>2018-10-21T10:01:43Z</time>
      </trkpt>
      <trkpt lat="48.85241" lon="1.75615">
        <ele>120</ele>
        <time>2018-10-21T10:01:50Z</time>
      </trkpt>
      <trkpt lat="48.85236" lon="1.75626">
        <ele>121</ele>
        <time>2018-10-21T10:01:57Z</time>
      </trkpt>
      <trkpt lat="48.8523" lon="1.75638">
        <ele>121</ele>
        <time>2018-10-21T10:02:06Z</time>
      </trkpt>
      <trkpt lat="48.85225" lon="1.7565">
        <ele>121</ele>
        <time>2018-10-21T10:02:14Z</time>
      </trkpt>
      <trkpt lat="48.8522" lon="1.75662">
        <ele>120</ele>
        <time>2018-10-21T10:02:21Z</time>
      </trkpt>
      <trkpt lat="48.85214" lon="1.75674">
        <ele>119</ele>
        <time>2018-10-21T10:02:29Z</time>
      </trkpt>
      <trkpt lat="48.85208" lon="1.75688">
        <ele>119</ele>
        <time>2018-10-21T10:02:37Z</time>
      </trkpt>
      <trkpt lat="48.85203" lon="1.757">
        <ele>118</ele>
        <time>2018-10-21T10:02:44Z</time>
      </trkpt>
      <trkpt lat="48.85199" lon="1.75714">
        <ele>118</ele>
        <time>2018-10-21T10:02:53Z</time>
      </trkpt>
      <trkpt lat="48.85193" lon="1.75726">
        <ele>118</ele>
        <time>2018-10-21T10:03:00Z</time>
      </trkpt>
      <trkpt lat="48.85187" lon="1.75737">
        <ele>119</ele>
        <time>2018-10-21T10:03:07Z</time>
      </trkpt>
      <trkpt lat="48.85182" lon="1.7575">
        <ele>119</ele>
        <time>2018-10-21T10:03:15Z</time>
      </trkpt>
      <trkpt lat="48.85177" lon="1.75761">
        <ele>119</ele>
        <time>2018-10-21T10:03:22Z</time>
      </trkpt>
      <trkpt lat="48.85172" lon="1.75773">
        <ele>119</ele>
        <time>2018-10-21T10:03:29Z</time>
      </trkpt>
      <trkpt lat="48.85167" lon="1.75784">
        <ele>119</ele>
        <time>2018-10-21T10:03:36Z</time>
      </trkpt>
      <trkpt lat="48.85161" lon="1.75796">
        <ele>120</ele>
        <time>2018-10-21T10:03:43Z</time>
      </trkpt>
      <trkpt lat="48.85156" lon="1.75808">
        <ele>120</ele>
        <time>2018-10-21T10:03:50Z</time>
      </trkpt>
      <trkpt lat="48.8515" lon="1.7582">
        <ele>120</ele>
        <time>2018-10-21T10:03:57Z</time>
      </trkpt>
      <trkpt lat="48.85146" lon="1.75832">
        <ele>121</ele>
        <time>2018-10-21T10:04:06Z</time>
      </trkpt>
      <trkpt lat="48.85141" lon="1.75844">
        <ele>121</ele>
        <time>2018-10-21T10:04:14Z</time>
      </trkpt>
      <trkpt lat="48.85136" lon="1.75856">
        <ele>121</ele>
        <time>2018-10-21T10:04:21Z</time>
      </trkpt>
      <trkpt lat="48.8513" lon="1.75868">
        <ele>121</ele>
        <time>2018-10-21T10:04:28Z</time>
      </trkpt>
      <trkpt lat="48.85125" lon="1.7588">
        <ele>120</ele>
        <time>2018-10-21T10:04:35Z</time>
      </trkpt>
      <trkpt lat="48.8512" lon="1.75892">
        <ele>119</ele>
        <time>2018-10-21T10:04:42Z</time>
      </trkpt>
      <trkpt lat="48.85114" lon="1.75903">
        <ele>119</ele>
        <time>2018-10-21T10:04:49Z</time>
      </trkpt>
      <trkpt lat="48.85109" lon="1.75916">
        <ele>119</ele>
        <time>2018-10-21T10:04:55Z</time>
      </trkpt>
      <trkpt lat="48.85104" lon="1.75928">
        <ele>118</ele>
        <time>2018-10-21T10:05:01Z</time>
      </trkpt>
      <trkpt lat="48.85099" lon="1.75941">
        <ele>118</ele>
        <time>2018-10-21T10:05:08Z</time>
      </trkpt>
      <trkpt lat="48.85092" lon="1.75952">
        <ele>117</ele>
        <time>2018-10-21T10:05:15Z</time>
      </trkpt>
      <trkpt lat="48.85086" lon="1.75965">
        <ele>117</ele>
        <time>2018-10-21T10:05:21Z</time>
      </trkpt>
      <trkpt lat="48.85082" lon="1.75978">
        <ele>117</ele>
        <time>2018-10-21T10:05:28Z</time>
      </trkpt>
      <trkpt lat="48.85078" lon="1.75991">
        <ele>117</ele>
        <time>2018-10-21T10:05:34Z</time>
      </trkpt>
      <trkpt lat="48.85073" lon="1.76004">
        <ele>118</ele>
        <time>2018-10-21T10:05:41Z</time>
      </trkpt>
      <trkpt lat="48.85068" lon="1.76017">
        <ele>118</ele>
        <time>2018-10-21T10:05:48Z</time>
      </trkpt>
      <trkpt lat="48.85062" lon="1.76029">
        <ele>118</ele>
        <time>2018-10-21T10:05:56Z</time>
      </trkpt>
      <trkpt lat="48.85056" lon="1.7604">
        <ele>118</ele>
        <time>2018-10-21T10:06:04Z</time>
      </trkpt>
      <trkpt lat="48.85052" lon="1.76053">
        <ele>118</ele>
        <time>2018-10-21T10:06:13Z</time>
      </trkpt>
      <trkpt lat="48.85046" lon="1.76064">
        <ele>118</ele>
        <time>2018-10-21T10:06:43Z</time>
      </trkpt>
      <trkpt lat="48.8504" lon="1.76077">
        <ele>118</ele>
        <time>2018-10-21T10:06:51Z</time>
      </trkpt>
      <trkpt lat="48.85035" lon="1.76088">
        <ele>119</ele>
        <time>2018-10-21T10:06:58Z</time>
      </trkpt>
      <trkpt lat="48.8503" lon="1.76101">
        <ele>119</ele>
        <time>2018-10-21T10:07:06Z</time>
      </trkpt>
      <trkpt lat="48.85025" lon="1.76113">
        <ele>119</ele>
        <time>2018-10-21T10:07:14Z</time>
      </trkpt>
      <trkpt lat="48.8502" lon="1.76126">
        <ele>119</ele>
        <time>2018-10-21T10:07:22Z</time>
      </trkpt>
      <trkpt lat="48.85016" lon="1.76138">
        <ele>119</ele>
        <time>2018-10-21T10:07:29Z</time>
      </trkpt>
      <trkpt lat="48.85011" lon="1.76151">
        <ele>120</ele>
        <time>2018-10-21T10:07:36Z</time>
      </trkpt>
      <trkpt lat="48.85006" lon="1.76164">
        <ele>119</ele>
        <time>2018-10-21T10:07:44Z</time>
      </trkpt>
      <trkpt lat="48.85002" lon="1.76177">
        <ele>119</ele>
        <time>2018-10-21T10:07:51Z</time>
      </trkpt>
      <trkpt lat="48.84997" lon="1.76189">
        <ele>118</ele>
        <time>2018-10-21T10:07:59Z</time>
      </trkpt>
      <trkpt lat="48.84992" lon="1.76203">
        <ele>118</ele>
        <time>2018-10-21T10:08:07Z</time>
      </trkpt>
      <trkpt lat="48.84987" lon="1.76215">
        <ele>117</ele>
        <time>2018-10-21T10:08:13Z</time>
      </trkpt>
      <trkpt lat="48.84982" lon="1.76227">
        <ele>117</ele>
        <time>2018-10-21T10:08:20Z</time>
      </trkpt>
      <trkpt lat="48.84977" lon="1.76239">
        <ele>117</ele>
        <time>2018-10-21T10:08:27Z</time>
      </trkpt>
      <trkpt lat="48.84972" lon="1.76253">
        <ele>117</ele>
        <time>2018-10-21T10:08:34Z</time>
      </trkpt>
      <trkpt lat="48.84967" lon="1.76266">
        <ele>117</ele>
        <time>2018-10-21T10:08:41Z</time>
      </trkpt>
      <trkpt lat="48.84962" lon="1.76278">
        <ele>117</ele>
        <time>2018-10-21T10:08:48Z</time>
      </trkpt>
      <trkpt lat="48.84957" lon="1.76291">
        <ele>116</ele>
        <time>2018-10-21T10:08:55Z</time>
      </trkpt>
      <trkpt lat="48.84953" lon="1.76303">
        <ele>116</ele>
        <time>2018-10-21T10:09:01Z</time>
      </trkpt>
      <trkpt lat="48.84948" lon="1.76316">
        <ele>115</ele>
        <time>2018-10-21T10:09:08Z</time>
      </trkpt>
      <trkpt lat="48.84944" lon="1.76328">
        <ele>114</ele>
        <time>2018-10-21T10:09:15Z</time>
      </trkpt>
      <trkpt lat="48.84939" lon="1.76342">
        <ele>113</ele>
        <time>2018-10-21T10:09:22Z</time>
      </trkpt>
      <trkpt lat="48.84936" lon="1.76356">
        <ele>113</ele>
        <time>2018-10-21T10:09:30Z</time>
      </trkpt>
      <trkpt lat="48.8493" lon="1.76372">
        <ele>111</ele>
        <time>2018-10-21T10:09:39Z</time>
      </trkpt>
      <trkpt lat="48.84924" lon="1.76383">
        <ele>111</ele>
        <time>2018-10-21T10:09:45Z</time>
      </trkpt>
      <trkpt lat="48.84917" lon="1.76394">
        <ele>112</ele>
        <time>2018-10-21T10:09:53Z</time>
      </trkpt>
      <trkpt lat="48.8491" lon="1.76405">
        <ele>112</ele>
        <time>2018-10-21T10:10:00Z</time>
      </trkpt>
      <trkpt lat="48.84903" lon="1.76415">
        <ele>113</ele>
        <time>2018-10-21T10:10:06Z</time>
      </trkpt>
      <trkpt lat="48.84896" lon="1.76425">
        <ele>113</ele>
        <time>2018-10-21T10:10:13Z</time>
      </trkpt>
      <trkpt lat="48.84888" lon="1.76435">
        <ele>114</ele>
        <time>2018-10-21T10:10:21Z</time>
      </trkpt>
      <trkpt lat="48.84881" lon="1.76446">
        <ele>115</ele>
        <time>2018-10-21T10:10:29Z</time>
      </trkpt>
      <trkpt lat="48.84873" lon="1.76454">
        <ele>115</ele>
        <time>2018-10-21T10:10:36Z</time>
      </trkpt>
      <trkpt lat="48.84866" lon="1.76464">
        <ele>114</ele>
        <time>2018-10-21T10:10:43Z</time>
      </trkpt>
      <trkpt lat="48.84858" lon="1.76474">
        <ele>115</ele>
        <time>2018-10-21T10:10:50Z</time>
      </trkpt>
      <trkpt lat="48.84851" lon="1.76484">
        <ele>115</ele>
        <time>2018-10-21T10:10:58Z</time>
      </trkpt>
      <trkpt lat="48.84843" lon="1.76493">
        <ele>115</ele>
        <time>2018-10-21T10:11:05Z</time>
      </trkpt>
      <trkpt lat="48.84836" lon="1.76502">
        <ele>115</ele>
        <time>2018-10-21T10:11:12Z</time>
      </trkpt>
      <trkpt lat="48.84829" lon="1.76513">
        <ele>115</ele>
        <time>2018-10-21T10:11:19Z</time>
      </trkpt>
      <trkpt lat="48.84822" lon="1.76523">
        <ele>115</ele>
        <time>2018-10-21T10:11:26Z</time>
      </trkpt>
      <trkpt lat="48.84814" lon="1.76532">
        <ele>115</ele>
        <time>2018-10-21T10:11:33Z</time>
      </trkpt>
      <trkpt lat="48.84807" lon="1.76542">
        <ele>115</ele>
        <time>2018-10-21T10:11:40Z</time>
      </trkpt>
      <trkpt lat="48.848" lon="1.76551">
        <ele>115</ele>
        <time>2018-10-21T10:11:47Z</time>
      </trkpt>
      <trkpt lat="48.84792" lon="1.7656">
        <ele>115</ele>
        <time>2018-10-21T10:11:54Z</time>
      </trkpt>
      <trkpt lat="48.84786" lon="1.7657">
        <ele>115</ele>
        <time>2018-10-21T10:12:00Z</time>
      </trkpt>
      <trkpt lat="48.84779" lon="1.76579">
        <ele>115</ele>
        <time>2018-10-21T10:12:07Z</time>
      </trkpt>
      <trkpt lat="48.84772" lon="1.76589">
        <ele>115</ele>
        <time>2018-10-21T10:12:14Z</time>
      </trkpt>
      <trkpt lat="48.84764" lon="1.76599">
        <ele>115</ele>
        <time>2018-10-21T10:12:21Z</time>
      </trkpt>
      <trkpt lat="48.84757" lon="1.76609">
        <ele>115</ele>
        <time>2018-10-21T10:12:28Z</time>
      </trkpt>
      <trkpt lat="48.84749" lon="1.76618">
        <ele>114</ele>
        <time>2018-10-21T10:12:35Z</time>
      </trkpt>
      <trkpt lat="48.84742" lon="1.76627">
        <ele>114</ele>
        <time>2018-10-21T10:12:43Z</time>
      </trkpt>
      <trkpt lat="48.84734" lon="1.76635">
        <ele>115</ele>
        <time>2018-10-21T10:13:15Z</time>
      </trkpt>
      <trkpt lat="48.8473" lon="1.76647">
        <ele>115</ele>
        <time>2018-10-21T10:14:15Z</time>
      </trkpt>
      <trkpt lat="48.84726" lon="1.76661">
        <ele>116</ele>
        <time>2018-10-21T10:14:25Z</time>
      </trkpt>
      <trkpt lat="48.84719" lon="1.76673">
        <ele>115</ele>
        <time>2018-10-21T10:14:32Z</time>
      </trkpt>
      <trkpt lat="48.84713" lon="1.76683">
        <ele>115</ele>
        <time>2018-10-21T10:14:39Z</time>
      </trkpt>
      <trkpt lat="48.84707" lon="1.76694">
        <ele>115</ele>
        <time>2018-10-21T10:14:45Z</time>
      </trkpt>
      <trkpt lat="48.84701" lon="1.76705">
        <ele>114</ele>
        <time>2018-10-21T10:14:52Z</time>
      </trkpt>
      <trkpt lat="48.84695" lon="1.76715">
        <ele>114</ele>
        <time>2018-10-21T10:14:59Z</time>
      </trkpt>
      <trkpt lat="48.8469" lon="1.76729">
        <ele>114</ele>
        <time>2018-10-21T10:15:06Z</time>
      </trkpt>
      <trkpt lat="48.84684" lon="1.76741">
        <ele>114</ele>
        <time>2018-10-21T10:15:13Z</time>
      </trkpt>
      <trkpt lat="48.8468" lon="1.76753">
        <ele>114</ele>
        <time>2018-10-21T10:15:20Z</time>
      </trkpt>
      <trkpt lat="48.84675" lon="1.76765">
        <ele>114</ele>
        <time>2018-10-21T10:15:27Z</time>
      </trkpt>
      <trkpt lat="48.8467" lon="1.76779">
        <ele>114</ele>
        <time>2018-10-21T10:15:35Z</time>
      </trkpt>
      <trkpt lat="48.84667" lon="1.76792">
        <ele>114</ele>
        <time>2018-10-21T10:15:42Z</time>
      </trkpt>
      <trkpt lat="48.84663" lon="1.76806">
        <ele>114</ele>
        <time>2018-10-21T10:15:49Z</time>
      </trkpt>
      <trkpt lat="48.84659" lon="1.76821">
        <ele>114</ele>
        <time>2018-10-21T10:15:56Z</time>
      </trkpt>
      <trkpt lat="48.84658" lon="1.76836">
        <ele>114</ele>
        <time>2018-10-21T10:16:03Z</time>
      </trkpt>
      <trkpt lat="48.84659" lon="1.7685">
        <ele>115</ele>
        <time>2018-10-21T10:16:10Z</time>
      </trkpt>
      <trkpt lat="48.84662" lon="1.76864">
        <ele>115</ele>
        <time>2018-10-21T10:16:16Z</time>
      </trkpt>
      <trkpt lat="48.84665" lon="1.76878">
        <ele>115</ele>
        <time>2018-10-21T10:16:23Z</time>
      </trkpt>
      <trkpt lat="48.84668" lon="1.76893">
        <ele>114</ele>
        <time>2018-10-21T10:16:31Z</time>
      </trkpt>
      <trkpt lat="48.84668" lon="1.76908">
        <ele>114</ele>
        <time>2018-10-21T10:16:38Z</time>
      </trkpt>
      <trkpt lat="48.84668" lon="1.76921">
        <ele>114</ele>
        <time>2018-10-21T10:16:44Z</time>
      </trkpt>
      <trkpt lat="48.84666" lon="1.76936">
        <ele>114</ele>
        <time>2018-10-21T10:16:51Z</time>
      </trkpt>
      <trkpt lat="48.84663" lon="1.7695">
        <ele>114</ele>
        <time>2018-10-21T10:16:58Z</time>
      </trkpt>
      <trkpt lat="48.84661" lon="1.76965">
        <ele>114</ele>
        <time>2018-10-21T10:17:05Z</time>
      </trkpt>
      <trkpt lat="48.84657" lon="1.76979">
        <ele>114</ele>
        <time>2018-10-21T10:17:12Z</time>
      </trkpt>
      <trkpt lat="48.84653" lon="1.76994">
        <ele>115</ele>
        <time>2018-10-21T10:17:19Z</time>
      </trkpt>
      <trkpt lat="48.84648" lon="1.77007">
        <ele>115</ele>
        <time>2018-10-21T10:17:26Z</time>
      </trkpt>
      <trkpt lat="48.84643" lon="1.77021">
        <ele>116</ele>
        <time>2018-10-21T10:17:33Z</time>
      </trkpt>
      <trkpt lat="48.84637" lon="1.77032">
        <ele>116</ele>
        <time>2018-10-21T10:17:40Z</time>
      </trkpt>
      <trkpt lat="48.84631" lon="1.77045">
        <ele>116</ele>
        <time>2018-10-21T10:17:47Z</time>
      </trkpt>
      <trkpt lat="48.84626" lon="1.77057">
        <ele>116</ele>
        <time>2018-10-21T10:17:54Z</time>
      </trkpt>
      <trkpt lat="48.8462" lon="1.77068">
        <ele>116</ele>
        <time>2018-10-21T10:18:00Z</time>
      </trkpt>
      <trkpt lat="48.84615" lon="1.7708">
        <ele>116</ele>
        <time>2018-10-21T10:18:07Z</time>
      </trkpt>
      <trkpt lat="48.84608" lon="1.77092">
        <ele>116</ele>
        <time>2018-10-21T10:18:14Z</time>
      </trkpt>
      <trkpt lat="48.84601" lon="1.77101">
        <ele>116</ele>
        <time>2018-10-21T10:18:22Z</time>
      </trkpt>
      <trkpt lat="48.84594" lon="1.77111">
        <ele>115</ele>
        <time>2018-10-21T10:18:29Z</time>
      </trkpt>
      <trkpt lat="48.84588" lon="1.77121">
        <ele>114</ele>
        <time>2018-10-21T10:18:36Z</time>
      </trkpt>
      <trkpt lat="48.84581" lon="1.77131">
        <ele>114</ele>
        <time>2018-10-21T10:18:43Z</time>
      </trkpt>
      <trkpt lat="48.84575" lon="1.77142">
        <ele>113</ele>
        <time>2018-10-21T10:18:49Z</time>
      </trkpt>
      <trkpt lat="48.84569" lon="1.77153">
        <ele>113</ele>
        <time>2018-10-21T10:18:55Z</time>
      </trkpt>
      <trkpt lat="48.84562" lon="1.77164">
        <ele>113</ele>
        <time>2018-10-21T10:19:02Z</time>
      </trkpt>
      <trkpt lat="48.84555" lon="1.77173">
        <ele>112</ele>
        <time>2018-10-21T10:19:09Z</time>
      </trkpt>
      <trkpt lat="48.84548" lon="1.77184">
        <ele>112</ele>
        <time>2018-10-21T10:19:16Z</time>
      </trkpt>
      <trkpt lat="48.84542" lon="1.77195">
        <ele>111</ele>
        <time>2018-10-21T10:19:23Z</time>
      </trkpt>
      <trkpt lat="48.84536" lon="1.77207">
        <ele>111</ele>
        <time>2018-10-21T10:19:30Z</time>
      </trkpt>
      <trkpt lat="48.84529" lon="1.77217">
        <ele>111</ele>
        <time>2018-10-21T10:19:37Z</time>
      </trkpt>
      <trkpt lat="48.84522" lon="1.77227">
        <ele>110</ele>
        <time>2018-10-21T10:19:45Z</time>
      </trkpt>
      <trkpt lat="48.84516" lon="1.77239">
        <ele>109</ele>
        <time>2018-10-21T10:19:53Z</time>
      </trkpt>
      <trkpt lat="48.8451" lon="1.77249">
        <ele>108</ele>
        <time>2018-10-21T10:20:00Z</time>
      </trkpt>
      <trkpt lat="48.84503" lon="1.7726">
        <ele>108</ele>
        <time>2018-10-21T10:20:06Z</time>
      </trkpt>
      <trkpt lat="48.84497" lon="1.77272">
        <ele>107</ele>
        <time>2018-10-21T10:20:13Z</time>
      </trkpt>
      <trkpt lat="48.8449" lon="1.77283">
        <ele>107</ele>
        <time>2018-10-21T10:20:19Z</time>
      </trkpt>
      <trkpt lat="48.84484" lon="1.77294">
        <ele>107</ele>
        <time>2018-10-21T10:20:26Z</time>
      </trkpt>
      <trkpt lat="48.84478" lon="1.77305">
        <ele>107</ele>
        <time>2018-10-21T10:20:32Z</time>
      </trkpt>
      <trkpt lat="48.84471" lon="1.77317">
        <ele>107</ele>
        <time>2018-10-21T10:20:39Z</time>
      </trkpt>
      <trkpt lat="48.84466" lon="1.77329">
        <ele>107</ele>
        <time>2018-10-21T10:20:46Z</time>
      </trkpt>
      <trkpt lat="48.84459" lon="1.77339">
        <ele>106</ele>
        <time>2018-10-21T10:20:54Z</time>
      </trkpt>
      <trkpt lat="48.84454" lon="1.77352">
        <ele>106</ele>
        <time>2018-10-21T10:21:00Z</time>
      </trkpt>
      <trkpt lat="48.84449" lon="1.77363">
        <ele>106</ele>
        <time>2018-10-21T10:21:07Z</time>
      </trkpt>
      <trkpt lat="48.84443" lon="1.77375">
        <ele>106</ele>
        <time>2018-10-21T10:21:15Z</time>
      </trkpt>
      <trkpt lat="48.84437" lon="1.77387">
        <ele>106</ele>
        <time>2018-10-21T10:21:22Z</time>
      </trkpt>
      <trkpt lat="48.84431" lon="1.77398">
        <ele>106</ele>
        <time>2018-10-21T10:21:29Z</time>
      </trkpt>
      <trkpt lat="48.84427" lon="1.7741">
        <ele>106</ele>
        <time>2018-10-21T10:21:36Z</time>
      </trkpt>
      <trkpt lat="48.84421" lon="1.77423">
        <ele>105</ele>
        <time>2018-10-21T10:21:43Z</time>
      </trkpt>
      <trkpt lat="48.84418" lon="1.77437">
        <ele>105</ele>
        <time>2018-10-21T10:21:52Z</time>
      </trkpt>
      <trkpt lat="48.84417" lon="1.77451">
        <ele>104</ele>
        <time>2018-10-21T10:21:58Z</time>
      </trkpt>
      <trkpt lat="48.84414" lon="1.77464">
        <ele>104</ele>
        <time>2018-10-21T10:22:06Z</time>
      </trkpt>
      <trkpt lat="48.8441" lon="1.77477">
        <ele>104</ele>
        <time>2018-10-21T10:22:14Z</time>
      </trkpt>
      <trkpt lat="48.84407" lon="1.77492">
        <ele>104</ele>
        <time>2018-10-21T10:22:22Z</time>
      </trkpt>
      <trkpt lat="48.84404" lon="1.77506">
        <ele>103</ele>
        <time>2018-10-21T10:22:29Z</time>
      </trkpt>
      <trkpt lat="48.84401" lon="1.77519">
        <ele>103</ele>
        <time>2018-10-21T10:22:37Z</time>
      </trkpt>
      <trkpt lat="48.84399" lon="1.77534">
        <ele>103</ele>
        <time>2018-10-21T10:22:46Z</time>
      </trkpt>
      <trkpt lat="48.84398" lon="1.77549">
        <ele>104</ele>
        <time>2018-10-21T10:22:53Z</time>
      </trkpt>
      <trkpt lat="48.84396" lon="1.77564">
        <ele>104</ele>
        <time>2018-10-21T10:23:02Z</time>
      </trkpt>
      <trkpt lat="48.84394" lon="1.77578">
        <ele>105</ele>
        <time>2018-10-21T10:23:10Z</time>
      </trkpt>
      <trkpt lat="48.84399" lon="1.77591">
        <ele>105</ele>
        <time>2018-10-21T10:23:18Z</time>
      </trkpt>
      <trkpt lat="48.84407" lon="1.77598">
        <ele>106</ele>
        <time>2018-10-21T10:23:25Z</time>
      </trkpt>
      <trkpt lat="48.84416" lon="1.77604">
        <ele>106</ele>
        <time>2018-10-21T10:23:31Z</time>
      </trkpt>
      <trkpt lat="48.84425" lon="1.77611">
        <ele>107</ele>
        <time>2018-10-21T10:23:37Z</time>
      </trkpt>
      <trkpt lat="48.84434" lon="1.77617">
        <ele>108</ele>
        <time>2018-10-21T10:23:46Z</time>
      </trkpt>
      <trkpt lat="48.84442" lon="1.77623">
        <ele>109</ele>
        <time>2018-10-21T10:23:54Z</time>
      </trkpt>
      <trkpt lat="48.84451" lon="1.7763">
        <ele>109</ele>
        <time>2018-10-21T10:24:02Z</time>
      </trkpt>
      <trkpt lat="48.84459" lon="1.77637">
        <ele>109</ele>
        <time>2018-10-21T10:24:09Z</time>
      </trkpt>
      <trkpt lat="48.84468" lon="1.77643">
        <ele>109</ele>
        <time>2018-10-21T10:24:17Z</time>
      </trkpt>
      <trkpt lat="48.84476" lon="1.77649">
        <ele>109</ele>
        <time>2018-10-21T10:24:24Z</time>
      </trkpt>
      <trkpt lat="48.84485" lon="1.77656">
        <ele>109</ele>
        <time>2018-10-21T10:24:31Z</time>
      </trkpt>
      <trkpt lat="48.84495" lon="1.77661">
        <ele>109</ele>
        <time>2018-10-21T10:24:37Z</time>
      </trkpt>
      <trkpt lat="48.84505" lon="1.77668">
        <ele>110</ele>
        <time>2018-10-21T10:24:44Z</time>
      </trkpt>
      <trkpt lat="48.84513" lon="1.77674">
        <ele>110</ele>
        <time>2018-10-21T10:24:51Z</time>
      </trkpt>
      <trkpt lat="48.84522" lon="1.7768">
        <ele>111</ele>
        <time>2018-10-21T10:24:59Z</time>
      </trkpt>
      <trkpt lat="48.8453" lon="1.77686">
        <ele>110</ele>
        <time>2018-10-21T10:25:05Z</time>
      </trkpt>
      <trkpt lat="48.8454" lon="1.77692">
        <ele>110</ele>
        <time>2018-10-21T10:25:11Z</time>
      </trkpt>
      <trkpt lat="48.84549" lon="1.77697">
        <ele>110</ele>
        <time>2018-10-21T10:25:17Z</time>
      </trkpt>
      <trkpt lat="48.84558" lon="1.77699">
        <ele>110</ele>
        <time>2018-10-21T10:25:24Z</time>
      </trkpt>
      <trkpt lat="48.84568" lon="1.77701">
        <ele>110</ele>
        <time>2018-10-21T10:25:34Z</time>
      </trkpt>
      <trkpt lat="48.84577" lon="1.77705">
        <ele>110</ele>
        <time>2018-10-21T10:25:43Z</time>
      </trkpt>
      <trkpt lat="48.84587" lon="1.77709">
        <ele>110</ele>
        <time>2018-10-21T10:25:51Z</time>
      </trkpt>
      <trkpt lat="48.84596" lon="1.77712">
        <ele>110</ele>
        <time>2018-10-21T10:25:58Z</time>
      </trkpt>
      <trkpt lat="48.84606" lon="1.77713">
        <ele>109</ele>
        <time>2018-10-21T10:26:06Z</time>
      </trkpt>
      <trkpt lat="48.84616" lon="1.77718">
        <ele>109</ele>
        <time>2018-10-21T10:26:14Z</time>
      </trkpt>
      <trkpt lat="48.84626" lon="1.77721">
        <ele>109</ele>
        <time>2018-10-21T10:26:22Z</time>
      </trkpt>
      <trkpt lat="48.84636" lon="1.77724">
        <ele>108</ele>
        <time>2018-10-21T10:26:29Z</time>
      </trkpt>
      <trkpt lat="48.84645" lon="1.77728">
        <ele>107</ele>
        <time>2018-10-21T10:26:37Z</time>
      </trkpt>
      <trkpt lat="48.84654" lon="1.7773">
        <ele>107</ele>
        <time>2018-10-21T10:26:44Z</time>
      </trkpt>
      <trkpt lat="48.84664" lon="1.77733">
        <ele>107</ele>
        <time>2018-10-21T10:26:50Z</time>
      </trkpt>
      <trkpt lat="48.84674" lon="1.77735">
        <ele>107</ele>
        <time>2018-10-21T10:26:57Z</time>
      </trkpt>
      <trkpt lat="48.84683" lon="1.77739">
        <ele>108</ele>
        <time>2018-10-21T10:27:04Z</time>
      </trkpt>
      <trkpt lat="48.84692" lon="1.77742">
        <ele>108</ele>
        <time>2018-10-21T10:27:10Z</time>
      </trkpt>
      <trkpt lat="48.84702" lon="1.77744">
        <ele>108</ele>
        <time>2018-10-21T10:27:16Z</time>
      </trkpt>
      <trkpt lat="48.84711" lon="1.77746">
        <ele>109</ele>
        <time>2018-10-21T10:27:24Z</time>
      </trkpt>
      <trkpt lat="48.84721" lon="1.77749">
        <ele>109</ele>
        <time>2018-10-21T10:27:31Z</time>
      </trkpt>
      <trkpt lat="48.8473" lon="1.77753">
        <ele>109</ele>
        <time>2018-10-21T10:27:37Z</time>
      </trkpt>
      <trkpt lat="48.84739" lon="1.77757">
        <ele>110</ele>
        <time>2018-10-21T10:27:44Z</time>
      </trkpt>
      <trkpt lat="48.84749" lon="1.77762">
        <ele>110</ele>
        <time>2018-10-21T10:27:52Z</time>
      </trkpt>
      <trkpt lat="48.84754" lon="1.77773">
        <ele>111</ele>
        <time>2018-10-21T10:28:03Z</time>
      </trkpt>
      <trkpt lat="48.84763" lon="1.77778">
        <ele>110</ele>
        <time>2018-10-21T10:28:39Z</time>
      </trkpt>
      <trkpt lat="48.84769" lon="1.77789">
        <ele>110</ele>
        <time>2018-10-21T10:29:29Z</time>
      </trkpt>
      <trkpt lat="48.84773" lon="1.77801">
        <ele>110</ele>
        <time>2018-10-21T10:29:37Z</time>
      </trkpt>
      <trkpt lat="48.84779" lon="1.77813">
        <ele>111</ele>
        <time>2018-10-21T10:29:45Z</time>
      </trkpt>
      <trkpt lat="48.84783" lon="1.77826">
        <ele>111</ele>
        <time>2018-10-21T10:29:53Z</time>
      </trkpt>
      <trkpt lat="48.84789" lon="1.77839">
        <ele>111</ele>
        <time>2018-10-21T10:30:02Z</time>
      </trkpt>
      <trkpt lat="48.84792" lon="1.77853">
        <ele>111</ele>
        <time>2018-10-21T10:30:09Z</time>
      </trkpt>
      <trkpt lat="48.84796" lon="1.77866">
        <ele>112</ele>
        <time>2018-10-21T10:30:16Z</time>
      </trkpt>
      <trkpt lat="48.848" lon="1.7788">
        <ele>113</ele>
        <time>2018-10-21T10:30:23Z</time>
      </trkpt>
      <trkpt lat="48.84806" lon="1.77891">
        <ele>113</ele>
        <time>2018-10-21T10:30:30Z</time>
      </trkpt>
      <trkpt lat="48.84811" lon="1.77903">
        <ele>114</ele>
        <time>2018-10-21T10:30:37Z</time>
      </trkpt>
      <trkpt lat="48.84814" lon="1.77915">
        <ele>114</ele>
        <time>2018-10-21T10:30:44Z</time>
      </trkpt>
      <trkpt lat="48.84818" lon="1.77928">
        <ele>114</ele>
        <time>2018-10-21T10:30:51Z</time>
      </trkpt>
      <trkpt lat="48.84821" lon="1.77942">
        <ele>114</ele>
        <time>2018-10-21T10:30:58Z</time>
      </trkpt>
      <trkpt lat="48.84825" lon="1.77955">
        <ele>113</ele>
        <time>2018-10-21T10:31:06Z</time>
      </trkpt>
      <trkpt lat="48.84834" lon="1.77963">
        <ele>113</ele>
        <time>2018-10-21T10:31:12Z</time>
      </trkpt>
      <trkpt lat="48.84842" lon="1.77972">
        <ele>112</ele>
        <time>2018-10-21T10:31:20Z</time>
      </trkpt>
      <trkpt lat="48.84849" lon="1.77982">
        <ele>111</ele>
        <time>2018-10-21T10:31:30Z</time>
      </trkpt>
      <trkpt lat="48.84857" lon="1.77991">
        <ele>111</ele>
        <time>2018-10-21T10:31:37Z</time>
      </trkpt>
      <trkpt lat="48.84865" lon="1.77998">
        <ele>110</ele>
        <time>2018-10-21T10:31:44Z</time>
      </trkpt>
      <trkpt lat="48.84873" lon="1.78006">
        <ele>111</ele>
        <time>2018-10-21T10:31:51Z</time>
      </trkpt>
      <trkpt lat="48.84881" lon="1.78013">
        <ele>111</ele>
        <time>2018-10-21T10:31:57Z</time>
      </trkpt>
      <trkpt lat="48.84888" lon="1.78022">
        <ele>111</ele>
        <time>2018-10-21T10:32:05Z</time>
      </trkpt>
      <trkpt lat="48.84895" lon="1.78032">
        <ele>110</ele>
        <time>2018-10-21T10:32:15Z</time>
      </trkpt>
      <trkpt lat="48.84903" lon="1.78041">
        <ele>110</ele>
        <time>2018-10-21T10:32:22Z</time>
      </trkpt>
      <trkpt lat="48.84909" lon="1.78052">
        <ele>110</ele>
        <time>2018-10-21T10:32:29Z</time>
      </trkpt>
      <trkpt lat="48.84914" lon="1.78063">
        <ele>109</ele>
        <time>2018-10-21T10:32:39Z</time>
      </trkpt>
      <trkpt lat="48.84916" lon="1.78077">
        <ele>111</ele>
        <time>2018-10-21T10:32:49Z</time>
      </trkpt>
      <trkpt lat="48.84919" lon="1.78091">
        <ele>111</ele>
        <time>2018-10-21T10:32:55Z</time>
      </trkpt>
      <trkpt lat="48.84927" lon="1.78103">
        <ele>112</ele>
        <time>2018-10-21T10:33:02Z</time>
      </trkpt>
      <trkpt lat="48.84934" lon="1.78113">
        <ele>112</ele>
        <time>2018-10-21T10:33:09Z</time>
      </trkpt>
      <trkpt lat="48.84941" lon="1.78122">
        <ele>113</ele>
        <time>2018-10-21T10:33:17Z</time>
      </trkpt>
      <trkpt lat="48.84949" lon="1.78131">
        <ele>113</ele>
        <time>2018-10-21T10:33:23Z</time>
      </trkpt>
      <trkpt lat="48.84956" lon="1.78139">
        <ele>113</ele>
        <time>2018-10-21T10:33:39Z</time>
      </trkpt>
      <trkpt lat="48.84964" lon="1.78145">
        <ele>112</ele>
        <time>2018-10-21T10:33:52Z</time>
      </trkpt>
      <trkpt lat="48.84969" lon="1.78158">
        <ele>112</ele>
        <time>2018-10-21T10:34:00Z</time>
      </trkpt>
      <trkpt lat="48.84968" lon="1.78172">
        <ele>112</ele>
        <time>2018-10-21T10:34:09Z</time>
      </trkpt>
      <trkpt lat="48.84964" lon="1.78185">
        <ele>112</ele>
        <time>2018-10-21T10:34:19Z</time>
      </trkpt>
      <trkpt lat="48.84958" lon="1.78196">
        <ele>111</ele>
        <time>2018-10-21T10:34:27Z</time>
      </trkpt>
      <trkpt lat="48.84953" lon="1.78208">
        <ele>111</ele>
        <time>2018-10-21T10:34:33Z</time>
      </trkpt>
      <trkpt lat="48.84949" lon="1.7822">
        <ele>111</ele>
        <time>2018-10-21T10:34:39Z</time>
      </trkpt>
      <trkpt lat="48.84944" lon="1.78232">
        <ele>111</ele>
        <time>2018-10-21T10:34:48Z</time>
      </trkpt>
      <trkpt lat="48.84941" lon="1.78248">
        <ele>111</ele>
        <time>2018-10-21T10:34:56Z</time>
      </trkpt>
      <trkpt lat="48.84937" lon="1.78261">
        <ele>111</ele>
        <time>2018-10-21T10:35:03Z</time>
      </trkpt>
      <trkpt lat="48.84933" lon="1.78274">
        <ele>111</ele>
        <time>2018-10-21T10:35:10Z</time>
      </trkpt>
      <trkpt lat="48.84931" lon="1.78288">
        <ele>111</ele>
        <time>2018-10-21T10:35:18Z</time>
      </trkpt>
      <trkpt lat="48.84927" lon="1.78303">
        <ele>111</ele>
        <time>2018-10-21T10:35:25Z</time>
      </trkpt>
      <trkpt lat="48.84926" lon="1.78318">
        <ele>111</ele>
        <time>2018-10-21T10:35:31Z</time>
      </trkpt>
      <trkpt lat="48.84923" lon="1.78332">
        <ele>112</ele>
        <time>2018-10-21T10:35:39Z</time>
      </trkpt>
      <trkpt lat="48.84918" lon="1.78344">
        <ele>112</ele>
        <time>2018-10-21T10:35:48Z</time>
      </trkpt>
      <trkpt lat="48.84915" lon="1.78359">
        <ele>112</ele>
        <time>2018-10-21T10:35:56Z</time>
      </trkpt>
      <trkpt lat="48.84909" lon="1.78373">
        <ele>111</ele>
        <time>2018-10-21T10:36:04Z</time>
      </trkpt>
      <trkpt lat="48.84905" lon="1.78385">
        <ele>110</ele>
        <time>2018-10-21T10:36:11Z</time>
      </trkpt>
      <trkpt lat="48.84899" lon="1.78396">
        <ele>110</ele>
        <time>2018-10-21T10:36:17Z</time>
      </trkpt>
      <trkpt lat="48.84893" lon="1.78408">
        <ele>109</ele>
        <time>2018-10-21T10:36:25Z</time>
      </trkpt>
      <trkpt lat="48.84888" lon="1.78421">
        <ele>109</ele>
        <time>2018-10-21T10:36:34Z</time>
      </trkpt>
      <trkpt lat="48.84891" lon="1.78435">
        <ele>109</ele>
        <time>2018-10-21T10:36:42Z</time>
      </trkpt>
      <trkpt lat="48.84899" lon="1.78443">
        <ele>109</ele>
        <time>2018-10-21T10:36:50Z</time>
      </trkpt>
      <trkpt lat="48.84906" lon="1.78451">
        <ele>109</ele>
        <time>2018-10-21T10:36:58Z</time>
      </trkpt>
      <trkpt lat="48.84916" lon="1.78458">
        <ele>110</ele>
        <time>2018-10-21T10:37:05Z</time>
      </trkpt>
      <trkpt lat="48.84925" lon="1.78462">
        <ele>111</ele>
        <time>2018-10-21T10:37:14Z</time>
      </trkpt>
      <trkpt lat="48.84934" lon="1.78468">
        <ele>111</ele>
        <time>2018-10-21T10:37:23Z</time>
      </trkpt>
      <trkpt lat="48.84942" lon="1.78477">
        <ele>111</ele>
        <time>2018-10-21T10:37:31Z</time>
      </trkpt>
      <trkpt lat="48.84952" lon="1.78483">
        <ele>111</ele>
        <time>2018-10-21T10:37:38Z</time>
      </trkpt>
      <trkpt lat="48.8496" lon="1.78489">
        <ele>111</ele>
        <time>2018-10-21T10:37:44Z</time>
      </trkpt>
      <trkpt lat="48.84969" lon="1.78496">
        <ele>111</ele>
        <time>2018-10-21T10:37:52Z</time>
      </trkpt>
      <trkpt lat="48.84978" lon="1.78502">
        <ele>111</ele>
        <time>2018-10-21T10:37:58Z</time>
      </trkpt>
      <trkpt lat="48.84987" lon="1.78502">
        <ele>111</ele>
        <time>2018-10-21T10:38:04Z</time>
      </trkpt>
      <trkpt lat="48.84996" lon="1.7851">
        <ele>110</ele>
        <time>2018-10-21T10:38:14Z</time>
      </trkpt>
      <trkpt lat="48.85004" lon="1.78516">
        <ele>110</ele>
        <time>2018-10-21T10:38:19Z</time>
      </trkpt>
      <trkpt lat="48.85012" lon="1.78524">
        <ele>111</ele>
        <time>2018-10-21T10:38:28Z</time>
      </trkpt>
      <trkpt lat="48.8502" lon="1.7853">
        <ele>111</ele>
        <time>2018-10-21T10:38:36Z</time>
      </trkpt>
      <trkpt lat="48.85029" lon="1.78536">
        <ele>111</ele>
        <time>2018-10-21T10:38:43Z</time>
      </trkpt>
      <trkpt lat="48.85038" lon="1.78542">
        <ele>112</ele>
        <time>2018-10-21T10:38:51Z</time>
      </trkpt>
      <trkpt lat="48.85046" lon="1.78548">
        <ele>112</ele>
        <time>2018-10-21T10:38:58Z</time>
      </trkpt>
      <trkpt lat="48.85056" lon="1.78553">
        <ele>112</ele>
        <time>2018-10-21T10:39:04Z</time>
      </trkpt>
      <trkpt lat="48.85065" lon="1.7856">
        <ele>113</ele>
        <time>2018-10-21T10:39:14Z</time>
      </trkpt>
      <trkpt lat="48.85074" lon="1.78565">
        <ele>112</ele>
        <time>2018-10-21T10:39:25Z</time>
      </trkpt>
      <trkpt lat="48.85082" lon="1.78571">
        <ele>111</ele>
        <time>2018-10-21T10:39:36Z</time>
      </trkpt>
      <trkpt lat="48.85094" lon="1.78579">
        <ele>111</ele>
        <time>2018-10-21T10:39:41Z</time>
      </trkpt>
      <trkpt lat="48.85102" lon="1.78586">
        <ele>111</ele>
        <time>2018-10-21T10:39:48Z</time>
      </trkpt>
      <trkpt lat="48.8511" lon="1.78594">
        <ele>112</ele>
        <time>2018-10-21T10:39:56Z</time>
      </trkpt>
      <trkpt lat="48.85117" lon="1.78605">
        <ele>113</ele>
        <time>2018-10-21T10:40:04Z</time>
      </trkpt>
      <trkpt lat="48.85126" lon="1.78611">
        <ele>113</ele>
        <time>2018-10-21T10:40:11Z</time>
      </trkpt>
      <trkpt lat="48.85135" lon="1.78616">
        <ele>113</ele>
        <time>2018-10-21T10:40:19Z</time>
      </trkpt>
      <trkpt lat="48.85145" lon="1.78618">
        <ele>113</ele>
        <time>2018-10-21T10:40:26Z</time>
      </trkpt>
      <trkpt lat="48.85154" lon="1.78617">
        <ele>114</ele>
        <time>2018-10-21T10:40:33Z</time>
      </trkpt>
      <trkpt lat="48.8516" lon="1.78607">
        <ele>114</ele>
        <time>2018-10-21T10:40:42Z</time>
      </trkpt>
      <trkpt lat="48.85165" lon="1.78593">
        <ele>115</ele>
        <time>2018-10-21T10:40:50Z</time>
      </trkpt>
      <trkpt lat="48.85169" lon="1.7858">
        <ele>115</ele>
        <time>2018-10-21T10:40:56Z</time>
      </trkpt>
      <trkpt lat="48.85173" lon="1.78565">
        <ele>116</ele>
        <time>2018-10-21T10:41:04Z</time>
      </trkpt>
      <trkpt lat="48.85179" lon="1.78553">
        <ele>116</ele>
        <time>2018-10-21T10:41:10Z</time>
      </trkpt>
      <trkpt lat="48.85184" lon="1.78539">
        <ele>117</ele>
        <time>2018-10-21T10:41:17Z</time>
      </trkpt>
      <trkpt lat="48.85189" lon="1.78528">
        <ele>117</ele>
        <time>2018-10-21T10:41:23Z</time>
      </trkpt>
      <trkpt lat="48.85192" lon="1.78515">
        <ele>117</ele>
        <time>2018-10-21T10:41:40Z</time>
      </trkpt>
      <trkpt lat="48.85197" lon="1.78503">
        <ele>116</ele>
        <time>2018-10-21T10:41:48Z</time>
      </trkpt>
      <trkpt lat="48.85202" lon="1.78489">
        <ele>116</ele>
        <time>2018-10-21T10:41:55Z</time>
      </trkpt>
      <trkpt lat="48.85207" lon="1.78477">
        <ele>116</ele>
        <time>2018-10-21T10:42:02Z</time>
      </trkpt>
      <trkpt lat="48.85211" lon="1.78465">
        <ele>115</ele>
        <time>2018-10-21T10:42:12Z</time>
      </trkpt>
      <trkpt lat="48.85215" lon="1.78451">
        <ele>114</ele>
        <time>2018-10-21T10:42:20Z</time>
      </trkpt>
      <trkpt lat="48.85223" lon="1.78443">
        <ele>112</ele>
        <time>2018-10-21T10:42:31Z</time>
      </trkpt>
      <trkpt lat="48.85225" lon="1.78429">
        <ele>109</ele>
        <time>2018-10-21T10:42:39Z</time>
      </trkpt>
      <trkpt lat="48.85227" lon="1.78416">
        <ele>108</ele>
        <time>2018-10-21T10:42:44Z</time>
      </trkpt>
      <trkpt lat="48.85229" lon="1.78402">
        <ele>107</ele>
        <time>2018-10-21T10:42:50Z</time>
      </trkpt>
      <trkpt lat="48.85233" lon="1.7839">
        <ele>106</ele>
        <time>2018-10-21T10:42:57Z</time>
      </trkpt>
      <trkpt lat="48.85238" lon="1.78378">
        <ele>104</ele>
        <time>2018-10-21T10:43:05Z</time>
      </trkpt>
      <trkpt lat="48.85241" lon="1.78364">
        <ele>103</ele>
        <time>2018-10-21T10:43:12Z</time>
      </trkpt>
      <trkpt lat="48.85244" lon="1.7835">
        <ele>103</ele>
        <time>2018-10-21T10:43:19Z</time>
      </trkpt>
      <trkpt lat="48.85247" lon="1.78337">
        <ele>103</ele>
        <time>2018-10-21T10:43:25Z</time>
      </trkpt>
      <trkpt lat="48.85252" lon="1.78325">
        <ele>103</ele>
        <time>2018-10-21T10:43:33Z</time>
      </trkpt>
      <trkpt lat="48.85257" lon="1.78311">
        <ele>103</ele>
        <time>2018-10-21T10:43:40Z</time>
      </trkpt>
      <trkpt lat="48.85264" lon="1.78302">
        <ele>104</ele>
        <time>2018-10-21T10:43:48Z</time>
      </trkpt>
      <trkpt lat="48.85274" lon="1.78305">
        <ele>106</ele>
        <time>2018-10-21T10:43:57Z</time>
      </trkpt>
      <trkpt lat="48.85282" lon="1.78311">
        <ele>107</ele>
        <time>2018-10-21T10:44:06Z</time>
      </trkpt>
      <trkpt lat="48.85291" lon="1.78312">
        <ele>108</ele>
        <time>2018-10-21T10:44:22Z</time>
      </trkpt>
      <trkpt lat="48.85301" lon="1.78312">
        <ele>109</ele>
        <time>2018-10-21T10:44:33Z</time>
      </trkpt>
      <trkpt lat="48.85311" lon="1.78316">
        <ele>110</ele>
        <time>2018-10-21T10:44:40Z</time>
      </trkpt>
      <trkpt lat="48.85319" lon="1.78323">
        <ele>111</ele>
        <time>2018-10-21T10:44:50Z</time>
      </trkpt>
      <trkpt lat="48.85328" lon="1.78329">
        <ele>113</ele>
        <time>2018-10-21T10:45:06Z</time>
      </trkpt>
      <trkpt lat="48.85338" lon="1.78332">
        <ele>114</ele>
        <time>2018-10-21T10:45:15Z</time>
      </trkpt>
      <trkpt lat="48.85347" lon="1.78332">
        <ele>115</ele>
        <time>2018-10-21T10:45:26Z</time>
      </trkpt>
      <trkpt lat="48.85351" lon="1.78345">
        <ele>113</ele>
        <time>2018-10-21T12:08:48Z</time>
      </trkpt>
      <trkpt lat="48.85361" lon="1.78344">
        <ele>114</ele>
        <time>2018-10-21T12:09:00Z</time>
      </trkpt>
      <trkpt lat="48.85369" lon="1.78336">
        <ele>116</ele>
        <time>2018-10-21T12:09:11Z</time>
      </trkpt>
      <trkpt lat="48.85378" lon="1.78327">
        <ele>117</ele>
        <time>2018-10-21T12:09:20Z</time>
      </trkpt>
      <trkpt lat="48.85386" lon="1.78318">
        <ele>118</ele>
        <time>2018-10-21T12:09:29Z</time>
      </trkpt>
      <trkpt lat="48.85393" lon="1.78309">
        <ele>118</ele>
        <time>2018-10-21T12:09:38Z</time>
      </trkpt>
      <trkpt lat="48.85401" lon="1.78299">
        <ele>119</ele>
        <time>2018-10-21T12:09:46Z</time>
      </trkpt>
      <trkpt lat="48.85407" lon="1.78287">
        <ele>119</ele>
        <time>2018-10-21T12:09:55Z</time>
      </trkpt>
      <trkpt lat="48.85413" lon="1.78275">
        <ele>119</ele>
        <time>2018-10-21T12:10:03Z</time>
      </trkpt>
      <trkpt lat="48.85421" lon="1.78267">
        <ele>119</ele>
        <time>2018-10-21T12:10:11Z</time>
      </trkpt>
      <trkpt lat="48.85431" lon="1.78267">
        <ele>118</ele>
        <time>2018-10-21T12:10:18Z</time>
      </trkpt>
      <trkpt lat="48.8544" lon="1.78268">
        <ele>118</ele>
        <time>2018-10-21T12:10:24Z</time>
      </trkpt>
      <trkpt lat="48.8545" lon="1.7827">
        <ele>118</ele>
        <time>2018-10-21T12:10:31Z</time>
      </trkpt>
      <trkpt lat="48.85459" lon="1.78273">
        <ele>118</ele>
        <time>2018-10-21T12:10:38Z</time>
      </trkpt>
      <trkpt lat="48.85468" lon="1.78276">
        <ele>118</ele>
        <time>2018-10-21T12:10:45Z</time>
      </trkpt>
      <trkpt lat="48.85478" lon="1.78279">
        <ele>118</ele>
        <time>2018-10-21T12:10:52Z</time>
      </trkpt>
      <trkpt lat="48.85487" lon="1.78281">
        <ele>119</ele>
        <time>2018-10-21T12:10:59Z</time>
      </trkpt>
      <trkpt lat="48.85497" lon="1.78284">
        <ele>119</ele>
        <time>2018-10-21T12:11:07Z</time>
      </trkpt>
      <trkpt lat="48.85506" lon="1.78286">
        <ele>119</ele>
        <time>2018-10-21T12:11:14Z</time>
      </trkpt>
      <trkpt lat="48.85516" lon="1.78289">
        <ele>119</ele>
        <time>2018-10-21T12:11:21Z</time>
      </trkpt>
      <trkpt lat="48.85526" lon="1.78291">
        <ele>119</ele>
        <time>2018-10-21T12:11:29Z</time>
      </trkpt>
      <trkpt lat="48.85535" lon="1.78296">
        <ele>118</ele>
        <time>2018-10-21T12:11:35Z</time>
      </trkpt>
      <trkpt lat="48.85544" lon="1.78298">
        <ele>118</ele>
        <time>2018-10-21T12:11:42Z</time>
      </trkpt>
      <trkpt lat="48.85553" lon="1.783">
        <ele>118</ele>
        <time>2018-10-21T12:11:50Z</time>
      </trkpt>
      <trkpt lat="48.85563" lon="1.78304">
        <ele>118</ele>
        <time>2018-10-21T12:11:58Z</time>
      </trkpt>
      <trkpt lat="48.85572" lon="1.78308">
        <ele>118</ele>
        <time>2018-10-21T12:12:06Z</time>
      </trkpt>
      <trkpt lat="48.85583" lon="1.78312">
        <ele>119</ele>
        <time>2018-10-21T12:12:14Z</time>
      </trkpt>
      <trkpt lat="48.8559" lon="1.7832">
        <ele>119</ele>
        <time>2018-10-21T12:12:22Z</time>
      </trkpt>
      <trkpt lat="48.85598" lon="1.78329">
        <ele>119</ele>
        <time>2018-10-21T12:12:32Z</time>
      </trkpt>
      <trkpt lat="48.85608" lon="1.78327">
        <ele>120</ele>
        <time>2018-10-21T12:12:40Z</time>
      </trkpt>
      <trkpt lat="48.85616" lon="1.78321">
        <ele>120</ele>
        <time>2018-10-21T12:12:47Z</time>
      </trkpt>
      <trkpt lat="48.85626" lon="1.78316">
        <ele>121</ele>
        <time>2018-10-21T12:12:54Z</time>
      </trkpt>
      <trkpt lat="48.85636" lon="1.78317">
        <ele>122</ele>
        <time>2018-10-21T12:13:01Z</time>
      </trkpt>
      <trkpt lat="48.85644" lon="1.78313">
        <ele>123</ele>
        <time>2018-10-21T12:13:07Z</time>
      </trkpt>
      <trkpt lat="48.85654" lon="1.78308">
        <ele>123</ele>
        <time>2018-10-21T12:13:16Z</time>
      </trkpt>
      <trkpt lat="48.85663" lon="1.78303">
        <ele>123</ele>
        <time>2018-10-21T12:13:22Z</time>
      </trkpt>
      <trkpt lat="48.85672" lon="1.783">
        <ele>123</ele>
        <time>2018-10-21T12:13:33Z</time>
      </trkpt>
      <trkpt lat="48.85682" lon="1.78296">
        <ele>124</ele>
        <time>2018-10-21T12:13:40Z</time>
      </trkpt>
      <trkpt lat="48.85691" lon="1.78294">
        <ele>124</ele>
        <time>2018-10-21T12:13:46Z</time>
      </trkpt>
      <trkpt lat="48.85699" lon="1.78291">
        <ele>124</ele>
        <time>2018-10-21T12:13:53Z</time>
      </trkpt>
      <trkpt lat="48.85709" lon="1.78291">
        <ele>124</ele>
        <time>2018-10-21T12:14:00Z</time>
      </trkpt>
      <trkpt lat="48.85718" lon="1.78287">
        <ele>125</ele>
        <time>2018-10-21T12:14:08Z</time>
      </trkpt>
      <trkpt lat="48.85726" lon="1.78278">
        <ele>125</ele>
        <time>2018-10-21T12:14:16Z</time>
      </trkpt>
      <trkpt lat="48.85734" lon="1.78268">
        <ele>126</ele>
        <time>2018-10-21T12:14:24Z</time>
      </trkpt>
      <trkpt lat="48.85739" lon="1.78256">
        <ele>126</ele>
        <time>2018-10-21T12:14:30Z</time>
      </trkpt>
      <trkpt lat="48.85746" lon="1.78246">
        <ele>126</ele>
        <time>2018-10-21T12:14:36Z</time>
      </trkpt>
      <trkpt lat="48.85751" lon="1.78234">
        <ele>126</ele>
        <time>2018-10-21T12:14:43Z</time>
      </trkpt>
      <trkpt lat="48.8576" lon="1.78225">
        <ele>126</ele>
        <time>2018-10-21T12:14:50Z</time>
      </trkpt>
      <trkpt lat="48.85766" lon="1.78213">
        <ele>126</ele>
        <time>2018-10-21T12:14:57Z</time>
      </trkpt>
      <trkpt lat="48.85774" lon="1.78203">
        <ele>126</ele>
        <time>2018-10-21T12:15:04Z</time>
      </trkpt>
      <trkpt lat="48.85781" lon="1.78194">
        <ele>126</ele>
        <time>2018-10-21T12:15:12Z</time>
      </trkpt>
      <trkpt lat="48.85787" lon="1.78182">
        <ele>127</ele>
        <time>2018-10-21T12:15:20Z</time>
      </trkpt>
      <trkpt lat="48.85793" lon="1.78171">
        <ele>127</ele>
        <time>2018-10-21T12:15:28Z</time>
      </trkpt>
      <trkpt lat="48.85798" lon="1.78158">
        <ele>128</ele>
        <time>2018-10-21T12:15:36Z</time>
      </trkpt>
      <trkpt lat="48.85803" lon="1.78147">
        <ele>130</ele>
        <time>2018-10-21T12:15:45Z</time>
      </trkpt>
      <trkpt lat="48.8581" lon="1.78137">
        <ele>130</ele>
        <time>2018-10-21T12:15:53Z</time>
      </trkpt>
      <trkpt lat="48.85815" lon="1.78124">
        <ele>130</ele>
        <time>2018-10-21T12:16:01Z</time>
      </trkpt>
      <trkpt lat="48.85821" lon="1.78113">
        <ele>129</ele>
        <time>2018-10-21T12:16:08Z</time>
      </trkpt>
      <trkpt lat="48.85829" lon="1.78102">
        <ele>129</ele>
        <time>2018-10-21T12:16:15Z</time>
      </trkpt>
      <trkpt lat="48.85838" lon="1.78095">
        <ele>129</ele>
        <time>2018-10-21T12:16:20Z</time>
      </trkpt>
      <trkpt lat="48.85846" lon="1.78088">
        <ele>129</ele>
        <time>2018-10-21T12:16:27Z</time>
      </trkpt>
      <trkpt lat="48.85852" lon="1.78077">
        <ele>130</ele>
        <time>2018-10-21T12:16:34Z</time>
      </trkpt>
      <trkpt lat="48.85857" lon="1.78065">
        <ele>131</ele>
        <time>2018-10-21T12:16:42Z</time>
      </trkpt>
      <trkpt lat="48.85863" lon="1.78054">
        <ele>132</ele>
        <time>2018-10-21T12:16:49Z</time>
      </trkpt>
      <trkpt lat="48.8587" lon="1.78045">
        <ele>132</ele>
        <time>2018-10-21T12:16:56Z</time>
      </trkpt>
      <trkpt lat="48.85878" lon="1.78036">
        <ele>132</ele>
        <time>2018-10-21T12:17:02Z</time>
      </trkpt>
      <trkpt lat="48.85885" lon="1.78025">
        <ele>133</ele>
        <time>2018-10-21T12:17:09Z</time>
      </trkpt>
      <trkpt lat="48.85891" lon="1.78015">
        <ele>133</ele>
        <time>2018-10-21T12:17:17Z</time>
      </trkpt>
      <trkpt lat="48.85899" lon="1.78006">
        <ele>134</ele>
        <time>2018-10-21T12:17:24Z</time>
      </trkpt>
      <trkpt lat="48.85907" lon="1.77997">
        <ele>135</ele>
        <time>2018-10-21T12:17:30Z</time>
      </trkpt>
      <trkpt lat="48.85915" lon="1.77992">
        <ele>136</ele>
        <time>2018-10-21T12:17:39Z</time>
      </trkpt>
      <trkpt lat="48.85923" lon="1.77986">
        <ele>136</ele>
        <time>2018-10-21T12:17:46Z</time>
      </trkpt>
      <trkpt lat="48.85931" lon="1.7798">
        <ele>136</ele>
        <time>2018-10-21T12:17:53Z</time>
      </trkpt>
      <trkpt lat="48.8594" lon="1.7797">
        <ele>137</ele>
        <time>2018-10-21T12:18:02Z</time>
      </trkpt>
      <trkpt lat="48.85949" lon="1.77969">
        <ele>137</ele>
        <time>2018-10-21T12:18:08Z</time>
      </trkpt>
      <trkpt lat="48.85959" lon="1.77962">
        <ele>137</ele>
        <time>2018-10-21T12:18:15Z</time>
      </trkpt>
      <trkpt lat="48.85968" lon="1.77955">
        <ele>137</ele>
        <time>2018-10-21T12:18:23Z</time>
      </trkpt>
      <trkpt lat="48.85977" lon="1.77952">
        <ele>137</ele>
        <time>2018-10-21T12:18:28Z</time>
      </trkpt>
      <trkpt lat="48.85986" lon="1.77946">
        <ele>137</ele>
        <time>2018-10-21T12:18:35Z</time>
      </trkpt>
      <trkpt lat="48.85995" lon="1.77938">
        <ele>136</ele>
        <time>2018-10-21T12:18:41Z</time>
      </trkpt>
      <trkpt lat="48.86005" lon="1.77935">
        <ele>136</ele>
        <time>2018-10-21T12:18:48Z</time>
      </trkpt>
      <trkpt lat="48.86015" lon="1.77937">
        <ele>137</ele>
        <time>2018-10-21T12:18:57Z</time>
      </trkpt>
      <trkpt lat="48.86023" lon="1.77944">
        <ele>137</ele>
        <time>2018-10-21T12:19:04Z</time>
      </trkpt>
      <trkpt lat="48.8603" lon="1.77954">
        <ele>137</ele>
        <time>2018-10-21T12:19:09Z</time>
      </trkpt>
      <trkpt lat="48.86039" lon="1.77961">
        <ele>136</ele>
        <time>2018-10-21T12:19:18Z</time>
      </trkpt>
      <trkpt lat="48.86047" lon="1.77967">
        <ele>137</ele>
        <time>2018-10-21T12:19:25Z</time>
      </trkpt>
      <trkpt lat="48.86056" lon="1.77974">
        <ele>137</ele>
        <time>2018-10-21T12:19:31Z</time>
      </trkpt>
      <trkpt lat="48.86064" lon="1.77982">
        <ele>137</ele>
        <time>2018-10-21T12:19:38Z</time>
      </trkpt>
      <trkpt lat="48.86073" lon="1.77989">
        <ele>137</ele>
        <time>2018-10-21T12:19:45Z</time>
      </trkpt>
      <trkpt lat="48.86082" lon="1.77993">
        <ele>137</ele>
        <time>2018-10-21T12:19:54Z</time>
      </trkpt>
      <trkpt lat="48.86088" lon="1.78003">
        <ele>137</ele>
        <time>2018-10-21T12:20:04Z</time>
      </trkpt>
      <trkpt lat="48.86095" lon="1.78014">
        <ele>136</ele>
        <time>2018-10-21T12:20:17Z</time>
      </trkpt>
      <trkpt lat="48.86102" lon="1.78025">
        <ele>136</ele>
        <time>2018-10-21T12:20:26Z</time>
      </trkpt>
      <trkpt lat="48.86108" lon="1.78037">
        <ele>137</ele>
        <time>2018-10-21T12:20:33Z</time>
      </trkpt>
      <trkpt lat="48.86115" lon="1.78047">
        <ele>137</ele>
        <time>2018-10-21T12:20:41Z</time>
      </trkpt>
      <trkpt lat="48.86121" lon="1.78058">
        <ele>137</ele>
        <time>2018-10-21T12:20:48Z</time>
      </trkpt>
      <trkpt lat="48.86126" lon="1.7807">
        <ele>137</ele>
        <time>2018-10-21T12:20:57Z</time>
      </trkpt>
      <trkpt lat="48.86129" lon="1.78083">
        <ele>137</ele>
        <time>2018-10-21T12:21:04Z</time>
      </trkpt>
      <trkpt lat="48.86136" lon="1.78093">
        <ele>137</ele>
        <time>2018-10-21T12:21:10Z</time>
      </trkpt>
      <trkpt lat="48.86142" lon="1.78103">
        <ele>137</ele>
        <time>2018-10-21T12:21:17Z</time>
      </trkpt>
      <trkpt lat="48.86148" lon="1.78116">
        <ele>137</ele>
        <time>2018-10-21T12:21:24Z</time>
      </trkpt>
      <trkpt lat="48.86155" lon="1.78127">
        <ele>138</ele>
        <time>2018-10-21T12:21:31Z</time>
      </trkpt>
      <trkpt lat="48.8616" lon="1.78138">
        <ele>139</ele>
        <time>2018-10-21T12:21:38Z</time>
      </trkpt>
      <trkpt lat="48.86166" lon="1.78151">
        <ele>140</ele>
        <time>2018-10-21T12:21:45Z</time>
      </trkpt>
      <trkpt lat="48.86172" lon="1.78161">
        <ele>141</ele>
        <time>2018-10-21T12:21:53Z</time>
      </trkpt>
      <trkpt lat="48.86179" lon="1.78172">
        <ele>141</ele>
        <time>2018-10-21T12:22:00Z</time>
      </trkpt>
      <trkpt lat="48.86185" lon="1.78184">
        <ele>142</ele>
        <time>2018-10-21T12:22:07Z</time>
      </trkpt>
      <trkpt lat="48.86191" lon="1.78195">
        <ele>142</ele>
        <time>2018-10-21T12:22:15Z</time>
      </trkpt>
      <trkpt lat="48.86197" lon="1.78207">
        <ele>143</ele>
        <time>2018-10-21T12:22:24Z</time>
      </trkpt>
      <trkpt lat="48.86203" lon="1.78219">
        <ele>143</ele>
        <time>2018-10-21T12:22:31Z</time>
      </trkpt>
      <trkpt lat="48.86209" lon="1.78231">
        <ele>144</ele>
        <time>2018-10-21T12:22:38Z</time>
      </trkpt>
      <trkpt lat="48.86214" lon="1.78244">
        <ele>144</ele>
        <time>2018-10-21T12:22:45Z</time>
      </trkpt>
      <trkpt lat="48.8622" lon="1.78255">
        <ele>145</ele>
        <time>2018-10-21T12:22:52Z</time>
      </trkpt>
      <trkpt lat="48.86226" lon="1.78268">
        <ele>146</ele>
        <time>2018-10-21T12:23:00Z</time>
      </trkpt>
      <trkpt lat="48.86233" lon="1.78279">
        <ele>146</ele>
        <time>2018-10-21T12:23:08Z</time>
      </trkpt>
      <trkpt lat="48.8624" lon="1.7829">
        <ele>147</ele>
        <time>2018-10-21T12:23:17Z</time>
      </trkpt>
      <trkpt lat="48.86244" lon="1.78303">
        <ele>148</ele>
        <time>2018-10-21T12:23:24Z</time>
      </trkpt>
      <trkpt lat="48.86253" lon="1.7831">
        <ele>147</ele>
        <time>2018-10-21T12:23:36Z</time>
      </trkpt>
      <trkpt lat="48.86263" lon="1.78313">
        <ele>147</ele>
        <time>2018-10-21T12:23:46Z</time>
      </trkpt>
      <trkpt lat="48.86273" lon="1.78315">
        <ele>146</ele>
        <time>2018-10-21T12:23:56Z</time>
      </trkpt>
      <trkpt lat="48.86282" lon="1.78319">
        <ele>146</ele>
        <time>2018-10-21T12:24:03Z</time>
      </trkpt>
      <trkpt lat="48.86293" lon="1.78319">
        <ele>146</ele>
        <time>2018-10-21T12:24:10Z</time>
      </trkpt>
      <trkpt lat="48.86303" lon="1.7832">
        <ele>146</ele>
        <time>2018-10-21T12:24:17Z</time>
      </trkpt>
      <trkpt lat="48.86312" lon="1.78321">
        <ele>147</ele>
        <time>2018-10-21T12:24:25Z</time>
      </trkpt>
      <trkpt lat="48.86322" lon="1.78325">
        <ele>148</ele>
        <time>2018-10-21T12:24:34Z</time>
      </trkpt>
      <trkpt lat="48.86331" lon="1.78327">
        <ele>149</ele>
        <time>2018-10-21T12:24:41Z</time>
      </trkpt>
      <trkpt lat="48.86339" lon="1.7833">
        <ele>149</ele>
        <time>2018-10-21T12:24:47Z</time>
      </trkpt>
      <trkpt lat="48.86349" lon="1.78332">
        <ele>150</ele>
        <time>2018-10-21T12:24:53Z</time>
      </trkpt>
      <trkpt lat="48.86359" lon="1.78334">
        <ele>151</ele>
        <time>2018-10-21T12:25:00Z</time>
      </trkpt>
      <trkpt lat="48.86368" lon="1.78335">
        <ele>151</ele>
        <time>2018-10-21T12:25:08Z</time>
      </trkpt>
      <trkpt lat="48.86377" lon="1.7834">
        <ele>152</ele>
        <time>2018-10-21T12:25:15Z</time>
      </trkpt>
      <trkpt lat="48.86387" lon="1.78342">
        <ele>153</ele>
        <time>2018-10-21T12:25:22Z</time>
      </trkpt>
      <trkpt lat="48.86396" lon="1.78344">
        <ele>154</ele>
        <time>2018-10-21T12:25:30Z</time>
      </trkpt>
      <trkpt lat="48.86406" lon="1.78348">
        <ele>155</ele>
        <time>2018-10-21T12:25:39Z</time>
      </trkpt>
      <trkpt lat="48.86416" lon="1.78351">
        <ele>156</ele>
        <time>2018-10-21T12:25:48Z</time>
      </trkpt>
      <trkpt lat="48.86425" lon="1.78354">
        <ele>157</ele>
        <time>2018-10-21T12:25:55Z</time>
      </trkpt>
      <trkpt lat="48.86434" lon="1.78359">
        <ele>157</ele>
        <time>2018-10-21T12:26:01Z</time>
      </trkpt>
      <trkpt lat="48.86444" lon="1.78361">
        <ele>158</ele>
        <time>2018-10-21T12:26:10Z</time>
      </trkpt>
      <trkpt lat="48.86452" lon="1.78366">
        <ele>158</ele>
        <time>2018-10-21T12:26:17Z</time>
      </trkpt>
      <trkpt lat="48.86462" lon="1.78372">
        <ele>158</ele>
        <time>2018-10-21T12:26:24Z</time>
      </trkpt>
      <trkpt lat="48.86471" lon="1.78376">
        <ele>158</ele>
        <time>2018-10-21T12:26:31Z</time>
      </trkpt>
      <trkpt lat="48.8648" lon="1.7838">
        <ele>158</ele>
        <time>2018-10-21T12:26:38Z</time>
      </trkpt>
      <trkpt lat="48.86489" lon="1.78384">
        <ele>159</ele>
        <time>2018-10-21T12:26:45Z</time>
      </trkpt>
      <trkpt lat="48.86498" lon="1.7839">
        <ele>160</ele>
        <time>2018-10-21T12:26:52Z</time>
      </trkpt>
      <trkpt lat="48.86508" lon="1.78392">
        <ele>161</ele>
        <time>2018-10-21T12:27:02Z</time>
      </trkpt>
      <trkpt lat="48.86518" lon="1.78394">
        <ele>162</ele>
        <time>2018-10-21T12:27:10Z</time>
      </trkpt>
      <trkpt lat="48.86527" lon="1.78398">
        <ele>162</ele>
        <time>2018-10-21T12:27:21Z</time>
      </trkpt>
      <trkpt lat="48.86533" lon="1.78408">
        <ele>162</ele>
        <time>2018-10-21T12:28:21Z</time>
      </trkpt>
      <trkpt lat="48.86542" lon="1.7841">
        <ele>162</ele>
        <time>2018-10-21T12:28:32Z</time>
      </trkpt>
      <trkpt lat="48.8655" lon="1.78401">
        <ele>162</ele>
        <time>2018-10-21T12:28:40Z</time>
      </trkpt>
      <trkpt lat="48.86556" lon="1.78391">
        <ele>162</ele>
        <time>2018-10-21T12:28:49Z</time>
      </trkpt>
      <trkpt lat="48.86563" lon="1.78379">
        <ele>162</ele>
        <time>2018-10-21T12:28:58Z</time>
      </trkpt>
      <trkpt lat="48.86571" lon="1.78371">
        <ele>162</ele>
        <time>2018-10-21T12:29:09Z</time>
      </trkpt>
      <trkpt lat="48.86578" lon="1.78362">
        <ele>162</ele>
        <time>2018-10-21T12:29:17Z</time>
      </trkpt>
      <trkpt lat="48.86584" lon="1.7835">
        <ele>162</ele>
        <time>2018-10-21T12:29:25Z</time>
      </trkpt>
      <trkpt lat="48.86591" lon="1.78339">
        <ele>162</ele>
        <time>2018-10-21T12:29:33Z</time>
      </trkpt>
      <trkpt lat="48.86597" lon="1.78329">
        <ele>161</ele>
        <time>2018-10-21T12:29:41Z</time>
      </trkpt>
      <trkpt lat="48.86607" lon="1.78329">
        <ele>161</ele>
        <time>2018-10-21T12:29:49Z</time>
      </trkpt>
      <trkpt lat="48.86616" lon="1.7833">
        <ele>162</ele>
        <time>2018-10-21T12:30:00Z</time>
      </trkpt>
      <trkpt lat="48.86623" lon="1.7832">
        <ele>163</ele>
        <time>2018-10-21T12:30:07Z</time>
      </trkpt>
      <trkpt lat="48.86629" lon="1.78309">
        <ele>163</ele>
        <time>2018-10-21T12:30:14Z</time>
      </trkpt>
      <trkpt lat="48.86632" lon="1.78294">
        <ele>164</ele>
        <time>2018-10-21T12:30:23Z</time>
      </trkpt>
      <trkpt lat="48.86635" lon="1.7828">
        <ele>164</ele>
        <time>2018-10-21T12:30:31Z</time>
      </trkpt>
      <trkpt lat="48.86638" lon="1.78266">
        <ele>164</ele>
        <time>2018-10-21T12:30:37Z</time>
      </trkpt>
      <trkpt lat="48.8664" lon="1.78251">
        <ele>165</ele>
        <time>2018-10-21T12:30:46Z</time>
      </trkpt>
      <trkpt lat="48.86644" lon="1.78238">
        <ele>165</ele>
        <time>2018-10-21T12:30:53Z</time>
      </trkpt>
      <trkpt lat="48.86649" lon="1.78224">
        <ele>165</ele>
        <time>2018-10-21T12:30:59Z</time>
      </trkpt>
      <trkpt lat="48.86652" lon="1.78209">
        <ele>165</ele>
        <time>2018-10-21T12:31:06Z</time>
      </trkpt>
      <trkpt lat="48.86655" lon="1.78195">
        <ele>165</ele>
        <time>2018-10-21T12:31:13Z</time>
      </trkpt>
      <trkpt lat="48.86659" lon="1.78182">
        <ele>166</ele>
        <time>2018-10-21T12:31:20Z</time>
      </trkpt>
      <trkpt lat="48.86663" lon="1.7817">
        <ele>165</ele>
        <time>2018-10-21T12:31:25Z</time>
      </trkpt>
      <trkpt lat="48.86668" lon="1.78158">
        <ele>165</ele>
        <time>2018-10-21T12:31:32Z</time>
      </trkpt>
      <trkpt lat="48.8667" lon="1.78143">
        <ele>165</ele>
        <time>2018-10-21T12:31:40Z</time>
      </trkpt>
      <trkpt lat="48.86672" lon="1.78129">
        <ele>166</ele>
        <time>2018-10-21T12:31:46Z</time>
      </trkpt>
      <trkpt lat="48.86672" lon="1.78114">
        <ele>166</ele>
        <time>2018-10-21T12:31:54Z</time>
      </trkpt>
      <trkpt lat="48.8667" lon="1.78099">
        <ele>165</ele>
        <time>2018-10-21T12:32:01Z</time>
      </trkpt>
      <trkpt lat="48.86668" lon="1.78085">
        <ele>165</ele>
        <time>2018-10-21T12:32:08Z</time>
      </trkpt>
      <trkpt lat="48.86666" lon="1.78072">
        <ele>165</ele>
        <time>2018-10-21T12:32:15Z</time>
      </trkpt>
      <trkpt lat="48.86665" lon="1.78056">
        <ele>165</ele>
        <time>2018-10-21T12:32:24Z</time>
      </trkpt>
      <trkpt lat="48.86666" lon="1.78042">
        <ele>165</ele>
        <time>2018-10-21T12:32:31Z</time>
      </trkpt>
      <trkpt lat="48.86665" lon="1.78027">
        <ele>165</ele>
        <time>2018-10-21T12:32:38Z</time>
      </trkpt>
      <trkpt lat="48.86666" lon="1.78011">
        <ele>164</ele>
        <time>2018-10-21T12:32:46Z</time>
      </trkpt>
      <trkpt lat="48.86664" lon="1.77996">
        <ele>163</ele>
        <time>2018-10-21T12:32:54Z</time>
      </trkpt>
      <trkpt lat="48.86665" lon="1.77982">
        <ele>162</ele>
        <time>2018-10-21T12:33:02Z</time>
      </trkpt>
      <trkpt lat="48.86663" lon="1.77968">
        <ele>160</ele>
        <time>2018-10-21T12:33:09Z</time>
      </trkpt>
      <trkpt lat="48.86664" lon="1.77953">
        <ele>159</ele>
        <time>2018-10-21T12:33:16Z</time>
      </trkpt>
      <trkpt lat="48.86663" lon="1.77939">
        <ele>158</ele>
        <time>2018-10-21T12:33:22Z</time>
      </trkpt>
      <trkpt lat="48.86663" lon="1.77924">
        <ele>158</ele>
        <time>2018-10-21T12:33:29Z</time>
      </trkpt>
      <trkpt lat="48.86663" lon="1.77909">
        <ele>158</ele>
        <time>2018-10-21T12:33:37Z</time>
      </trkpt>
      <trkpt lat="48.86661" lon="1.77894">
        <ele>158</ele>
        <time>2018-10-21T12:33:44Z</time>
      </trkpt>
      <trkpt lat="48.86662" lon="1.7788">
        <ele>157</ele>
        <time>2018-10-21T12:33:53Z</time>
      </trkpt>
      <trkpt lat="48.86662" lon="1.77865">
        <ele>156</ele>
        <time>2018-10-21T12:34:00Z</time>
      </trkpt>
      <trkpt lat="48.86662" lon="1.77849">
        <ele>154</ele>
        <time>2018-10-21T12:34:08Z</time>
      </trkpt>
      <trkpt lat="48.8666" lon="1.77835">
        <ele>153</ele>
        <time>2018-10-21T12:34:17Z</time>
      </trkpt>
      <trkpt lat="48.86661" lon="1.7782">
        <ele>152</ele>
        <time>2018-10-21T12:34:25Z</time>
      </trkpt>
      <trkpt lat="48.86654" lon="1.7781">
        <ele>149</ele>
        <time>2018-10-21T12:35:56Z</time>
      </trkpt>
      <trkpt lat="48.86645" lon="1.77805">
        <ele>149</ele>
        <time>2018-10-21T12:36:05Z</time>
      </trkpt>
      <trkpt lat="48.86636" lon="1.77802">
        <ele>148</ele>
        <time>2018-10-21T12:36:14Z</time>
      </trkpt>
      <trkpt lat="48.86627" lon="1.778">
        <ele>148</ele>
        <time>2018-10-21T12:36:23Z</time>
      </trkpt>
      <trkpt lat="48.86618" lon="1.77795">
        <ele>147</ele>
        <time>2018-10-21T12:36:30Z</time>
      </trkpt>
      <trkpt lat="48.86609" lon="1.7779">
        <ele>147</ele>
        <time>2018-10-21T12:36:37Z</time>
      </trkpt>
      <trkpt lat="48.866" lon="1.77786">
        <ele>147</ele>
        <time>2018-10-21T12:36:43Z</time>
      </trkpt>
      <trkpt lat="48.86591" lon="1.77786">
        <ele>146</ele>
        <time>2018-10-21T12:36:50Z</time>
      </trkpt>
      <trkpt lat="48.8658" lon="1.77789">
        <ele>145</ele>
        <time>2018-10-21T12:36:57Z</time>
      </trkpt>
      <trkpt lat="48.86571" lon="1.77791">
        <ele>145</ele>
        <time>2018-10-21T12:37:05Z</time>
      </trkpt>
      <trkpt lat="48.86561" lon="1.77793">
        <ele>144</ele>
        <time>2018-10-21T12:37:12Z</time>
      </trkpt>
      <trkpt lat="48.86552" lon="1.77795">
        <ele>144</ele>
        <time>2018-10-21T12:37:19Z</time>
      </trkpt>
      <trkpt lat="48.86542" lon="1.77796">
        <ele>143</ele>
        <time>2018-10-21T12:37:25Z</time>
      </trkpt>
      <trkpt lat="48.86533" lon="1.77799">
        <ele>143</ele>
        <time>2018-10-21T12:37:32Z</time>
      </trkpt>
      <trkpt lat="48.86524" lon="1.77802">
        <ele>142</ele>
        <time>2018-10-21T12:37:39Z</time>
      </trkpt>
      <trkpt lat="48.86514" lon="1.77807">
        <ele>142</ele>
        <time>2018-10-21T12:37:47Z</time>
      </trkpt>
      <trkpt lat="48.86505" lon="1.77809">
        <ele>142</ele>
        <time>2018-10-21T12:37:53Z</time>
      </trkpt>
      <trkpt lat="48.86501" lon="1.77796">
        <ele>142</ele>
        <time>2018-10-21T12:38:14Z</time>
      </trkpt>
      <trkpt lat="48.86506" lon="1.77782">
        <ele>142</ele>
        <time>2018-10-21T12:38:21Z</time>
      </trkpt>
      <trkpt lat="48.8651" lon="1.77769">
        <ele>140</ele>
        <time>2018-10-21T12:38:29Z</time>
      </trkpt>
      <trkpt lat="48.86516" lon="1.77758">
        <ele>139</ele>
        <time>2018-10-21T12:38:35Z</time>
      </trkpt>
      <trkpt lat="48.86523" lon="1.77747">
        <ele>138</ele>
        <time>2018-10-21T12:38:41Z</time>
      </trkpt>
      <trkpt lat="48.86529" lon="1.77736">
        <ele>137</ele>
        <time>2018-10-21T12:38:49Z</time>
      </trkpt>
      <trkpt lat="48.86535" lon="1.77725">
        <ele>136</ele>
        <time>2018-10-21T12:38:55Z</time>
      </trkpt>
      <trkpt lat="48.8654" lon="1.77714">
        <ele>136</ele>
        <time>2018-10-21T12:39:02Z</time>
      </trkpt>
      <trkpt lat="48.86545" lon="1.77702">
        <ele>135</ele>
        <time>2018-10-21T12:39:09Z</time>
      </trkpt>
      <trkpt lat="48.86552" lon="1.7769">
        <ele>134</ele>
        <time>2018-10-21T12:39:16Z</time>
      </trkpt>
      <trkpt lat="48.86558" lon="1.77679">
        <ele>134</ele>
        <time>2018-10-21T12:39:22Z</time>
      </trkpt>
      <trkpt lat="48.86564" lon="1.77667">
        <ele>134</ele>
        <time>2018-10-21T12:39:29Z</time>
      </trkpt>
      <trkpt lat="48.8657" lon="1.77654">
        <ele>133</ele>
        <time>2018-10-21T12:39:37Z</time>
      </trkpt>
      <trkpt lat="48.86575" lon="1.7764">
        <ele>133</ele>
        <time>2018-10-21T12:39:43Z</time>
      </trkpt>
      <trkpt lat="48.86582" lon="1.77629">
        <ele>133</ele>
        <time>2018-10-21T12:39:50Z</time>
      </trkpt>
      <trkpt lat="48.86587" lon="1.77618">
        <ele>133</ele>
        <time>2018-10-21T12:39:56Z</time>
      </trkpt>
      <trkpt lat="48.86593" lon="1.77607">
        <ele>133</ele>
        <time>2018-10-21T12:40:03Z</time>
      </trkpt>
      <trkpt lat="48.86599" lon="1.77597">
        <ele>133</ele>
        <time>2018-10-21T12:40:09Z</time>
      </trkpt>
      <trkpt lat="48.86606" lon="1.77586">
        <ele>133</ele>
        <time>2018-10-21T12:40:16Z</time>
      </trkpt>
      <trkpt lat="48.8661" lon="1.77574">
        <ele>132</ele>
        <time>2018-10-21T12:40:22Z</time>
      </trkpt>
      <trkpt lat="48.86615" lon="1.7756">
        <ele>132</ele>
        <time>2018-10-21T12:40:29Z</time>
      </trkpt>
      <trkpt lat="48.8662" lon="1.77549">
        <ele>131</ele>
        <time>2018-10-21T12:40:37Z</time>
      </trkpt>
      <trkpt lat="48.86626" lon="1.77537">
        <ele>131</ele>
        <time>2018-10-21T12:40:44Z</time>
      </trkpt>
      <trkpt lat="48.86633" lon="1.77527">
        <ele>131</ele>
        <time>2018-10-21T12:40:51Z</time>
      </trkpt>
      <trkpt lat="48.86639" lon="1.77514">
        <ele>131</ele>
        <time>2018-10-21T12:40:58Z</time>
      </trkpt>
      <trkpt lat="48.8664" lon="1.775">
        <ele>131</ele>
        <time>2018-10-21T12:41:05Z</time>
      </trkpt>
      <trkpt lat="48.86639" lon="1.77485">
        <ele>130</ele>
        <time>2018-10-21T12:41:13Z</time>
      </trkpt>
      <trkpt lat="48.86633" lon="1.77473">
        <ele>130</ele>
        <time>2018-10-21T12:41:20Z</time>
      </trkpt>
      <trkpt lat="48.86625" lon="1.77466">
        <ele>131</ele>
        <time>2018-10-21T12:41:26Z</time>
      </trkpt>
      <trkpt lat="48.86616" lon="1.77458">
        <ele>131</ele>
        <time>2018-10-21T12:41:34Z</time>
      </trkpt>
      <trkpt lat="48.86608" lon="1.77449">
        <ele>131</ele>
        <time>2018-10-21T12:41:41Z</time>
      </trkpt>
      <trkpt lat="48.866" lon="1.77441">
        <ele>131</ele>
        <time>2018-10-21T12:41:48Z</time>
      </trkpt>
      <trkpt lat="48.8659" lon="1.77435">
        <ele>131</ele>
        <time>2018-10-21T12:41:54Z</time>
      </trkpt>
      <trkpt lat="48.86581" lon="1.77429">
        <ele>131</ele>
        <time>2018-10-21T12:42:00Z</time>
      </trkpt>
      <trkpt lat="48.86571" lon="1.77426">
        <ele>131</ele>
        <time>2018-10-21T12:42:07Z</time>
      </trkpt>
      <trkpt lat="48.86562" lon="1.77422">
        <ele>131</ele>
        <time>2018-10-21T12:42:13Z</time>
      </trkpt>
      <trkpt lat="48.86553" lon="1.77418">
        <ele>131</ele>
        <time>2018-10-21T12:42:20Z</time>
      </trkpt>
      <trkpt lat="48.86544" lon="1.77413">
        <ele>131</ele>
        <time>2018-10-21T12:42:26Z</time>
      </trkpt>
      <trkpt lat="48.86535" lon="1.77406">
        <ele>130</ele>
        <time>2018-10-21T12:42:33Z</time>
      </trkpt>
      <trkpt lat="48.86526" lon="1.77402">
        <ele>129</ele>
        <time>2018-10-21T12:42:39Z</time>
      </trkpt>
      <trkpt lat="48.86517" lon="1.77399">
        <ele>128</ele>
        <time>2018-10-21T12:42:45Z</time>
      </trkpt>
      <trkpt lat="48.86508" lon="1.77396">
        <ele>127</ele>
        <time>2018-10-21T12:42:56Z</time>
      </trkpt>
      <trkpt lat="48.86499" lon="1.77389">
        <ele>127</ele>
        <time>2018-10-21T12:44:49Z</time>
      </trkpt>
      <trkpt lat="48.8649" lon="1.77386">
        <ele>127</ele>
        <time>2018-10-21T12:44:56Z</time>
      </trkpt>
      <trkpt lat="48.86479" lon="1.77381">
        <ele>127</ele>
        <time>2018-10-21T12:45:03Z</time>
      </trkpt>
      <trkpt lat="48.86471" lon="1.77374">
        <ele>126</ele>
        <time>2018-10-21T12:45:10Z</time>
      </trkpt>
      <trkpt lat="48.86462" lon="1.77368">
        <ele>126</ele>
        <time>2018-10-21T12:45:17Z</time>
      </trkpt>
      <trkpt lat="48.86453" lon="1.77364">
        <ele>125</ele>
        <time>2018-10-21T12:45:24Z</time>
      </trkpt>
      <trkpt lat="48.86444" lon="1.77359">
        <ele>124</ele>
        <time>2018-10-21T12:45:31Z</time>
      </trkpt>
      <trkpt lat="48.86436" lon="1.77355">
        <ele>124</ele>
        <time>2018-10-21T12:45:37Z</time>
      </trkpt>
      <trkpt lat="48.86427" lon="1.7735">
        <ele>124</ele>
        <time>2018-10-21T12:45:43Z</time>
      </trkpt>
      <trkpt lat="48.86418" lon="1.77345">
        <ele>124</ele>
        <time>2018-10-21T12:45:49Z</time>
      </trkpt>
      <trkpt lat="48.86408" lon="1.77342">
        <ele>125</ele>
        <time>2018-10-21T12:45:55Z</time>
      </trkpt>
      <trkpt lat="48.86399" lon="1.77335">
        <ele>125</ele>
        <time>2018-10-21T12:46:02Z</time>
      </trkpt>
      <trkpt lat="48.86391" lon="1.77328">
        <ele>125</ele>
        <time>2018-10-21T12:46:10Z</time>
      </trkpt>
      <trkpt lat="48.86381" lon="1.77326">
        <ele>125</ele>
        <time>2018-10-21T12:46:18Z</time>
      </trkpt>
      <trkpt lat="48.86372" lon="1.77323">
        <ele>125</ele>
        <time>2018-10-21T12:46:26Z</time>
      </trkpt>
      <trkpt lat="48.86363" lon="1.77315">
        <ele>125</ele>
        <time>2018-10-21T12:46:34Z</time>
      </trkpt>
      <trkpt lat="48.86355" lon="1.77307">
        <ele>125</ele>
        <time>2018-10-21T12:46:41Z</time>
      </trkpt>
      <trkpt lat="48.86346" lon="1.77298">
        <ele>125</ele>
        <time>2018-10-21T12:46:49Z</time>
      </trkpt>
      <trkpt lat="48.86339" lon="1.7729">
        <ele>125</ele>
        <time>2018-10-21T12:46:55Z</time>
      </trkpt>
      <trkpt lat="48.8633" lon="1.77283">
        <ele>125</ele>
        <time>2018-10-21T12:47:01Z</time>
      </trkpt>
      <trkpt lat="48.86322" lon="1.77275">
        <ele>125</ele>
        <time>2018-10-21T12:47:09Z</time>
      </trkpt>
      <trkpt lat="48.86315" lon="1.77264">
        <ele>125</ele>
        <time>2018-10-21T12:47:17Z</time>
      </trkpt>
      <trkpt lat="48.86309" lon="1.77253">
        <ele>125</ele>
        <time>2018-10-21T12:47:23Z</time>
      </trkpt>
      <trkpt lat="48.86301" lon="1.77243">
        <ele>125</ele>
        <time>2018-10-21T12:47:29Z</time>
      </trkpt>
      <trkpt lat="48.86294" lon="1.77233">
        <ele>125</ele>
        <time>2018-10-21T12:47:34Z</time>
      </trkpt>
      <trkpt lat="48.86285" lon="1.77225">
        <ele>125</ele>
        <time>2018-10-21T12:47:40Z</time>
      </trkpt>
      <trkpt lat="48.86277" lon="1.77218">
        <ele>126</ele>
        <time>2018-10-21T12:47:45Z</time>
      </trkpt>
      <trkpt lat="48.86269" lon="1.7721">
        <ele>125</ele>
        <time>2018-10-21T12:47:51Z</time>
      </trkpt>
      <trkpt lat="48.86262" lon="1.77202">
        <ele>125</ele>
        <time>2018-10-21T12:47:58Z</time>
      </trkpt>
      <trkpt lat="48.86254" lon="1.77194">
        <ele>125</ele>
        <time>2018-10-21T12:48:04Z</time>
      </trkpt>
      <trkpt lat="48.86247" lon="1.77184">
        <ele>124</ele>
        <time>2018-10-21T12:48:10Z</time>
      </trkpt>
      <trkpt lat="48.86239" lon="1.77175">
        <ele>124</ele>
        <time>2018-10-21T12:48:17Z</time>
      </trkpt>
      <trkpt lat="48.8623" lon="1.77168">
        <ele>124</ele>
        <time>2018-10-21T12:48:24Z</time>
      </trkpt>
      <trkpt lat="48.86223" lon="1.77159">
        <ele>124</ele>
        <time>2018-10-21T12:48:30Z</time>
      </trkpt>
      <trkpt lat="48.86216" lon="1.7715">
        <ele>124</ele>
        <time>2018-10-21T12:48:36Z</time>
      </trkpt>
      <trkpt lat="48.86206" lon="1.77142">
        <ele>124</ele>
        <time>2018-10-21T12:48:43Z</time>
      </trkpt>
      <trkpt lat="48.86198" lon="1.77133">
        <ele>124</ele>
        <time>2018-10-21T12:48:49Z</time>
      </trkpt>
      <trkpt lat="48.86189" lon="1.77129">
        <ele>124</ele>
        <time>2018-10-21T12:48:59Z</time>
      </trkpt>
      <trkpt lat="48.86194" lon="1.77116">
        <ele>124</ele>
        <time>2018-10-21T12:49:26Z</time>
      </trkpt>
      <trkpt lat="48.86201" lon="1.77105">
        <ele>123</ele>
        <time>2018-10-21T12:49:35Z</time>
      </trkpt>
      <trkpt lat="48.86205" lon="1.77092">
        <ele>123</ele>
        <time>2018-10-21T12:49:43Z</time>
      </trkpt>
      <trkpt lat="48.86213" lon="1.77082">
        <ele>123</ele>
        <time>2018-10-21T12:49:52Z</time>
      </trkpt>
      <trkpt lat="48.8622" lon="1.77073">
        <ele>122</ele>
        <time>2018-10-21T12:49:59Z</time>
      </trkpt>
      <trkpt lat="48.86226" lon="1.77063">
        <ele>122</ele>
        <time>2018-10-21T12:50:05Z</time>
      </trkpt>
      <trkpt lat="48.86233" lon="1.77052">
        <ele>121</ele>
        <time>2018-10-21T12:50:13Z</time>
      </trkpt>
      <trkpt lat="48.86238" lon="1.7704">
        <ele>121</ele>
        <time>2018-10-21T12:50:21Z</time>
      </trkpt>
      <trkpt lat="48.86245" lon="1.77029">
        <ele>121</ele>
        <time>2018-10-21T12:50:28Z</time>
      </trkpt>
      <trkpt lat="48.86253" lon="1.77019">
        <ele>120</ele>
        <time>2018-10-21T12:50:35Z</time>
      </trkpt>
      <trkpt lat="48.8626" lon="1.77009">
        <ele>119</ele>
        <time>2018-10-21T12:50:42Z</time>
      </trkpt>
      <trkpt lat="48.86266" lon="1.76999">
        <ele>119</ele>
        <time>2018-10-21T12:50:49Z</time>
      </trkpt>
      <trkpt lat="48.86272" lon="1.76986">
        <ele>119</ele>
        <time>2018-10-21T12:50:57Z</time>
      </trkpt>
      <trkpt lat="48.86277" lon="1.76975">
        <ele>119</ele>
        <time>2018-10-21T12:51:03Z</time>
      </trkpt>
      <trkpt lat="48.86283" lon="1.76965">
        <ele>119</ele>
        <time>2018-10-21T12:51:10Z</time>
      </trkpt>
      <trkpt lat="48.8629" lon="1.76955">
        <ele>118</ele>
        <time>2018-10-21T12:51:17Z</time>
      </trkpt>
      <trkpt lat="48.86299" lon="1.76946">
        <ele>118</ele>
        <time>2018-10-21T12:51:23Z</time>
      </trkpt>
      <trkpt lat="48.86305" lon="1.76934">
        <ele>119</ele>
        <time>2018-10-21T12:51:30Z</time>
      </trkpt>
      <trkpt lat="48.86312" lon="1.76924">
        <ele>119</ele>
        <time>2018-10-21T12:51:36Z</time>
      </trkpt>
      <trkpt lat="48.86319" lon="1.76914">
        <ele>120</ele>
        <time>2018-10-21T12:51:42Z</time>
      </trkpt>
      <trkpt lat="48.86325" lon="1.76902">
        <ele>121</ele>
        <time>2018-10-21T12:51:49Z</time>
      </trkpt>
      <trkpt lat="48.86331" lon="1.76891">
        <ele>121</ele>
        <time>2018-10-21T12:51:57Z</time>
      </trkpt>
      <trkpt lat="48.86337" lon="1.76882">
        <ele>122</ele>
        <time>2018-10-21T12:52:03Z</time>
      </trkpt>
      <trkpt lat="48.86345" lon="1.76872">
        <ele>122</ele>
        <time>2018-10-21T12:52:10Z</time>
      </trkpt>
      <trkpt lat="48.86354" lon="1.76865">
        <ele>122</ele>
        <time>2018-10-21T12:52:16Z</time>
      </trkpt>
      <trkpt lat="48.8636" lon="1.76854">
        <ele>123</ele>
        <time>2018-10-21T12:52:22Z</time>
      </trkpt>
      <trkpt lat="48.86367" lon="1.76845">
        <ele>123</ele>
        <time>2018-10-21T12:52:28Z</time>
      </trkpt>
      <trkpt lat="48.86375" lon="1.76836">
        <ele>124</ele>
        <time>2018-10-21T12:52:35Z</time>
      </trkpt>
      <trkpt lat="48.86383" lon="1.76825">
        <ele>124</ele>
        <time>2018-10-21T12:52:42Z</time>
      </trkpt>
      <trkpt lat="48.8639" lon="1.76816">
        <ele>124</ele>
        <time>2018-10-21T12:52:50Z</time>
      </trkpt>
      <trkpt lat="48.86397" lon="1.76805">
        <ele>124</ele>
        <time>2018-10-21T12:52:57Z</time>
      </trkpt>
      <trkpt lat="48.86405" lon="1.76794">
        <ele>124</ele>
        <time>2018-10-21T12:53:05Z</time>
      </trkpt>
      <trkpt lat="48.86412" lon="1.76784">
        <ele>124</ele>
        <time>2018-10-21T12:53:11Z</time>
      </trkpt>
      <trkpt lat="48.8642" lon="1.76775">
        <ele>124</ele>
        <time>2018-10-21T12:53:17Z</time>
      </trkpt>
      <trkpt lat="48.86426" lon="1.76764">
        <ele>124</ele>
        <time>2018-10-21T12:53:24Z</time>
      </trkpt>
      <trkpt lat="48.86432" lon="1.76752">
        <ele>124</ele>
        <time>2018-10-21T12:53:31Z</time>
      </trkpt>
      <trkpt lat="48.8644" lon="1.76742">
        <ele>124</ele>
        <time>2018-10-21T12:53:38Z</time>
      </trkpt>
      <trkpt lat="48.86447" lon="1.76731">
        <ele>124</ele>
        <time>2018-10-21T12:53:45Z</time>
      </trkpt>
      <trkpt lat="48.86454" lon="1.76721">
        <ele>124</ele>
        <time>2018-10-21T12:53:52Z</time>
      </trkpt>
      <trkpt lat="48.86461" lon="1.7671">
        <ele>124</ele>
        <time>2018-10-21T12:53:58Z</time>
      </trkpt>
      <trkpt lat="48.86468" lon="1.767">
        <ele>124</ele>
        <time>2018-10-21T12:54:04Z</time>
      </trkpt>
      <trkpt lat="48.86474" lon="1.76688">
        <ele>125</ele>
        <time>2018-10-21T12:54:12Z</time>
      </trkpt>
      <trkpt lat="48.8648" lon="1.76677">
        <ele>124</ele>
        <time>2018-10-21T12:54:18Z</time>
      </trkpt>
      <trkpt lat="48.86482" lon="1.7669">
        <ele>124</ele>
        <time>2018-10-21T12:54:31Z</time>
      </trkpt>
      <trkpt lat="48.86489" lon="1.767">
        <ele>124</ele>
        <time>2018-10-21T12:54:38Z</time>
      </trkpt>
      <trkpt lat="48.86497" lon="1.76709">
        <ele>125</ele>
        <time>2018-10-21T12:54:45Z</time>
      </trkpt>
      <trkpt lat="48.86503" lon="1.76722">
        <ele>125</ele>
        <time>2018-10-21T12:54:53Z</time>
      </trkpt>
      <trkpt lat="48.86507" lon="1.76734">
        <ele>125</ele>
        <time>2018-10-21T12:54:59Z</time>
      </trkpt>
      <trkpt lat="48.86513" lon="1.76746">
        <ele>126</ele>
        <time>2018-10-21T12:55:06Z</time>
      </trkpt>
      <trkpt lat="48.86519" lon="1.76758">
        <ele>127</ele>
        <time>2018-10-21T12:55:13Z</time>
      </trkpt>
      <trkpt lat="48.86524" lon="1.76769">
        <ele>127</ele>
        <time>2018-10-21T12:55:19Z</time>
      </trkpt>
      <trkpt lat="48.8653" lon="1.76782">
        <ele>128</ele>
        <time>2018-10-21T12:55:26Z</time>
      </trkpt>
      <trkpt lat="48.86537" lon="1.76794">
        <ele>128</ele>
        <time>2018-10-21T12:55:33Z</time>
      </trkpt>
      <trkpt lat="48.86545" lon="1.76803">
        <ele>129</ele>
        <time>2018-10-21T12:55:40Z</time>
      </trkpt>
      <trkpt lat="48.86551" lon="1.76814">
        <ele>129</ele>
        <time>2018-10-21T12:55:46Z</time>
      </trkpt>
      <trkpt lat="48.86558" lon="1.76824">
        <ele>130</ele>
        <time>2018-10-21T12:55:53Z</time>
      </trkpt>
      <trkpt lat="48.86565" lon="1.76834">
        <ele>130</ele>
        <time>2018-10-21T12:56:00Z</time>
      </trkpt>
      <trkpt lat="48.86571" lon="1.76845">
        <ele>131</ele>
        <time>2018-10-21T12:56:07Z</time>
      </trkpt>
      <trkpt lat="48.86576" lon="1.76856">
        <ele>131</ele>
        <time>2018-10-21T12:56:13Z</time>
      </trkpt>
      <trkpt lat="48.86583" lon="1.76867">
        <ele>132</ele>
        <time>2018-10-21T12:56:20Z</time>
      </trkpt>
      <trkpt lat="48.86589" lon="1.76877">
        <ele>132</ele>
        <time>2018-10-21T12:56:26Z</time>
      </trkpt>
      <trkpt lat="48.86594" lon="1.76888">
        <ele>132</ele>
        <time>2018-10-21T12:56:33Z</time>
      </trkpt>
      <trkpt lat="48.86601" lon="1.76898">
        <ele>132</ele>
        <time>2018-10-21T12:56:39Z</time>
      </trkpt>
      <trkpt lat="48.86609" lon="1.76907">
        <ele>133</ele>
        <time>2018-10-21T12:56:46Z</time>
      </trkpt>
      <trkpt lat="48.86615" lon="1.76918">
        <ele>133</ele>
        <time>2018-10-21T12:56:53Z</time>
      </trkpt>
      <trkpt lat="48.8662" lon="1.7693">
        <ele>133</ele>
        <time>2018-10-21T12:56:59Z</time>
      </trkpt>
      <trkpt lat="48.86627" lon="1.76939">
        <ele>133</ele>
        <time>2018-10-21T12:57:06Z</time>
      </trkpt>
      <trkpt lat="48.86635" lon="1.7695">
        <ele>133</ele>
        <time>2018-10-21T12:57:13Z</time>
      </trkpt>
      <trkpt lat="48.86641" lon="1.76962">
        <ele>133</ele>
        <time>2018-10-21T12:57:20Z</time>
      </trkpt>
      <trkpt lat="48.86646" lon="1.76974">
        <ele>132</ele>
        <time>2018-10-21T12:57:28Z</time>
      </trkpt>
      <trkpt lat="48.8665" lon="1.76987">
        <ele>131</ele>
        <time>2018-10-21T12:57:35Z</time>
      </trkpt>
      <trkpt lat="48.86657" lon="1.76997">
        <ele>131</ele>
        <time>2018-10-21T12:57:41Z</time>
      </trkpt>
      <trkpt lat="48.86663" lon="1.77008">
        <ele>130</ele>
        <time>2018-10-21T12:57:48Z</time>
      </trkpt>
      <trkpt lat="48.8667" lon="1.77017">
        <ele>130</ele>
        <time>2018-10-21T12:57:54Z</time>
      </trkpt>
      <trkpt lat="48.86678" lon="1.77025">
        <ele>129</ele>
        <time>2018-10-21T12:58:00Z</time>
      </trkpt>
      <trkpt lat="48.86683" lon="1.77037">
        <ele>129</ele>
        <time>2018-10-21T12:58:07Z</time>
      </trkpt>
      <trkpt lat="48.86689" lon="1.77048">
        <ele>129</ele>
        <time>2018-10-21T12:58:14Z</time>
      </trkpt>
      <trkpt lat="48.86697" lon="1.7706">
        <ele>129</ele>
        <time>2018-10-21T12:58:21Z</time>
      </trkpt>
      <trkpt lat="48.86705" lon="1.77064">
        <ele>129</ele>
        <time>2018-10-21T12:58:33Z</time>
      </trkpt>
      <trkpt lat="48.86714" lon="1.77057">
        <ele>130</ele>
        <time>2018-10-21T12:59:06Z</time>
      </trkpt>
      <trkpt lat="48.8672" lon="1.77046">
        <ele>130</ele>
        <time>2018-10-21T12:59:15Z</time>
      </trkpt>
      <trkpt lat="48.86727" lon="1.77036">
        <ele>130</ele>
        <time>2018-10-21T12:59:22Z</time>
      </trkpt>
      <trkpt lat="48.86732" lon="1.77023">
        <ele>130</ele>
        <time>2018-10-21T12:59:30Z</time>
      </trkpt>
      <trkpt lat="48.86739" lon="1.77012">
        <ele>130</ele>
        <time>2018-10-21T12:59:38Z</time>
      </trkpt>
      <trkpt lat="48.86746" lon="1.77002">
        <ele>130</ele>
        <time>2018-10-21T12:59:45Z</time>
      </trkpt>
      <trkpt lat="48.86754" lon="1.76992">
        <ele>130</ele>
        <time>2018-10-21T12:59:52Z</time>
      </trkpt>
      <trkpt lat="48.8676" lon="1.7698">
        <ele>130</ele>
        <time>2018-10-21T12:59:59Z</time>
      </trkpt>
      <trkpt lat="48.86766" lon="1.76969">
        <ele>130</ele>
        <time>2018-10-21T13:00:07Z</time>
      </trkpt>
      <trkpt lat="48.86773" lon="1.76958">
        <ele>131</ele>
        <time>2018-10-21T13:00:15Z</time>
      </trkpt>
      <trkpt lat="48.86779" lon="1.76945">
        <ele>131</ele>
        <time>2018-10-21T13:00:23Z</time>
      </trkpt>
      <trkpt lat="48.86785" lon="1.76934">
        <ele>131</ele>
        <time>2018-10-21T13:00:29Z</time>
      </trkpt>
      <trkpt lat="48.86791" lon="1.76923">
        <ele>132</ele>
        <time>2018-10-21T13:00:37Z</time>
      </trkpt>
      <trkpt lat="48.86798" lon="1.76913">
        <ele>132</ele>
        <time>2018-10-21T13:00:50Z</time>
      </trkpt>
      <trkpt lat="48.86805" lon="1.76904">
        <ele>132</ele>
        <time>2018-10-21T13:00:58Z</time>
      </trkpt>
      <trkpt lat="48.8681" lon="1.76891">
        <ele>132</ele>
        <time>2018-10-21T13:01:06Z</time>
      </trkpt>
      <trkpt lat="48.86817" lon="1.7688">
        <ele>132</ele>
        <time>2018-10-21T13:01:13Z</time>
      </trkpt>
      <trkpt lat="48.86822" lon="1.7687">
        <ele>132</ele>
        <time>2018-10-21T13:01:21Z</time>
      </trkpt>
      <trkpt lat="48.86829" lon="1.76858">
        <ele>132</ele>
        <time>2018-10-21T13:01:29Z</time>
      </trkpt>
      <trkpt lat="48.86836" lon="1.76847">
        <ele>133</ele>
        <time>2018-10-21T13:01:36Z</time>
      </trkpt>
      <trkpt lat="48.86842" lon="1.76837">
        <ele>133</ele>
        <time>2018-10-21T13:01:43Z</time>
      </trkpt>
      <trkpt lat="48.86849" lon="1.76827">
        <ele>133</ele>
        <time>2018-10-21T13:01:50Z</time>
      </trkpt>
      <trkpt lat="48.86855" lon="1.76815">
        <ele>134</ele>
        <time>2018-10-21T13:01:57Z</time>
      </trkpt>
      <trkpt lat="48.86861" lon="1.76805">
        <ele>134</ele>
        <time>2018-10-21T13:02:04Z</time>
      </trkpt>
      <trkpt lat="48.86868" lon="1.76794">
        <ele>134</ele>
        <time>2018-10-21T13:02:11Z</time>
      </trkpt>
      <trkpt lat="48.86875" lon="1.76783">
        <ele>135</ele>
        <time>2018-10-21T13:02:19Z</time>
      </trkpt>
      <trkpt lat="48.86881" lon="1.76772">
        <ele>135</ele>
        <time>2018-10-21T13:02:26Z</time>
      </trkpt>
      <trkpt lat="48.86887" lon="1.76761">
        <ele>135</ele>
        <time>2018-10-21T13:02:33Z</time>
      </trkpt>
      <trkpt lat="48.86894" lon="1.76751">
        <ele>134</ele>
        <time>2018-10-21T13:02:41Z</time>
      </trkpt>
      <trkpt lat="48.869" lon="1.7674">
        <ele>134</ele>
        <time>2018-10-21T13:02:49Z</time>
      </trkpt>
      <trkpt lat="48.86908" lon="1.76729">
        <ele>135</ele>
        <time>2018-10-21T13:02:57Z</time>
      </trkpt>
      <trkpt lat="48.86914" lon="1.76717">
        <ele>135</ele>
        <time>2018-10-21T13:03:05Z</time>
      </trkpt>
      <trkpt lat="48.86919" lon="1.76706">
        <ele>136</ele>
        <time>2018-10-21T13:03:12Z</time>
      </trkpt>
      <trkpt lat="48.86926" lon="1.76696">
        <ele>136</ele>
        <time>2018-10-21T13:03:19Z</time>
      </trkpt>
      <trkpt lat="48.86932" lon="1.76686">
        <ele>136</ele>
        <time>2018-10-21T13:03:26Z</time>
      </trkpt>
      <trkpt lat="48.86938" lon="1.76675">
        <ele>136</ele>
        <time>2018-10-21T13:03:33Z</time>
      </trkpt>
      <trkpt lat="48.86945" lon="1.76664">
        <ele>136</ele>
        <time>2018-10-21T13:03:42Z</time>
      </trkpt>
      <trkpt lat="48.86952" lon="1.76654">
        <ele>136</ele>
        <time>2018-10-21T13:03:50Z</time>
      </trkpt>
      <trkpt lat="48.86959" lon="1.76642">
        <ele>137</ele>
        <time>2018-10-21T13:03:59Z</time>
      </trkpt>
      <trkpt lat="48.86965" lon="1.76631">
        <ele>138</ele>
        <time>2018-10-21T13:04:07Z</time>
      </trkpt>
      <trkpt lat="48.86972" lon="1.76621">
        <ele>139</ele>
        <time>2018-10-21T13:04:14Z</time>
      </trkpt>
      <trkpt lat="48.86978" lon="1.7661">
        <ele>140</ele>
        <time>2018-10-21T13:04:23Z</time>
      </trkpt>
      <trkpt lat="48.86984" lon="1.76599">
        <ele>141</ele>
        <time>2018-10-21T13:04:32Z</time>
      </trkpt>
      <trkpt lat="48.86986" lon="1.76585">
        <ele>142</ele>
        <time>2018-10-21T13:04:57Z</time>
      </trkpt>
      <trkpt lat="48.8698" lon="1.76574">
        <ele>143</ele>
        <time>2018-10-21T13:05:06Z</time>
      </trkpt>
      <trkpt lat="48.86973" lon="1.76564">
        <ele>143</ele>
        <time>2018-10-21T13:05:14Z</time>
      </trkpt>
      <trkpt lat="48.86967" lon="1.76553">
        <ele>143</ele>
        <time>2018-10-21T13:05:21Z</time>
      </trkpt>
      <trkpt lat="48.86961" lon="1.76543">
        <ele>143</ele>
        <time>2018-10-21T13:05:28Z</time>
      </trkpt>
      <trkpt lat="48.86955" lon="1.76531">
        <ele>143</ele>
        <time>2018-10-21T13:05:34Z</time>
      </trkpt>
      <trkpt lat="48.8695" lon="1.76519">
        <ele>142</ele>
        <time>2018-10-21T13:05:41Z</time>
      </trkpt>
      <trkpt lat="48.86946" lon="1.76506">
        <ele>142</ele>
        <time>2018-10-21T13:05:47Z</time>
      </trkpt>
      <trkpt lat="48.86943" lon="1.76493">
        <ele>143</ele>
        <time>2018-10-21T13:05:54Z</time>
      </trkpt>
      <trkpt lat="48.8694" lon="1.76478">
        <ele>143</ele>
        <time>2018-10-21T13:06:02Z</time>
      </trkpt>
      <trkpt lat="48.86938" lon="1.76465">
        <ele>143</ele>
        <time>2018-10-21T13:06:08Z</time>
      </trkpt>
      <trkpt lat="48.86936" lon="1.76451">
        <ele>142</ele>
        <time>2018-10-21T13:06:16Z</time>
      </trkpt>
      <trkpt lat="48.86935" lon="1.76436">
        <ele>142</ele>
        <time>2018-10-21T13:06:24Z</time>
      </trkpt>
      <trkpt lat="48.86933" lon="1.76422">
        <ele>142</ele>
        <time>2018-10-21T13:06:31Z</time>
      </trkpt>
      <trkpt lat="48.86929" lon="1.76408">
        <ele>141</ele>
        <time>2018-10-21T13:06:39Z</time>
      </trkpt>
      <trkpt lat="48.86927" lon="1.76394">
        <ele>141</ele>
        <time>2018-10-21T13:06:47Z</time>
      </trkpt>
      <trkpt lat="48.86924" lon="1.7638">
        <ele>140</ele>
        <time>2018-10-21T13:06:55Z</time>
      </trkpt>
      <trkpt lat="48.86931" lon="1.76371">
        <ele>140</ele>
        <time>2018-10-21T13:07:07Z</time>
      </trkpt>
      <trkpt lat="48.8694" lon="1.76368">
        <ele>141</ele>
        <time>2018-10-21T13:07:13Z</time>
      </trkpt>
      <trkpt lat="48.86949" lon="1.76365">
        <ele>142</ele>
        <time>2018-10-21T13:07:20Z</time>
      </trkpt>
      <trkpt lat="48.86958" lon="1.76365">
        <ele>142</ele>
        <time>2018-10-21T13:07:30Z</time>
      </trkpt>
      <trkpt lat="48.86968" lon="1.76365">
        <ele>143</ele>
        <time>2018-10-21T13:07:38Z</time>
      </trkpt>
      <trkpt lat="48.86977" lon="1.7636">
        <ele>144</ele>
        <time>2018-10-21T13:07:44Z</time>
      </trkpt>
      <trkpt lat="48.86987" lon="1.76361">
        <ele>145</ele>
        <time>2018-10-21T13:07:51Z</time>
      </trkpt>
      <trkpt lat="48.86996" lon="1.76358">
        <ele>146</ele>
        <time>2018-10-21T13:08:00Z</time>
      </trkpt>
      <trkpt lat="48.87003" lon="1.76351">
        <ele>145</ele>
        <time>2018-10-21T13:08:07Z</time>
      </trkpt>
      <trkpt lat="48.87012" lon="1.76345">
        <ele>145</ele>
        <time>2018-10-21T13:08:14Z</time>
      </trkpt>
      <trkpt lat="48.87009" lon="1.76332">
        <ele>144</ele>
        <time>2018-10-21T13:08:26Z</time>
      </trkpt>
      <trkpt lat="48.87006" lon="1.76318">
        <ele>144</ele>
        <time>2018-10-21T13:08:34Z</time>
      </trkpt>
      <trkpt lat="48.87002" lon="1.76306">
        <ele>144</ele>
        <time>2018-10-21T13:08:40Z</time>
      </trkpt>
      <trkpt lat="48.86996" lon="1.76293">
        <ele>144</ele>
        <time>2018-10-21T13:08:48Z</time>
      </trkpt>
      <trkpt lat="48.86991" lon="1.76281">
        <ele>144</ele>
        <time>2018-10-21T13:08:59Z</time>
      </trkpt>
      <trkpt lat="48.86985" lon="1.7627">
        <ele>146</ele>
        <time>2018-10-21T13:09:17Z</time>
      </trkpt>
      <trkpt lat="48.86978" lon="1.7626">
        <ele>147</ele>
        <time>2018-10-21T13:09:24Z</time>
      </trkpt>
      <trkpt lat="48.86972" lon="1.76249">
        <ele>148</ele>
        <time>2018-10-21T13:09:32Z</time>
      </trkpt>
      <trkpt lat="48.86965" lon="1.76239">
        <ele>149</ele>
        <time>2018-10-21T13:09:41Z</time>
      </trkpt>
      <trkpt lat="48.86974" lon="1.76237">
        <ele>150</ele>
        <time>2018-10-21T13:10:25Z</time>
      </trkpt>
      <trkpt lat="48.86965" lon="1.76232">
        <ele>152</ele>
        <time>2018-10-21T13:10:42Z</time>
      </trkpt>
      <trkpt lat="48.86958" lon="1.76222">
        <ele>154</ele>
        <time>2018-10-21T13:10:48Z</time>
      </trkpt>
      <trkpt lat="48.86952" lon="1.7621">
        <ele>155</ele>
        <time>2018-10-21T13:10:54Z</time>
      </trkpt>
      <trkpt lat="48.86947" lon="1.76199">
        <ele>155</ele>
        <time>2018-10-21T13:11:02Z</time>
      </trkpt>
      <trkpt lat="48.8694" lon="1.76188">
        <ele>154</ele>
        <time>2018-10-21T13:11:09Z</time>
      </trkpt>
      <trkpt lat="48.86935" lon="1.76176">
        <ele>154</ele>
        <time>2018-10-21T13:11:17Z</time>
      </trkpt>
      <trkpt lat="48.86929" lon="1.76165">
        <ele>154</ele>
        <time>2018-10-21T13:11:27Z</time>
      </trkpt>
      <trkpt lat="48.86921" lon="1.76157">
        <ele>155</ele>
        <time>2018-10-21T13:13:49Z</time>
      </trkpt>
      <trkpt lat="48.86915" lon="1.76144">
        <ele>154</ele>
        <time>2018-10-21T13:13:58Z</time>
      </trkpt>
      <trkpt lat="48.86911" lon="1.76131">
        <ele>153</ele>
        <time>2018-10-21T13:14:09Z</time>
      </trkpt>
      <trkpt lat="48.86906" lon="1.76118">
        <ele>152</ele>
        <time>2018-10-21T13:14:18Z</time>
      </trkpt>
      <trkpt lat="48.86902" lon="1.76106">
        <ele>151</ele>
        <time>2018-10-21T13:14:26Z</time>
      </trkpt>
      <trkpt lat="48.86896" lon="1.76092">
        <ele>149</ele>
        <time>2018-10-21T13:14:35Z</time>
      </trkpt>
      <trkpt lat="48.86891" lon="1.76081">
        <ele>148</ele>
        <time>2018-10-21T13:14:41Z</time>
      </trkpt>
      <trkpt lat="48.86883" lon="1.76073">
        <ele>148</ele>
        <time>2018-10-21T13:14:48Z</time>
      </trkpt>
      <trkpt lat="48.86879" lon="1.7606">
        <ele>148</ele>
        <time>2018-10-21T13:14:57Z</time>
      </trkpt>
      <trkpt lat="48.86875" lon="1.76047">
        <ele>149</ele>
        <time>2018-10-21T13:15:09Z</time>
      </trkpt>
      <trkpt lat="48.86866" lon="1.76043">
        <ele>148</ele>
        <time>2018-10-21T13:15:25Z</time>
      </trkpt>
      <trkpt lat="48.86865" lon="1.76057">
        <ele>148</ele>
        <time>2018-10-21T13:16:01Z</time>
      </trkpt>
      <trkpt lat="48.86859" lon="1.76067">
        <ele>148</ele>
        <time>2018-10-21T13:16:11Z</time>
      </trkpt>
      <trkpt lat="48.86852" lon="1.76079">
        <ele>147</ele>
        <time>2018-10-21T13:16:20Z</time>
      </trkpt>
      <trkpt lat="48.86847" lon="1.76091">
        <ele>146</ele>
        <time>2018-10-21T13:16:28Z</time>
      </trkpt>
      <trkpt lat="48.86841" lon="1.76103">
        <ele>146</ele>
        <time>2018-10-21T13:16:36Z</time>
      </trkpt>
      <trkpt lat="48.86836" lon="1.76114">
        <ele>145</ele>
        <time>2018-10-21T13:16:45Z</time>
      </trkpt>
      <trkpt lat="48.86831" lon="1.76126">
        <ele>145</ele>
        <time>2018-10-21T13:16:52Z</time>
      </trkpt>
      <trkpt lat="48.86834" lon="1.7614">
        <ele>144</ele>
        <time>2018-10-21T13:16:59Z</time>
      </trkpt>
      <trkpt lat="48.86825" lon="1.76143">
        <ele>143</ele>
        <time>2018-10-21T13:17:11Z</time>
      </trkpt>
      <trkpt lat="48.86816" lon="1.76139">
        <ele>143</ele>
        <time>2018-10-21T13:17:17Z</time>
      </trkpt>
      <trkpt lat="48.86807" lon="1.76142">
        <ele>142</ele>
        <time>2018-10-21T13:17:25Z</time>
      </trkpt>
      <trkpt lat="48.86798" lon="1.7615">
        <ele>141</ele>
        <time>2018-10-21T13:17:33Z</time>
      </trkpt>
      <trkpt lat="48.86789" lon="1.76155">
        <ele>141</ele>
        <time>2018-10-21T13:17:41Z</time>
      </trkpt>
      <trkpt lat="48.8678" lon="1.7616">
        <ele>140</ele>
        <time>2018-10-21T13:17:48Z</time>
      </trkpt>
      <trkpt lat="48.86771" lon="1.76166">
        <ele>141</ele>
        <time>2018-10-21T13:17:56Z</time>
      </trkpt>
      <trkpt lat="48.86761" lon="1.76171">
        <ele>141</ele>
        <time>2018-10-21T13:18:03Z</time>
      </trkpt>
      <trkpt lat="48.86752" lon="1.76171">
        <ele>141</ele>
        <time>2018-10-21T13:18:11Z</time>
      </trkpt>
      <trkpt lat="48.86743" lon="1.76174">
        <ele>142</ele>
        <time>2018-10-21T13:18:18Z</time>
      </trkpt>
      <trkpt lat="48.86735" lon="1.76179">
        <ele>142</ele>
        <time>2018-10-21T13:18:25Z</time>
      </trkpt>
      <trkpt lat="48.86727" lon="1.76187">
        <ele>142</ele>
        <time>2018-10-21T13:18:32Z</time>
      </trkpt>
      <trkpt lat="48.8672" lon="1.76199">
        <ele>141</ele>
        <time>2018-10-21T13:18:39Z</time>
      </trkpt>
      <trkpt lat="48.86712" lon="1.76209">
        <ele>141</ele>
        <time>2018-10-21T13:18:45Z</time>
      </trkpt>
      <trkpt lat="48.86702" lon="1.76214">
        <ele>140</ele>
        <time>2018-10-21T13:18:52Z</time>
      </trkpt>
      <trkpt lat="48.86694" lon="1.76221">
        <ele>139</ele>
        <time>2018-10-21T13:18:59Z</time>
      </trkpt>
      <trkpt lat="48.86686" lon="1.76231">
        <ele>139</ele>
        <time>2018-10-21T13:19:05Z</time>
      </trkpt>
      <trkpt lat="48.86679" lon="1.76241">
        <ele>139</ele>
        <time>2018-10-21T13:19:11Z</time>
      </trkpt>
      <trkpt lat="48.86673" lon="1.76251">
        <ele>138</ele>
        <time>2018-10-21T13:19:17Z</time>
      </trkpt>
      <trkpt lat="48.86666" lon="1.76263">
        <ele>138</ele>
        <time>2018-10-21T13:19:24Z</time>
      </trkpt>
      <trkpt lat="48.8666" lon="1.76273">
        <ele>138</ele>
        <time>2018-10-21T13:19:31Z</time>
      </trkpt>
      <trkpt lat="48.86655" lon="1.76286">
        <ele>138</ele>
        <time>2018-10-21T13:19:38Z</time>
      </trkpt>
      <trkpt lat="48.8665" lon="1.76298">
        <ele>137</ele>
        <time>2018-10-21T13:19:44Z</time>
      </trkpt>
      <trkpt lat="48.86644" lon="1.76312">
        <ele>137</ele>
        <time>2018-10-21T13:19:51Z</time>
      </trkpt>
      <trkpt lat="48.86639" lon="1.76323">
        <ele>137</ele>
        <time>2018-10-21T13:19:57Z</time>
      </trkpt>
      <trkpt lat="48.86634" lon="1.76334">
        <ele>136</ele>
        <time>2018-10-21T13:20:03Z</time>
      </trkpt>
      <trkpt lat="48.86629" lon="1.76347">
        <ele>136</ele>
        <time>2018-10-21T13:20:10Z</time>
      </trkpt>
      <trkpt lat="48.86623" lon="1.76359">
        <ele>136</ele>
        <time>2018-10-21T13:20:17Z</time>
      </trkpt>
      <trkpt lat="48.86619" lon="1.76372">
        <ele>135</ele>
        <time>2018-10-21T13:20:25Z</time>
      </trkpt>
      <trkpt lat="48.86613" lon="1.76384">
        <ele>135</ele>
        <time>2018-10-21T13:20:31Z</time>
      </trkpt>
      <trkpt lat="48.86608" lon="1.76398">
        <ele>135</ele>
        <time>2018-10-21T13:20:38Z</time>
      </trkpt>
      <trkpt lat="48.86603" lon="1.76409">
        <ele>135</ele>
        <time>2018-10-21T13:20:45Z</time>
      </trkpt>
      <trkpt lat="48.86597" lon="1.76421">
        <ele>135</ele>
        <time>2018-10-21T13:20:51Z</time>
      </trkpt>
      <trkpt lat="48.86592" lon="1.76433">
        <ele>135</ele>
        <time>2018-10-21T13:20:58Z</time>
      </trkpt>
      <trkpt lat="48.86587" lon="1.76446">
        <ele>135</ele>
        <time>2018-10-21T13:21:04Z</time>
      </trkpt>
      <trkpt lat="48.86582" lon="1.76461">
        <ele>135</ele>
        <time>2018-10-21T13:21:11Z</time>
      </trkpt>
      <trkpt lat="48.86576" lon="1.76474">
        <ele>135</ele>
        <time>2018-10-21T13:21:19Z</time>
      </trkpt>
      <trkpt lat="48.86569" lon="1.76482">
        <ele>135</ele>
        <time>2018-10-21T13:21:27Z</time>
      </trkpt>
      <trkpt lat="48.8656" lon="1.76476">
        <ele>134</ele>
        <time>2018-10-21T13:21:34Z</time>
      </trkpt>
      <trkpt lat="48.86552" lon="1.76468">
        <ele>134</ele>
        <time>2018-10-21T13:21:40Z</time>
      </trkpt>
      <trkpt lat="48.86543" lon="1.7646">
        <ele>133</ele>
        <time>2018-10-21T13:21:47Z</time>
      </trkpt>
      <trkpt lat="48.86534" lon="1.76454">
        <ele>132</ele>
        <time>2018-10-21T13:21:55Z</time>
      </trkpt>
      <trkpt lat="48.86526" lon="1.76448">
        <ele>132</ele>
        <time>2018-10-21T13:22:01Z</time>
      </trkpt>
      <trkpt lat="48.86518" lon="1.7644">
        <ele>131</ele>
        <time>2018-10-21T13:22:08Z</time>
      </trkpt>
      <trkpt lat="48.86509" lon="1.76434">
        <ele>131</ele>
        <time>2018-10-21T13:22:15Z</time>
      </trkpt>
      <trkpt lat="48.86499" lon="1.76428">
        <ele>130</ele>
        <time>2018-10-21T13:22:22Z</time>
      </trkpt>
      <trkpt lat="48.8649" lon="1.76423">
        <ele>130</ele>
        <time>2018-10-21T13:22:29Z</time>
      </trkpt>
      <trkpt lat="48.86482" lon="1.76414">
        <ele>129</ele>
        <time>2018-10-21T13:22:37Z</time>
      </trkpt>
      <trkpt lat="48.86473" lon="1.76406">
        <ele>129</ele>
        <time>2018-10-21T13:22:44Z</time>
      </trkpt>
      <trkpt lat="48.86465" lon="1.764">
        <ele>129</ele>
        <time>2018-10-21T13:22:50Z</time>
      </trkpt>
      <trkpt lat="48.86456" lon="1.76393">
        <ele>129</ele>
        <time>2018-10-21T13:22:56Z</time>
      </trkpt>
      <trkpt lat="48.86448" lon="1.76387">
        <ele>129</ele>
        <time>2018-10-21T13:23:02Z</time>
      </trkpt>
      <trkpt lat="48.8644" lon="1.76378">
        <ele>129</ele>
        <time>2018-10-21T13:23:10Z</time>
      </trkpt>
      <trkpt lat="48.86432" lon="1.76372">
        <ele>129</ele>
        <time>2018-10-21T13:23:16Z</time>
      </trkpt>
      <trkpt lat="48.86424" lon="1.76365">
        <ele>128</ele>
        <time>2018-10-21T13:23:23Z</time>
      </trkpt>
      <trkpt lat="48.86415" lon="1.76358">
        <ele>128</ele>
        <time>2018-10-21T13:23:30Z</time>
      </trkpt>
      <trkpt lat="48.86406" lon="1.76352">
        <ele>127</ele>
        <time>2018-10-21T13:23:37Z</time>
      </trkpt>
      <trkpt lat="48.86397" lon="1.76344">
        <ele>127</ele>
        <time>2018-10-21T13:23:44Z</time>
      </trkpt>
      <trkpt lat="48.86389" lon="1.76338">
        <ele>127</ele>
        <time>2018-10-21T13:23:50Z</time>
      </trkpt>
      <trkpt lat="48.8638" lon="1.76332">
        <ele>127</ele>
        <time>2018-10-21T13:23:57Z</time>
      </trkpt>
      <trkpt lat="48.86371" lon="1.76325">
        <ele>127</ele>
        <time>2018-10-21T13:24:04Z</time>
      </trkpt>
      <trkpt lat="48.86363" lon="1.76318">
        <ele>127</ele>
        <time>2018-10-21T13:24:12Z</time>
      </trkpt>
      <trkpt lat="48.86353" lon="1.76311">
        <ele>127</ele>
        <time>2018-10-21T13:24:19Z</time>
      </trkpt>
      <trkpt lat="48.86345" lon="1.76305">
        <ele>127</ele>
        <time>2018-10-21T13:24:26Z</time>
      </trkpt>
      <trkpt lat="48.86337" lon="1.76297">
        <ele>127</ele>
        <time>2018-10-21T13:24:32Z</time>
      </trkpt>
      <trkpt lat="48.86328" lon="1.76292">
        <ele>127</ele>
        <time>2018-10-21T13:24:39Z</time>
      </trkpt>
      <trkpt lat="48.86319" lon="1.76286">
        <ele>127</ele>
        <time>2018-10-21T13:24:46Z</time>
      </trkpt>
      <trkpt lat="48.86311" lon="1.76279">
        <ele>127</ele>
        <time>2018-10-21T13:24:52Z</time>
      </trkpt>
      <trkpt lat="48.86302" lon="1.76273">
        <ele>127</ele>
        <time>2018-10-21T13:25:00Z</time>
      </trkpt>
      <trkpt lat="48.86294" lon="1.76267">
        <ele>127</ele>
        <time>2018-10-21T13:25:06Z</time>
      </trkpt>
      <trkpt lat="48.86285" lon="1.76263">
        <ele>126</ele>
        <time>2018-10-21T13:25:14Z</time>
      </trkpt>
      <trkpt lat="48.86276" lon="1.76255">
        <ele>126</ele>
        <time>2018-10-21T13:25:20Z</time>
      </trkpt>
      <trkpt lat="48.86268" lon="1.76249">
        <ele>125</ele>
        <time>2018-10-21T13:25:27Z</time>
      </trkpt>
      <trkpt lat="48.86259" lon="1.76244">
        <ele>124</ele>
        <time>2018-10-21T13:25:34Z</time>
      </trkpt>
      <trkpt lat="48.8625" lon="1.76236">
        <ele>124</ele>
        <time>2018-10-21T13:25:41Z</time>
      </trkpt>
      <trkpt lat="48.86243" lon="1.76226">
        <ele>124</ele>
        <time>2018-10-21T13:25:48Z</time>
      </trkpt>
      <trkpt lat="48.86235" lon="1.76219">
        <ele>125</ele>
        <time>2018-10-21T13:25:55Z</time>
      </trkpt>
      <trkpt lat="48.86227" lon="1.76211">
        <ele>124</ele>
        <time>2018-10-21T13:26:07Z</time>
      </trkpt>
      <trkpt lat="48.86222" lon="1.76199">
        <ele>123</ele>
        <time>2018-10-21T13:26:32Z</time>
      </trkpt>
      <trkpt lat="48.86223" lon="1.76184">
        <ele>124</ele>
        <time>2018-10-21T13:26:39Z</time>
      </trkpt>
      <trkpt lat="48.86222" lon="1.76169">
        <ele>125</ele>
        <time>2018-10-21T13:26:49Z</time>
      </trkpt>
      <trkpt lat="48.86223" lon="1.76154">
        <ele>125</ele>
        <time>2018-10-21T13:26:59Z</time>
      </trkpt>
      <trkpt lat="48.86224" lon="1.76139">
        <ele>125</ele>
        <time>2018-10-21T13:27:07Z</time>
      </trkpt>
      <trkpt lat="48.86226" lon="1.76124">
        <ele>125</ele>
        <time>2018-10-21T13:27:15Z</time>
      </trkpt>
      <trkpt lat="48.86226" lon="1.7611">
        <ele>125</ele>
        <time>2018-10-21T13:27:22Z</time>
      </trkpt>
      <trkpt lat="48.86226" lon="1.76095">
        <ele>125</ele>
        <time>2018-10-21T13:27:29Z</time>
      </trkpt>
      <trkpt lat="48.86227" lon="1.76082">
        <ele>125</ele>
        <time>2018-10-21T13:27:36Z</time>
      </trkpt>
      <trkpt lat="48.86228" lon="1.76066">
        <ele>125</ele>
        <time>2018-10-21T13:27:43Z</time>
      </trkpt>
      <trkpt lat="48.86229" lon="1.76052">
        <ele>125</ele>
        <time>2018-10-21T13:27:49Z</time>
      </trkpt>
      <trkpt lat="48.8623" lon="1.76037">
        <ele>124</ele>
        <time>2018-10-21T13:27:57Z</time>
      </trkpt>
      <trkpt lat="48.86229" lon="1.76023">
        <ele>123</ele>
        <time>2018-10-21T13:28:05Z</time>
      </trkpt>
      <trkpt lat="48.8623" lon="1.76008">
        <ele>123</ele>
        <time>2018-10-21T13:28:12Z</time>
      </trkpt>
      <trkpt lat="48.8623" lon="1.75994">
        <ele>122</ele>
        <time>2018-10-21T13:28:19Z</time>
      </trkpt>
      <trkpt lat="48.86229" lon="1.75979">
        <ele>122</ele>
        <time>2018-10-21T13:28:26Z</time>
      </trkpt>
      <trkpt lat="48.8623" lon="1.75965">
        <ele>122</ele>
        <time>2018-10-21T13:28:32Z</time>
      </trkpt>
      <trkpt lat="48.86232" lon="1.75951">
        <ele>122</ele>
        <time>2018-10-21T13:28:40Z</time>
      </trkpt>
      <trkpt lat="48.86235" lon="1.75936">
        <ele>121</ele>
        <time>2018-10-21T13:28:48Z</time>
      </trkpt>
      <trkpt lat="48.86239" lon="1.75923">
        <ele>121</ele>
        <time>2018-10-21T13:28:55Z</time>
      </trkpt>
      <trkpt lat="48.86243" lon="1.7591">
        <ele>121</ele>
        <time>2018-10-21T13:29:03Z</time>
      </trkpt>
      <trkpt lat="48.86249" lon="1.75898">
        <ele>121</ele>
        <time>2018-10-21T13:29:10Z</time>
      </trkpt>
      <trkpt lat="48.86253" lon="1.75886">
        <ele>121</ele>
        <time>2018-10-21T13:29:17Z</time>
      </trkpt>
      <trkpt lat="48.86258" lon="1.75874">
        <ele>121</ele>
        <time>2018-10-21T13:29:24Z</time>
      </trkpt>
      <trkpt lat="48.86264" lon="1.75861">
        <ele>121</ele>
        <time>2018-10-21T13:29:32Z</time>
      </trkpt>
      <trkpt lat="48.86271" lon="1.75851">
        <ele>121</ele>
        <time>2018-10-21T13:29:39Z</time>
      </trkpt>
      <trkpt lat="48.86277" lon="1.7584">
        <ele>122</ele>
        <time>2018-10-21T13:29:46Z</time>
      </trkpt>
      <trkpt lat="48.86283" lon="1.75829">
        <ele>122</ele>
        <time>2018-10-21T13:29:53Z</time>
      </trkpt>
      <trkpt lat="48.8629" lon="1.75819">
        <ele>121</ele>
        <time>2018-10-21T13:30:01Z</time>
      </trkpt>
      <trkpt lat="48.86297" lon="1.7581">
        <ele>122</ele>
        <time>2018-10-21T13:30:08Z</time>
      </trkpt>
      <trkpt lat="48.86304" lon="1.758">
        <ele>122</ele>
        <time>2018-10-21T13:30:14Z</time>
      </trkpt>
      <trkpt lat="48.8631" lon="1.75788">
        <ele>122</ele>
        <time>2018-10-21T13:30:21Z</time>
      </trkpt>
      <trkpt lat="48.86315" lon="1.75775">
        <ele>122</ele>
        <time>2018-10-21T13:30:29Z</time>
      </trkpt>
      <trkpt lat="48.86321" lon="1.75764">
        <ele>123</ele>
        <time>2018-10-21T13:30:36Z</time>
      </trkpt>
      <trkpt lat="48.86327" lon="1.75754">
        <ele>124</ele>
        <time>2018-10-21T13:30:43Z</time>
      </trkpt>
      <trkpt lat="48.8633" lon="1.75741">
        <ele>124</ele>
        <time>2018-10-21T13:30:50Z</time>
      </trkpt>
      <trkpt lat="48.86335" lon="1.75728">
        <ele>125</ele>
        <time>2018-10-21T13:30:58Z</time>
      </trkpt>
      <trkpt lat="48.8634" lon="1.75716">
        <ele>125</ele>
        <time>2018-10-21T13:31:04Z</time>
      </trkpt>
      <trkpt lat="48.86347" lon="1.75706">
        <ele>125</ele>
        <time>2018-10-21T13:31:11Z</time>
      </trkpt>
      <trkpt lat="48.86354" lon="1.75694">
        <ele>125</ele>
        <time>2018-10-21T13:31:17Z</time>
      </trkpt>
      <trkpt lat="48.8636" lon="1.75682">
        <ele>125</ele>
        <time>2018-10-21T13:31:22Z</time>
      </trkpt>
      <trkpt lat="48.86363" lon="1.75669">
        <ele>125</ele>
        <time>2018-10-21T13:31:31Z</time>
      </trkpt>
      <trkpt lat="48.86367" lon="1.75654">
        <ele>125</ele>
        <time>2018-10-21T13:31:38Z</time>
      </trkpt>
      <trkpt lat="48.86371" lon="1.75639">
        <ele>126</ele>
        <time>2018-10-21T13:31:46Z</time>
      </trkpt>
      <trkpt lat="48.86374" lon="1.75624">
        <ele>127</ele>
        <time>2018-10-21T13:31:55Z</time>
      </trkpt>
      <trkpt lat="48.86377" lon="1.75611">
        <ele>127</ele>
        <time>2018-10-21T13:32:01Z</time>
      </trkpt>
      <trkpt lat="48.86381" lon="1.75598">
        <ele>127</ele>
        <time>2018-10-21T13:32:07Z</time>
      </trkpt>
      <trkpt lat="48.86386" lon="1.75585">
        <ele>127</ele>
        <time>2018-10-21T13:32:14Z</time>
      </trkpt>
      <trkpt lat="48.86389" lon="1.75571">
        <ele>127</ele>
        <time>2018-10-21T13:32:20Z</time>
      </trkpt>
      <trkpt lat="48.86393" lon="1.75557">
        <ele>127</ele>
        <time>2018-10-21T13:32:27Z</time>
      </trkpt>
      <trkpt lat="48.86398" lon="1.75544">
        <ele>126</ele>
        <time>2018-10-21T13:32:34Z</time>
      </trkpt>
      <trkpt lat="48.86403" lon="1.75532">
        <ele>126</ele>
        <time>2018-10-21T13:32:41Z</time>
      </trkpt>
      <trkpt lat="48.86408" lon="1.7552">
        <ele>126</ele>
        <time>2018-10-21T13:32:48Z</time>
      </trkpt>
      <trkpt lat="48.86414" lon="1.75508">
        <ele>126</ele>
        <time>2018-10-21T13:32:55Z</time>
      </trkpt>
      <trkpt lat="48.86421" lon="1.75496">
        <ele>126</ele>
        <time>2018-10-21T13:33:02Z</time>
      </trkpt>
      <trkpt lat="48.86427" lon="1.75485">
        <ele>126</ele>
        <time>2018-10-21T13:33:09Z</time>
      </trkpt>
      <trkpt lat="48.86432" lon="1.75473">
        <ele>126</ele>
        <time>2018-10-21T13:33:16Z</time>
      </trkpt>
      <trkpt lat="48.86438" lon="1.75463">
        <ele>126</ele>
        <time>2018-10-21T13:33:22Z</time>
      </trkpt>
      <trkpt lat="48.86444" lon="1.75452">
        <ele>126</ele>
        <time>2018-10-21T13:33:28Z</time>
      </trkpt>
      <trkpt lat="48.86451" lon="1.75441">
        <ele>126</ele>
        <time>2018-10-21T13:33:35Z</time>
      </trkpt>
      <trkpt lat="48.86456" lon="1.75428">
        <ele>126</ele>
        <time>2018-10-21T13:33:42Z</time>
      </trkpt>
      <trkpt lat="48.86462" lon="1.75416">
        <ele>126</ele>
        <time>2018-10-21T13:33:50Z</time>
      </trkpt>
      <trkpt lat="48.86468" lon="1.75404">
        <ele>125</ele>
        <time>2018-10-21T13:33:57Z</time>
      </trkpt>
      <trkpt lat="48.86473" lon="1.7539">
        <ele>125</ele>
        <time>2018-10-21T13:34:05Z</time>
      </trkpt>
      <trkpt lat="48.86478" lon="1.75377">
        <ele>125</ele>
        <time>2018-10-21T13:34:11Z</time>
      </trkpt>
      <trkpt lat="48.86483" lon="1.75364">
        <ele>124</ele>
        <time>2018-10-21T13:34:17Z</time>
      </trkpt>
      <trkpt lat="48.86488" lon="1.75351">
        <ele>124</ele>
        <time>2018-10-21T13:34:24Z</time>
      </trkpt>
      <trkpt lat="48.86492" lon="1.75338">
        <ele>124</ele>
        <time>2018-10-21T13:34:30Z</time>
      </trkpt>
      <trkpt lat="48.86499" lon="1.75328">
        <ele>124</ele>
        <time>2018-10-21T13:34:37Z</time>
      </trkpt>
      <trkpt lat="48.86505" lon="1.75318">
        <ele>124</ele>
        <time>2018-10-21T13:34:44Z</time>
      </trkpt>
      <trkpt lat="48.8651" lon="1.75304">
        <ele>125</ele>
        <time>2018-10-21T13:34:51Z</time>
      </trkpt>
      <trkpt lat="48.86514" lon="1.75292">
        <ele>126</ele>
        <time>2018-10-21T13:34:57Z</time>
      </trkpt>
      <trkpt lat="48.86517" lon="1.75279">
        <ele>126</ele>
        <time>2018-10-21T13:35:04Z</time>
      </trkpt>
      <trkpt lat="48.86521" lon="1.75266">
        <ele>126</ele>
        <time>2018-10-21T13:35:10Z</time>
      </trkpt>
      <trkpt lat="48.86527" lon="1.75253">
        <ele>125</ele>
        <time>2018-10-21T13:35:17Z</time>
      </trkpt>
      <trkpt lat="48.86531" lon="1.75241">
        <ele>125</ele>
        <time>2018-10-21T13:35:24Z</time>
      </trkpt>
      <trkpt lat="48.86537" lon="1.75229">
        <ele>125</ele>
        <time>2018-10-21T13:35:31Z</time>
      </trkpt>
      <trkpt lat="48.86542" lon="1.75218">
        <ele>125</ele>
        <time>2018-10-21T13:35:37Z</time>
      </trkpt>
      <trkpt lat="48.86548" lon="1.75206">
        <ele>125</ele>
        <time>2018-10-21T13:35:44Z</time>
      </trkpt>
      <trkpt lat="48.86554" lon="1.75195">
        <ele>125</ele>
        <time>2018-10-21T13:35:51Z</time>
      </trkpt>
      <trkpt lat="48.8656" lon="1.75183">
        <ele>126</ele>
        <time>2018-10-21T13:35:58Z</time>
      </trkpt>
      <trkpt lat="48.86565" lon="1.75171">
        <ele>126</ele>
        <time>2018-10-21T13:36:05Z</time>
      </trkpt>
      <trkpt lat="48.86569" lon="1.75157">
        <ele>125</ele>
        <time>2018-10-21T13:36:12Z</time>
      </trkpt>
      <trkpt lat="48.86576" lon="1.75148">
        <ele>125</ele>
        <time>2018-10-21T13:36:19Z</time>
      </trkpt>
      <trkpt lat="48.86581" lon="1.75136">
        <ele>125</ele>
        <time>2018-10-21T13:36:29Z</time>
      </trkpt>
      <trkpt lat="48.86576" lon="1.75123">
        <ele>125</ele>
        <time>2018-10-21T13:37:57Z</time>
      </trkpt>
      <trkpt lat="48.86571" lon="1.7511">
        <ele>125</ele>
        <time>2018-10-21T13:38:06Z</time>
      </trkpt>
      <trkpt lat="48.86563" lon="1.75101">
        <ele>124</ele>
        <time>2018-10-21T13:38:15Z</time>
      </trkpt>
      <trkpt lat="48.86556" lon="1.7509">
        <ele>123</ele>
        <time>2018-10-21T13:38:23Z</time>
      </trkpt>
      <trkpt lat="48.86549" lon="1.75079">
        <ele>122</ele>
        <time>2018-10-21T13:38:30Z</time>
      </trkpt>
      <trkpt lat="48.86543" lon="1.75067">
        <ele>122</ele>
        <time>2018-10-21T13:38:38Z</time>
      </trkpt>
      <trkpt lat="48.86535" lon="1.75057">
        <ele>121</ele>
        <time>2018-10-21T13:38:47Z</time>
      </trkpt>
      <trkpt lat="48.86528" lon="1.75046">
        <ele>120</ele>
        <time>2018-10-21T13:38:56Z</time>
      </trkpt>
      <trkpt lat="48.86523" lon="1.75033">
        <ele>120</ele>
        <time>2018-10-21T13:39:03Z</time>
      </trkpt>
      <trkpt lat="48.86517" lon="1.75021">
        <ele>120</ele>
        <time>2018-10-21T13:39:10Z</time>
      </trkpt>
      <trkpt lat="48.8651" lon="1.75011">
        <ele>120</ele>
        <time>2018-10-21T13:39:17Z</time>
      </trkpt>
      <trkpt lat="48.86503" lon="1.75">
        <ele>119</ele>
        <time>2018-10-21T13:39:24Z</time>
      </trkpt>
      <trkpt lat="48.86497" lon="1.74988">
        <ele>119</ele>
        <time>2018-10-21T13:39:31Z</time>
      </trkpt>
      <trkpt lat="48.86494" lon="1.74974">
        <ele>119</ele>
        <time>2018-10-21T13:39:37Z</time>
      </trkpt>
      <trkpt lat="48.86496" lon="1.74959">
        <ele>119</ele>
        <time>2018-10-21T13:39:45Z</time>
      </trkpt>
      <trkpt lat="48.86502" lon="1.74947">
        <ele>119</ele>
        <time>2018-10-21T13:39:52Z</time>
      </trkpt>
      <trkpt lat="48.86507" lon="1.74935">
        <ele>120</ele>
        <time>2018-10-21T13:39:59Z</time>
      </trkpt>
      <trkpt lat="48.86514" lon="1.74925">
        <ele>120</ele>
        <time>2018-10-21T13:40:05Z</time>
      </trkpt>
      <trkpt lat="48.86518" lon="1.74913">
        <ele>120</ele>
        <time>2018-10-21T13:40:11Z</time>
      </trkpt>
      <trkpt lat="48.86524" lon="1.74901">
        <ele>119</ele>
        <time>2018-10-21T13:40:19Z</time>
      </trkpt>
      <trkpt lat="48.86531" lon="1.74891">
        <ele>119</ele>
        <time>2018-10-21T13:40:25Z</time>
      </trkpt>
      <trkpt lat="48.86537" lon="1.74879">
        <ele>119</ele>
        <time>2018-10-21T13:40:31Z</time>
      </trkpt>
      <trkpt lat="48.86543" lon="1.74867">
        <ele>119</ele>
        <time>2018-10-21T13:40:38Z</time>
      </trkpt>
      <trkpt lat="48.86551" lon="1.74857">
        <ele>119</ele>
        <time>2018-10-21T13:40:45Z</time>
      </trkpt>
      <trkpt lat="48.86559" lon="1.74848">
        <ele>120</ele>
        <time>2018-10-21T13:40:52Z</time>
      </trkpt>
      <trkpt lat="48.86565" lon="1.74839">
        <ele>121</ele>
        <time>2018-10-21T13:40:59Z</time>
      </trkpt>
      <trkpt lat="48.86574" lon="1.7483">
        <ele>121</ele>
        <time>2018-10-21T13:41:05Z</time>
      </trkpt>
      <trkpt lat="48.86583" lon="1.74826">
        <ele>121</ele>
        <time>2018-10-21T13:41:12Z</time>
      </trkpt>
      <trkpt lat="48.86592" lon="1.7482">
        <ele>121</ele>
        <time>2018-10-21T13:41:19Z</time>
      </trkpt>
      <trkpt lat="48.86601" lon="1.74816">
        <ele>121</ele>
        <time>2018-10-21T13:41:26Z</time>
      </trkpt>
      <trkpt lat="48.8661" lon="1.74812">
        <ele>121</ele>
        <time>2018-10-21T13:41:33Z</time>
      </trkpt>
      <trkpt lat="48.86619" lon="1.74808">
        <ele>122</ele>
        <time>2018-10-21T13:41:39Z</time>
      </trkpt>
      <trkpt lat="48.86629" lon="1.74806">
        <ele>122</ele>
        <time>2018-10-21T13:41:46Z</time>
      </trkpt>
      <trkpt lat="48.86638" lon="1.74802">
        <ele>123</ele>
        <time>2018-10-21T13:41:53Z</time>
      </trkpt>
      <trkpt lat="48.86647" lon="1.74797">
        <ele>123</ele>
        <time>2018-10-21T13:41:59Z</time>
      </trkpt>
      <trkpt lat="48.86655" lon="1.7479">
        <ele>123</ele>
        <time>2018-10-21T13:42:05Z</time>
      </trkpt>
      <trkpt lat="48.8666" lon="1.74778">
        <ele>123</ele>
        <time>2018-10-21T13:42:12Z</time>
      </trkpt>
      <trkpt lat="48.86665" lon="1.74764">
        <ele>123</ele>
        <time>2018-10-21T13:42:19Z</time>
      </trkpt>
      <trkpt lat="48.8667" lon="1.74751">
        <ele>122</ele>
        <time>2018-10-21T13:42:25Z</time>
      </trkpt>
      <trkpt lat="48.86676" lon="1.74739">
        <ele>122</ele>
        <time>2018-10-21T13:42:33Z</time>
      </trkpt>
      <trkpt lat="48.86682" lon="1.74727">
        <ele>122</ele>
        <time>2018-10-21T13:42:41Z</time>
      </trkpt>
      <trkpt lat="48.86685" lon="1.74714">
        <ele>122</ele>
        <time>2018-10-21T13:42:50Z</time>
      </trkpt>
      <trkpt lat="48.86684" lon="1.74699">
        <ele>122</ele>
        <time>2018-10-21T13:43:01Z</time>
      </trkpt>
      <trkpt lat="48.86686" lon="1.74685">
        <ele>122</ele>
        <time>2018-10-21T13:43:08Z</time>
      </trkpt>
      <trkpt lat="48.86688" lon="1.7467">
        <ele>121</ele>
        <time>2018-10-21T13:43:17Z</time>
      </trkpt>
      <trkpt lat="48.86689" lon="1.74656">
        <ele>121</ele>
        <time>2018-10-21T13:43:24Z</time>
      </trkpt>
      <trkpt lat="48.86691" lon="1.74642">
        <ele>121</ele>
        <time>2018-10-21T13:43:31Z</time>
      </trkpt>
      <trkpt lat="48.86693" lon="1.74629">
        <ele>121</ele>
        <time>2018-10-21T13:43:38Z</time>
      </trkpt>
      <trkpt lat="48.86694" lon="1.74613">
        <ele>121</ele>
        <time>2018-10-21T13:43:46Z</time>
      </trkpt>
      <trkpt lat="48.86695" lon="1.74598">
        <ele>120</ele>
        <time>2018-10-21T13:43:53Z</time>
      </trkpt>
      <trkpt lat="48.86695" lon="1.74584">
        <ele>120</ele>
        <time>2018-10-21T13:44:00Z</time>
      </trkpt>
      <trkpt lat="48.86696" lon="1.74569">
        <ele>120</ele>
        <time>2018-10-21T13:44:07Z</time>
      </trkpt>
      <trkpt lat="48.86696" lon="1.74554">
        <ele>120</ele>
        <time>2018-10-21T13:44:14Z</time>
      </trkpt>
      <trkpt lat="48.86698" lon="1.74541">
        <ele>120</ele>
        <time>2018-10-21T13:44:21Z</time>
      </trkpt>
      <trkpt lat="48.867" lon="1.74526">
        <ele>120</ele>
        <time>2018-10-21T13:44:28Z</time>
      </trkpt>
      <trkpt lat="48.86701" lon="1.74512">
        <ele>120</ele>
        <time>2018-10-21T13:44:35Z</time>
      </trkpt>
      <trkpt lat="48.86704" lon="1.74498">
        <ele>120</ele>
        <time>2018-10-21T13:44:42Z</time>
      </trkpt>
      <trkpt lat="48.86704" lon="1.74483">
        <ele>120</ele>
        <time>2018-10-21T13:44:49Z</time>
      </trkpt>
      <trkpt lat="48.86706" lon="1.74469">
        <ele>120</ele>
        <time>2018-10-21T13:44:55Z</time>
      </trkpt>
      <trkpt lat="48.86707" lon="1.74455">
        <ele>120</ele>
        <time>2018-10-21T13:45:02Z</time>
      </trkpt>
      <trkpt lat="48.86708" lon="1.7444">
        <ele>120</ele>
        <time>2018-10-21T13:45:09Z</time>
      </trkpt>
      <trkpt lat="48.86709" lon="1.74426">
        <ele>120</ele>
        <time>2018-10-21T13:45:15Z</time>
      </trkpt>
      <trkpt lat="48.86709" lon="1.74411">
        <ele>119</ele>
        <time>2018-10-21T13:45:23Z</time>
      </trkpt>
      <trkpt lat="48.86708" lon="1.74397">
        <ele>119</ele>
        <time>2018-10-21T13:45:29Z</time>
      </trkpt>
      <trkpt lat="48.86709" lon="1.74382">
        <ele>119</ele>
        <time>2018-10-21T13:45:37Z</time>
      </trkpt>
      <trkpt lat="48.86709" lon="1.74368">
        <ele>119</ele>
        <time>2018-10-21T13:45:43Z</time>
      </trkpt>
      <trkpt lat="48.86709" lon="1.74353">
        <ele>119</ele>
        <time>2018-10-21T13:45:50Z</time>
      </trkpt>
      <trkpt lat="48.86709" lon="1.74339">
        <ele>119</ele>
        <time>2018-10-21T13:45:56Z</time>
      </trkpt>
      <trkpt lat="48.86709" lon="1.74325">
        <ele>119</ele>
        <time>2018-10-21T13:46:03Z</time>
      </trkpt>
      <trkpt lat="48.86706" lon="1.7431">
        <ele>120</ele>
        <time>2018-10-21T13:46:12Z</time>
      </trkpt>
      <trkpt lat="48.86704" lon="1.74295">
        <ele>120</ele>
        <time>2018-10-21T13:46:19Z</time>
      </trkpt>
      <trkpt lat="48.86701" lon="1.7428">
        <ele>121</ele>
        <time>2018-10-21T13:46:27Z</time>
      </trkpt>
      <trkpt lat="48.86698" lon="1.74265">
        <ele>121</ele>
        <time>2018-10-21T13:46:35Z</time>
      </trkpt>
      <trkpt lat="48.86705" lon="1.74257">
        <ele>121</ele>
        <time>2018-10-21T13:48:26Z</time>
      </trkpt>
      <trkpt lat="48.86714" lon="1.74252">
        <ele>121</ele>
        <time>2018-10-21T13:48:34Z</time>
      </trkpt>
      <trkpt lat="48.86724" lon="1.74249">
        <ele>121</ele>
        <time>2018-10-21T13:48:42Z</time>
      </trkpt>
      <trkpt lat="48.86733" lon="1.74244">
        <ele>121</ele>
        <time>2018-10-21T13:48:48Z</time>
      </trkpt>
      <trkpt lat="48.86742" lon="1.7424">
        <ele>121</ele>
        <time>2018-10-21T13:48:57Z</time>
      </trkpt>
      <trkpt lat="48.86751" lon="1.74235">
        <ele>121</ele>
        <time>2018-10-21T13:49:03Z</time>
      </trkpt>
      <trkpt lat="48.8676" lon="1.74229">
        <ele>121</ele>
        <time>2018-10-21T13:49:10Z</time>
      </trkpt>
      <trkpt lat="48.8677" lon="1.74225">
        <ele>122</ele>
        <time>2018-10-21T13:49:19Z</time>
      </trkpt>
      <trkpt lat="48.86779" lon="1.74218">
        <ele>122</ele>
        <time>2018-10-21T13:49:26Z</time>
      </trkpt>
      <trkpt lat="48.86789" lon="1.74212">
        <ele>121</ele>
        <time>2018-10-21T13:49:34Z</time>
      </trkpt>
      <trkpt lat="48.86798" lon="1.74206">
        <ele>121</ele>
        <time>2018-10-21T13:49:41Z</time>
      </trkpt>
      <trkpt lat="48.86807" lon="1.742">
        <ele>121</ele>
        <time>2018-10-21T13:49:46Z</time>
      </trkpt>
      <trkpt lat="48.86815" lon="1.74195">
        <ele>121</ele>
        <time>2018-10-21T13:49:53Z</time>
      </trkpt>
      <trkpt lat="48.86824" lon="1.74188">
        <ele>122</ele>
        <time>2018-10-21T13:49:59Z</time>
      </trkpt>
      <trkpt lat="48.86833" lon="1.74181">
        <ele>122</ele>
        <time>2018-10-21T13:50:07Z</time>
      </trkpt>
      <trkpt lat="48.86841" lon="1.74172">
        <ele>122</ele>
        <time>2018-10-21T13:50:15Z</time>
      </trkpt>
      <trkpt lat="48.86848" lon="1.74164">
        <ele>122</ele>
        <time>2018-10-21T13:50:22Z</time>
      </trkpt>
      <trkpt lat="48.86856" lon="1.74156">
        <ele>122</ele>
        <time>2018-10-21T13:50:29Z</time>
      </trkpt>
      <trkpt lat="48.86865" lon="1.7415">
        <ele>121</ele>
        <time>2018-10-21T13:50:36Z</time>
      </trkpt>
      <trkpt lat="48.86874" lon="1.74144">
        <ele>121</ele>
        <time>2018-10-21T13:50:42Z</time>
      </trkpt>
      <trkpt lat="48.86882" lon="1.74135">
        <ele>121</ele>
        <time>2018-10-21T13:50:50Z</time>
      </trkpt>
      <trkpt lat="48.8689" lon="1.74125">
        <ele>120</ele>
        <time>2018-10-21T13:50:58Z</time>
      </trkpt>
      <trkpt lat="48.86899" lon="1.74119">
        <ele>120</ele>
        <time>2018-10-21T13:51:05Z</time>
      </trkpt>
      <trkpt lat="48.86907" lon="1.7411">
        <ele>119</ele>
        <time>2018-10-21T13:51:11Z</time>
      </trkpt>
      <trkpt lat="48.86916" lon="1.74104">
        <ele>120</ele>
        <time>2018-10-21T13:51:17Z</time>
      </trkpt>
      <trkpt lat="48.86925" lon="1.74096">
        <ele>120</ele>
        <time>2018-10-21T13:51:24Z</time>
      </trkpt>
      <trkpt lat="48.86933" lon="1.74089">
        <ele>120</ele>
        <time>2018-10-21T13:51:31Z</time>
      </trkpt>
      <trkpt lat="48.86942" lon="1.74082">
        <ele>120</ele>
        <time>2018-10-21T13:51:37Z</time>
      </trkpt>
      <trkpt lat="48.8695" lon="1.74072">
        <ele>120</ele>
        <time>2018-10-21T13:51:44Z</time>
      </trkpt>
      <trkpt lat="48.86957" lon="1.74062">
        <ele>120</ele>
        <time>2018-10-21T13:51:52Z</time>
      </trkpt>
      <trkpt lat="48.86965" lon="1.74055">
        <ele>120</ele>
        <time>2018-10-21T13:51:58Z</time>
      </trkpt>
      <trkpt lat="48.86975" lon="1.74048">
        <ele>120</ele>
        <time>2018-10-21T13:52:05Z</time>
      </trkpt>
      <trkpt lat="48.86984" lon="1.74043">
        <ele>120</ele>
        <time>2018-10-21T13:52:10Z</time>
      </trkpt>
      <trkpt lat="48.86993" lon="1.74039">
        <ele>121</ele>
        <time>2018-10-21T13:52:17Z</time>
      </trkpt>
      <trkpt lat="48.87003" lon="1.74033">
        <ele>121</ele>
        <time>2018-10-21T13:52:24Z</time>
      </trkpt>
      <trkpt lat="48.87012" lon="1.74029">
        <ele>121</ele>
        <time>2018-10-21T13:52:30Z</time>
      </trkpt>
      <trkpt lat="48.87022" lon="1.74025">
        <ele>122</ele>
        <time>2018-10-21T13:52:36Z</time>
      </trkpt>
      <trkpt lat="48.87031" lon="1.7402">
        <ele>123</ele>
        <time>2018-10-21T13:52:43Z</time>
      </trkpt>
      <trkpt lat="48.8704" lon="1.74015">
        <ele>124</ele>
        <time>2018-10-21T13:52:50Z</time>
      </trkpt>
      <trkpt lat="48.87049" lon="1.74008">
        <ele>125</ele>
        <time>2018-10-21T13:52:57Z</time>
      </trkpt>
      <trkpt lat="48.87059" lon="1.74004">
        <ele>125</ele>
        <time>2018-10-21T13:53:05Z</time>
      </trkpt>
      <trkpt lat="48.87068" lon="1.73997">
        <ele>125</ele>
        <time>2018-10-21T13:53:13Z</time>
      </trkpt>
      <trkpt lat="48.87078" lon="1.73992">
        <ele>126</ele>
        <time>2018-10-21T13:53:20Z</time>
      </trkpt>
      <trkpt lat="48.87086" lon="1.73989">
        <ele>126</ele>
        <time>2018-10-21T13:53:26Z</time>
      </trkpt>
      <trkpt lat="48.87095" lon="1.73984">
        <ele>127</ele>
        <time>2018-10-21T13:53:32Z</time>
      </trkpt>
      <trkpt lat="48.87105" lon="1.73979">
        <ele>127</ele>
        <time>2018-10-21T13:53:39Z</time>
      </trkpt>
      <trkpt lat="48.87113" lon="1.73971">
        <ele>127</ele>
        <time>2018-10-21T13:53:47Z</time>
      </trkpt>
      <trkpt lat="48.87122" lon="1.73963">
        <ele>127</ele>
        <time>2018-10-21T13:53:55Z</time>
      </trkpt>
      <trkpt lat="48.8713" lon="1.73955">
        <ele>127</ele>
        <time>2018-10-21T13:54:01Z</time>
      </trkpt>
      <trkpt lat="48.87135" lon="1.73944">
        <ele>127</ele>
        <time>2018-10-21T13:54:10Z</time>
      </trkpt>
      <trkpt lat="48.87144" lon="1.73935">
        <ele>127</ele>
        <time>2018-10-21T13:54:16Z</time>
      </trkpt>
      <trkpt lat="48.87151" lon="1.73927">
        <ele>127</ele>
        <time>2018-10-21T13:54:22Z</time>
      </trkpt>
      <trkpt lat="48.87156" lon="1.73915">
        <ele>127</ele>
        <time>2018-10-21T13:54:29Z</time>
      </trkpt>
      <trkpt lat="48.87162" lon="1.73902">
        <ele>126</ele>
        <time>2018-10-21T13:54:37Z</time>
      </trkpt>
      <trkpt lat="48.87166" lon="1.7389">
        <ele>126</ele>
        <time>2018-10-21T13:54:43Z</time>
      </trkpt>
      <trkpt lat="48.8717" lon="1.73877">
        <ele>126</ele>
        <time>2018-10-21T13:54:50Z</time>
      </trkpt>
      <trkpt lat="48.87174" lon="1.73865">
        <ele>126</ele>
        <time>2018-10-21T13:54:57Z</time>
      </trkpt>
      <trkpt lat="48.8718" lon="1.73852">
        <ele>126</ele>
        <time>2018-10-21T13:55:04Z</time>
      </trkpt>
      <trkpt lat="48.87186" lon="1.73842">
        <ele>126</ele>
        <time>2018-10-21T13:55:10Z</time>
      </trkpt>
      <trkpt lat="48.87194" lon="1.73832">
        <ele>126</ele>
        <time>2018-10-21T13:55:18Z</time>
      </trkpt>
      <trkpt lat="48.87199" lon="1.73819">
        <ele>126</ele>
        <time>2018-10-21T13:55:25Z</time>
      </trkpt>
      <trkpt lat="48.87204" lon="1.73805">
        <ele>127</ele>
        <time>2018-10-21T13:55:32Z</time>
      </trkpt>
      <trkpt lat="48.8721" lon="1.73792">
        <ele>127</ele>
        <time>2018-10-21T13:55:39Z</time>
      </trkpt>
      <trkpt lat="48.87215" lon="1.73781">
        <ele>128</ele>
        <time>2018-10-21T13:55:46Z</time>
      </trkpt>
      <trkpt lat="48.87219" lon="1.73767">
        <ele>128</ele>
        <time>2018-10-21T13:55:54Z</time>
      </trkpt>
      <trkpt lat="48.87224" lon="1.73754">
        <ele>127</ele>
        <time>2018-10-21T13:56:02Z</time>
      </trkpt>
      <trkpt lat="48.87229" lon="1.73742">
        <ele>127</ele>
        <time>2018-10-21T13:56:10Z</time>
      </trkpt>
      <trkpt lat="48.87236" lon="1.73731">
        <ele>127</ele>
        <time>2018-10-21T13:56:17Z</time>
      </trkpt>
      <trkpt lat="48.87241" lon="1.73719">
        <ele>127</ele>
        <time>2018-10-21T13:56:24Z</time>
      </trkpt>
      <trkpt lat="48.87247" lon="1.73706">
        <ele>127</ele>
        <time>2018-10-21T13:56:32Z</time>
      </trkpt>
      <trkpt lat="48.87255" lon="1.73696">
        <ele>126</ele>
        <time>2018-10-21T13:56:40Z</time>
      </trkpt>
      <trkpt lat="48.87262" lon="1.73687">
        <ele>126</ele>
        <time>2018-10-21T13:56:46Z</time>
      </trkpt>
      <trkpt lat="48.87268" lon="1.73676">
        <ele>126</ele>
        <time>2018-10-21T13:56:53Z</time>
      </trkpt>
      <trkpt lat="48.87275" lon="1.73667">
        <ele>126</ele>
        <time>2018-10-21T13:56:59Z</time>
      </trkpt>
      <trkpt lat="48.87281" lon="1.73656">
        <ele>126</ele>
        <time>2018-10-21T13:57:06Z</time>
      </trkpt>
      <trkpt lat="48.87288" lon="1.73648">
        <ele>126</ele>
        <time>2018-10-21T13:57:13Z</time>
      </trkpt>
      <trkpt lat="48.87295" lon="1.73637">
        <ele>126</ele>
        <time>2018-10-21T13:57:20Z</time>
      </trkpt>
      <trkpt lat="48.87303" lon="1.7363">
        <ele>126</ele>
        <time>2018-10-21T13:57:26Z</time>
      </trkpt>
      <trkpt lat="48.8731" lon="1.73619">
        <ele>127</ele>
        <time>2018-10-21T13:57:34Z</time>
      </trkpt>
      <trkpt lat="48.87319" lon="1.73611">
        <ele>127</ele>
        <time>2018-10-21T13:57:41Z</time>
      </trkpt>
      <trkpt lat="48.87325" lon="1.736">
        <ele>127</ele>
        <time>2018-10-21T13:57:48Z</time>
      </trkpt>
      <trkpt lat="48.87333" lon="1.73591">
        <ele>127</ele>
        <time>2018-10-21T13:57:56Z</time>
      </trkpt>
      <trkpt lat="48.87341" lon="1.73581">
        <ele>127</ele>
        <time>2018-10-21T13:58:03Z</time>
      </trkpt>
      <trkpt lat="48.87348" lon="1.73573">
        <ele>128</ele>
        <time>2018-10-21T13:58:09Z</time>
      </trkpt>
      <trkpt lat="48.87357" lon="1.73564">
        <ele>128</ele>
        <time>2018-10-21T13:58:15Z</time>
      </trkpt>
      <trkpt lat="48.87365" lon="1.73556">
        <ele>128</ele>
        <time>2018-10-21T13:58:22Z</time>
      </trkpt>
      <trkpt lat="48.87373" lon="1.73548">
        <ele>128</ele>
        <time>2018-10-21T13:58:29Z</time>
      </trkpt>
      <trkpt lat="48.8738" lon="1.73538">
        <ele>129</ele>
        <time>2018-10-21T13:58:36Z</time>
      </trkpt>
      <trkpt lat="48.87386" lon="1.73528">
        <ele>129</ele>
        <time>2018-10-21T13:58:42Z</time>
      </trkpt>
      <trkpt lat="48.87393" lon="1.73518">
        <ele>129</ele>
        <time>2018-10-21T13:58:49Z</time>
      </trkpt>
      <trkpt lat="48.87399" lon="1.73508">
        <ele>130</ele>
        <time>2018-10-21T13:58:56Z</time>
      </trkpt>
      <trkpt lat="48.87405" lon="1.73498">
        <ele>130</ele>
        <time>2018-10-21T13:59:03Z</time>
      </trkpt>
      <trkpt lat="48.87413" lon="1.73488">
        <ele>130</ele>
        <time>2018-10-21T13:59:11Z</time>
      </trkpt>
      <trkpt lat="48.87418" lon="1.73477">
        <ele>129</ele>
        <time>2018-10-21T13:59:18Z</time>
      </trkpt>
      <trkpt lat="48.87425" lon="1.73468">
        <ele>129</ele>
        <time>2018-10-21T13:59:25Z</time>
      </trkpt>
      <trkpt lat="48.87433" lon="1.7346">
        <ele>129</ele>
        <time>2018-10-21T13:59:32Z</time>
      </trkpt>
      <trkpt lat="48.8744" lon="1.73449">
        <ele>129</ele>
        <time>2018-10-21T13:59:40Z</time>
      </trkpt>
      <trkpt lat="48.87448" lon="1.73439">
        <ele>128</ele>
        <time>2018-10-21T13:59:47Z</time>
      </trkpt>
      <trkpt lat="48.87457" lon="1.73433">
        <ele>128</ele>
        <time>2018-10-21T13:59:53Z</time>
      </trkpt>
      <trkpt lat="48.87465" lon="1.73426">
        <ele>128</ele>
        <time>2018-10-21T14:00:00Z</time>
      </trkpt>
      <trkpt lat="48.87474" lon="1.73419">
        <ele>128</ele>
        <time>2018-10-21T14:00:07Z</time>
      </trkpt>
      <trkpt lat="48.87483" lon="1.73414">
        <ele>129</ele>
        <time>2018-10-21T14:00:14Z</time>
      </trkpt>
      <trkpt lat="48.87492" lon="1.73409">
        <ele>129</ele>
        <time>2018-10-21T14:00:20Z</time>
      </trkpt>
      <trkpt lat="48.87502" lon="1.73405">
        <ele>130</ele>
        <time>2018-10-21T14:00:28Z</time>
      </trkpt>
      <trkpt lat="48.8751" lon="1.73399">
        <ele>130</ele>
        <time>2018-10-21T14:00:35Z</time>
      </trkpt>
      <trkpt lat="48.8752" lon="1.73396">
        <ele>130</ele>
        <time>2018-10-21T14:00:42Z</time>
      </trkpt>
      <trkpt lat="48.87529" lon="1.73393">
        <ele>130</ele>
        <time>2018-10-21T14:00:48Z</time>
      </trkpt>
      <trkpt lat="48.87538" lon="1.73387">
        <ele>131</ele>
        <time>2018-10-21T14:00:55Z</time>
      </trkpt>
      <trkpt lat="48.87542" lon="1.73373">
        <ele>131</ele>
        <time>2018-10-21T14:01:03Z</time>
      </trkpt>
      <trkpt lat="48.87546" lon="1.73359">
        <ele>131</ele>
        <time>2018-10-21T14:01:11Z</time>
      </trkpt>
      <trkpt lat="48.87549" lon="1.73344">
        <ele>131</ele>
        <time>2018-10-21T14:01:18Z</time>
      </trkpt>
      <trkpt lat="48.87551" lon="1.7333">
        <ele>131</ele>
        <time>2018-10-21T14:01:25Z</time>
      </trkpt>
      <trkpt lat="48.87553" lon="1.73315">
        <ele>131</ele>
        <time>2018-10-21T14:01:32Z</time>
      </trkpt>
      <trkpt lat="48.87555" lon="1.73301">
        <ele>131</ele>
        <time>2018-10-21T14:01:39Z</time>
      </trkpt>
      <trkpt lat="48.87558" lon="1.73287">
        <ele>131</ele>
        <time>2018-10-21T14:01:45Z</time>
      </trkpt>
      <trkpt lat="48.87561" lon="1.73272">
        <ele>130</ele>
        <time>2018-10-21T14:01:53Z</time>
      </trkpt>
      <trkpt lat="48.87563" lon="1.73258">
        <ele>130</ele>
        <time>2018-10-21T14:01:59Z</time>
      </trkpt>
      <trkpt lat="48.87567" lon="1.73246">
        <ele>130</ele>
        <time>2018-10-21T14:02:06Z</time>
      </trkpt>
      <trkpt lat="48.87569" lon="1.73231">
        <ele>129</ele>
        <time>2018-10-21T14:02:13Z</time>
      </trkpt>
      <trkpt lat="48.87573" lon="1.73218">
        <ele>129</ele>
        <time>2018-10-21T14:02:20Z</time>
      </trkpt>
      <trkpt lat="48.87576" lon="1.73202">
        <ele>130</ele>
        <time>2018-10-21T14:02:27Z</time>
      </trkpt>
      <trkpt lat="48.87577" lon="1.73188">
        <ele>130</ele>
        <time>2018-10-21T14:02:34Z</time>
      </trkpt>
      <trkpt lat="48.87577" lon="1.73173">
        <ele>130</ele>
        <time>2018-10-21T14:02:41Z</time>
      </trkpt>
      <trkpt lat="48.87574" lon="1.73158">
        <ele>130</ele>
        <time>2018-10-21T14:02:48Z</time>
      </trkpt>
      <trkpt lat="48.87566" lon="1.73151">
        <ele>130</ele>
        <time>2018-10-21T14:02:55Z</time>
      </trkpt>
      <trkpt lat="48.87557" lon="1.73149">
        <ele>130</ele>
        <time>2018-10-21T14:03:02Z</time>
      </trkpt>
      <trkpt lat="48.87547" lon="1.73146">
        <ele>129</ele>
        <time>2018-10-21T14:03:10Z</time>
      </trkpt>
      <trkpt lat="48.87538" lon="1.73141">
        <ele>129</ele>
        <time>2018-10-21T14:03:17Z</time>
      </trkpt>
      <trkpt lat="48.87529" lon="1.73137">
        <ele>128</ele>
        <time>2018-10-21T14:03:24Z</time>
      </trkpt>
      <trkpt lat="48.8752" lon="1.73132">
        <ele>127</ele>
        <time>2018-10-21T14:03:31Z</time>
      </trkpt>
      <trkpt lat="48.87511" lon="1.7313">
        <ele>127</ele>
        <time>2018-10-21T14:03:38Z</time>
      </trkpt>
      <trkpt lat="48.87501" lon="1.73126">
        <ele>126</ele>
        <time>2018-10-21T14:03:45Z</time>
      </trkpt>
      <trkpt lat="48.87492" lon="1.73123">
        <ele>126</ele>
        <time>2018-10-21T14:03:51Z</time>
      </trkpt>
      <trkpt lat="48.87482" lon="1.73117">
        <ele>125</ele>
        <time>2018-10-21T14:03:59Z</time>
      </trkpt>
      <trkpt lat="48.87473" lon="1.73114">
        <ele>125</ele>
        <time>2018-10-21T14:04:06Z</time>
      </trkpt>
      <trkpt lat="48.87463" lon="1.73111">
        <ele>124</ele>
        <time>2018-10-21T14:04:14Z</time>
      </trkpt>
      <trkpt lat="48.87453" lon="1.73107">
        <ele>124</ele>
        <time>2018-10-21T14:04:20Z</time>
      </trkpt>
      <trkpt lat="48.87444" lon="1.73103">
        <ele>123</ele>
        <time>2018-10-21T14:04:27Z</time>
      </trkpt>
      <trkpt lat="48.87434" lon="1.73101">
        <ele>123</ele>
        <time>2018-10-21T14:04:34Z</time>
      </trkpt>
      <trkpt lat="48.87424" lon="1.73098">
        <ele>122</ele>
        <time>2018-10-21T14:04:42Z</time>
      </trkpt>
      <trkpt lat="48.87415" lon="1.73094">
        <ele>122</ele>
        <time>2018-10-21T14:04:49Z</time>
      </trkpt>
      <trkpt lat="48.87406" lon="1.7309">
        <ele>121</ele>
        <time>2018-10-21T14:04:56Z</time>
      </trkpt>
      <trkpt lat="48.87397" lon="1.73086">
        <ele>120</ele>
        <time>2018-10-21T14:05:03Z</time>
      </trkpt>
      <trkpt lat="48.87388" lon="1.73083">
        <ele>120</ele>
        <time>2018-10-21T14:05:08Z</time>
      </trkpt>
      <trkpt lat="48.87379" lon="1.73079">
        <ele>121</ele>
        <time>2018-10-21T14:05:14Z</time>
      </trkpt>
      <trkpt lat="48.8737" lon="1.73075">
        <ele>121</ele>
        <time>2018-10-21T14:05:21Z</time>
      </trkpt>
      <trkpt lat="48.87361" lon="1.73071">
        <ele>121</ele>
        <time>2018-10-21T14:05:28Z</time>
      </trkpt>
      <trkpt lat="48.87351" lon="1.73067">
        <ele>121</ele>
        <time>2018-10-21T14:05:36Z</time>
      </trkpt>
      <trkpt lat="48.87342" lon="1.73064">
        <ele>121</ele>
        <time>2018-10-21T14:05:44Z</time>
      </trkpt>
      <trkpt lat="48.87333" lon="1.7306">
        <ele>121</ele>
        <time>2018-10-21T14:05:51Z</time>
      </trkpt>
      <trkpt lat="48.87324" lon="1.73055">
        <ele>121</ele>
        <time>2018-10-21T14:05:57Z</time>
      </trkpt>
      <trkpt lat="48.87315" lon="1.73049">
        <ele>121</ele>
        <time>2018-10-21T14:06:03Z</time>
      </trkpt>
      <trkpt lat="48.87307" lon="1.73041">
        <ele>121</ele>
        <time>2018-10-21T14:06:09Z</time>
      </trkpt>
      <trkpt lat="48.87298" lon="1.73036">
        <ele>121</ele>
        <time>2018-10-21T14:06:15Z</time>
      </trkpt>
      <trkpt lat="48.87288" lon="1.73031">
        <ele>122</ele>
        <time>2018-10-21T14:06:22Z</time>
      </trkpt>
      <trkpt lat="48.87279" lon="1.73025">
        <ele>122</ele>
        <time>2018-10-21T14:06:28Z</time>
      </trkpt>
      <trkpt lat="48.8727" lon="1.73019">
        <ele>122</ele>
        <time>2018-10-21T14:06:38Z</time>
      </trkpt>
      <trkpt lat="48.87261" lon="1.73017">
        <ele>122</ele>
        <time>2018-10-21T14:06:44Z</time>
      </trkpt>
      <trkpt lat="48.87251" lon="1.7301">
        <ele>122</ele>
        <time>2018-10-21T14:06:50Z</time>
      </trkpt>
      <trkpt lat="48.87242" lon="1.73005">
        <ele>123</ele>
        <time>2018-10-21T14:06:57Z</time>
      </trkpt>
      <trkpt lat="48.87233" lon="1.72999">
        <ele>123</ele>
        <time>2018-10-21T14:07:04Z</time>
      </trkpt>
      <trkpt lat="48.87224" lon="1.72993">
        <ele>123</ele>
        <time>2018-10-21T14:07:11Z</time>
      </trkpt>
      <trkpt lat="48.87216" lon="1.72987">
        <ele>123</ele>
        <time>2018-10-21T14:07:18Z</time>
      </trkpt>
      <trkpt lat="48.87206" lon="1.72983">
        <ele>122</ele>
        <time>2018-10-21T14:07:26Z</time>
      </trkpt>
      <trkpt lat="48.87198" lon="1.72978">
        <ele>122</ele>
        <time>2018-10-21T14:07:32Z</time>
      </trkpt>
      <trkpt lat="48.87189" lon="1.72973">
        <ele>122</ele>
        <time>2018-10-21T14:07:39Z</time>
      </trkpt>
      <trkpt lat="48.87178" lon="1.72969">
        <ele>122</ele>
        <time>2018-10-21T14:07:46Z</time>
      </trkpt>
      <trkpt lat="48.8717" lon="1.72965">
        <ele>122</ele>
        <time>2018-10-21T14:07:53Z</time>
      </trkpt>
      <trkpt lat="48.8716" lon="1.72961">
        <ele>122</ele>
        <time>2018-10-21T14:08:00Z</time>
      </trkpt>
      <trkpt lat="48.87151" lon="1.72954">
        <ele>122</ele>
        <time>2018-10-21T14:08:06Z</time>
      </trkpt>
      <trkpt lat="48.87142" lon="1.72949">
        <ele>122</ele>
        <time>2018-10-21T14:08:13Z</time>
      </trkpt>
      <trkpt lat="48.87133" lon="1.72945">
        <ele>122</ele>
        <time>2018-10-21T14:08:20Z</time>
      </trkpt>
      <trkpt lat="48.87124" lon="1.72938">
        <ele>122</ele>
        <time>2018-10-21T14:08:26Z</time>
      </trkpt>
      <trkpt lat="48.87116" lon="1.72932">
        <ele>122</ele>
        <time>2018-10-21T14:08:32Z</time>
      </trkpt>
      <trkpt lat="48.87107" lon="1.72929">
        <ele>123</ele>
        <time>2018-10-21T14:08:39Z</time>
      </trkpt>
      <trkpt lat="48.87097" lon="1.72925">
        <ele>123</ele>
        <time>2018-10-21T14:08:45Z</time>
      </trkpt>
      <trkpt lat="48.87089" lon="1.72918">
        <ele>123</ele>
        <time>2018-10-21T14:08:52Z</time>
      </trkpt>
      <trkpt lat="48.8708" lon="1.72915">
        <ele>123</ele>
        <time>2018-10-21T14:09:00Z</time>
      </trkpt>
      <trkpt lat="48.87071" lon="1.72907">
        <ele>123</ele>
        <time>2018-10-21T14:09:07Z</time>
      </trkpt>
      <trkpt lat="48.87062" lon="1.729">
        <ele>123</ele>
        <time>2018-10-21T14:09:12Z</time>
      </trkpt>
      <trkpt lat="48.87055" lon="1.72893">
        <ele>123</ele>
        <time>2018-10-21T14:09:19Z</time>
      </trkpt>
      <trkpt lat="48.87046" lon="1.72885">
        <ele>123</ele>
        <time>2018-10-21T14:09:26Z</time>
      </trkpt>
      <trkpt lat="48.87038" lon="1.72877">
        <ele>123</ele>
        <time>2018-10-21T14:09:33Z</time>
      </trkpt>
      <trkpt lat="48.8703" lon="1.7287">
        <ele>123</ele>
        <time>2018-10-21T14:09:39Z</time>
      </trkpt>
      <trkpt lat="48.87022" lon="1.72864">
        <ele>122</ele>
        <time>2018-10-21T14:09:46Z</time>
      </trkpt>
      <trkpt lat="48.87013" lon="1.72855">
        <ele>122</ele>
        <time>2018-10-21T14:09:53Z</time>
      </trkpt>
      <trkpt lat="48.87005" lon="1.72848">
        <ele>122</ele>
        <time>2018-10-21T14:10:00Z</time>
      </trkpt>
      <trkpt lat="48.86998" lon="1.72838">
        <ele>122</ele>
        <time>2018-10-21T14:10:08Z</time>
      </trkpt>
      <trkpt lat="48.8699" lon="1.7283">
        <ele>122</ele>
        <time>2018-10-21T14:10:14Z</time>
      </trkpt>
      <trkpt lat="48.86982" lon="1.72824">
        <ele>122</ele>
        <time>2018-10-21T14:10:20Z</time>
      </trkpt>
      <trkpt lat="48.86973" lon="1.72815">
        <ele>123</ele>
        <time>2018-10-21T14:10:27Z</time>
      </trkpt>
      <trkpt lat="48.86965" lon="1.72808">
        <ele>123</ele>
        <time>2018-10-21T14:10:34Z</time>
      </trkpt>
      <trkpt lat="48.86958" lon="1.72799">
        <ele>123</ele>
        <time>2018-10-21T14:10:40Z</time>
      </trkpt>
      <trkpt lat="48.8695" lon="1.7279">
        <ele>123</ele>
        <time>2018-10-21T14:10:47Z</time>
      </trkpt>
      <trkpt lat="48.86942" lon="1.72782">
        <ele>124</ele>
        <time>2018-10-21T14:10:53Z</time>
      </trkpt>
      <trkpt lat="48.86933" lon="1.72778">
        <ele>124</ele>
        <time>2018-10-21T14:10:59Z</time>
      </trkpt>
      <trkpt lat="48.86925" lon="1.72771">
        <ele>123</ele>
        <time>2018-10-21T14:11:06Z</time>
      </trkpt>
      <trkpt lat="48.86917" lon="1.72764">
        <ele>123</ele>
        <time>2018-10-21T14:11:13Z</time>
      </trkpt>
      <trkpt lat="48.86909" lon="1.72758">
        <ele>122</ele>
        <time>2018-10-21T14:11:19Z</time>
      </trkpt>
      <trkpt lat="48.86901" lon="1.72749">
        <ele>122</ele>
        <time>2018-10-21T14:11:26Z</time>
      </trkpt>
      <trkpt lat="48.86895" lon="1.72739">
        <ele>121</ele>
        <time>2018-10-21T14:11:32Z</time>
      </trkpt>
      <trkpt lat="48.86888" lon="1.7273">
        <ele>121</ele>
        <time>2018-10-21T14:11:38Z</time>
      </trkpt>
      <trkpt lat="48.86879" lon="1.72722">
        <ele>121</ele>
        <time>2018-10-21T14:11:45Z</time>
      </trkpt>
      <trkpt lat="48.86872" lon="1.72712">
        <ele>122</ele>
        <time>2018-10-21T14:11:52Z</time>
      </trkpt>
      <trkpt lat="48.86864" lon="1.72702">
        <ele>122</ele>
        <time>2018-10-21T14:11:58Z</time>
      </trkpt>
      <trkpt lat="48.86855" lon="1.72695">
        <ele>123</ele>
        <time>2018-10-21T14:12:04Z</time>
      </trkpt>
      <trkpt lat="48.86848" lon="1.72686">
        <ele>123</ele>
        <time>2018-10-21T14:12:10Z</time>
      </trkpt>
      <trkpt lat="48.86839" lon="1.72678">
        <ele>124</ele>
        <time>2018-10-21T14:12:19Z</time>
      </trkpt>
      <trkpt lat="48.86831" lon="1.72671">
        <ele>123</ele>
        <time>2018-10-21T14:12:27Z</time>
      </trkpt>
      <trkpt lat="48.86826" lon="1.72659">
        <ele>123</ele>
        <time>2018-10-21T14:12:33Z</time>
      </trkpt>
      <trkpt lat="48.86818" lon="1.72649">
        <ele>123</ele>
        <time>2018-10-21T14:13:23Z</time>
      </trkpt>
      <trkpt lat="48.86818" lon="1.72663">
        <ele>121</ele>
        <time>2018-10-21T14:14:34Z</time>
      </trkpt>
      <trkpt lat="48.86813" lon="1.72652">
        <ele>119</ele>
        <time>2018-10-21T14:15:27Z</time>
      </trkpt>
      <trkpt lat="48.8681" lon="1.72638">
        <ele>118</ele>
        <time>2018-10-21T14:15:33Z</time>
      </trkpt>
      <trkpt lat="48.86804" lon="1.72626">
        <ele>118</ele>
        <time>2018-10-21T14:15:39Z</time>
      </trkpt>
      <trkpt lat="48.86797" lon="1.72614">
        <ele>117</ele>
        <time>2018-10-21T14:15:47Z</time>
      </trkpt>
      <trkpt lat="48.86792" lon="1.72603">
        <ele>117</ele>
        <time>2018-10-21T14:15:53Z</time>
      </trkpt>
      <trkpt lat="48.86786" lon="1.72592">
        <ele>116</ele>
        <time>2018-10-21T14:16:00Z</time>
      </trkpt>
      <trkpt lat="48.86782" lon="1.72579">
        <ele>116</ele>
        <time>2018-10-21T14:16:06Z</time>
      </trkpt>
      <trkpt lat="48.86775" lon="1.7257">
        <ele>117</ele>
        <time>2018-10-21T14:16:12Z</time>
      </trkpt>
      <trkpt lat="48.86767" lon="1.72563">
        <ele>117</ele>
        <time>2018-10-21T14:16:18Z</time>
      </trkpt>
      <trkpt lat="48.86759" lon="1.72553">
        <ele>117</ele>
        <time>2018-10-21T14:16:27Z</time>
      </trkpt>
      <trkpt lat="48.86752" lon="1.72543">
        <ele>117</ele>
        <time>2018-10-21T14:16:34Z</time>
      </trkpt>
      <trkpt lat="48.86746" lon="1.72534">
        <ele>117</ele>
        <time>2018-10-21T14:16:41Z</time>
      </trkpt>
      <trkpt lat="48.86738" lon="1.72524">
        <ele>117</ele>
        <time>2018-10-21T14:16:48Z</time>
      </trkpt>
      <trkpt lat="48.86731" lon="1.72514">
        <ele>117</ele>
        <time>2018-10-21T14:16:54Z</time>
      </trkpt>
      <trkpt lat="48.86724" lon="1.72504">
        <ele>118</ele>
        <time>2018-10-21T14:17:01Z</time>
      </trkpt>
      <trkpt lat="48.86717" lon="1.72493">
        <ele>118</ele>
        <time>2018-10-21T14:17:08Z</time>
      </trkpt>
      <trkpt lat="48.8671" lon="1.72483">
        <ele>119</ele>
        <time>2018-10-21T14:17:15Z</time>
      </trkpt>
      <trkpt lat="48.86704" lon="1.72474">
        <ele>119</ele>
        <time>2018-10-21T14:17:22Z</time>
      </trkpt>
      <trkpt lat="48.86698" lon="1.72464">
        <ele>119</ele>
        <time>2018-10-21T14:17:30Z</time>
      </trkpt>
      <trkpt lat="48.8669" lon="1.72454">
        <ele>119</ele>
        <time>2018-10-21T14:17:38Z</time>
      </trkpt>
      <trkpt lat="48.86683" lon="1.72444">
        <ele>119</ele>
        <time>2018-10-21T14:17:45Z</time>
      </trkpt>
      <trkpt lat="48.86677" lon="1.72434">
        <ele>120</ele>
        <time>2018-10-21T14:17:53Z</time>
      </trkpt>
      <trkpt lat="48.8667" lon="1.72423">
        <ele>120</ele>
        <time>2018-10-21T14:18:01Z</time>
      </trkpt>
      <trkpt lat="48.86663" lon="1.72413">
        <ele>119</ele>
        <time>2018-10-21T14:18:08Z</time>
      </trkpt>
      <trkpt lat="48.86656" lon="1.72404">
        <ele>119</ele>
        <time>2018-10-21T14:18:14Z</time>
      </trkpt>
      <trkpt lat="48.86649" lon="1.72393">
        <ele>119</ele>
        <time>2018-10-21T14:18:21Z</time>
      </trkpt>
      <trkpt lat="48.86642" lon="1.72382">
        <ele>119</ele>
        <time>2018-10-21T14:18:28Z</time>
      </trkpt>
      <trkpt lat="48.86635" lon="1.72371">
        <ele>119</ele>
        <time>2018-10-21T14:18:36Z</time>
      </trkpt>
      <trkpt lat="48.86628" lon="1.7236">
        <ele>119</ele>
        <time>2018-10-21T14:18:43Z</time>
      </trkpt>
      <trkpt lat="48.86623" lon="1.72347">
        <ele>119</ele>
        <time>2018-10-21T14:18:51Z</time>
      </trkpt>
      <trkpt lat="48.86617" lon="1.72334">
        <ele>120</ele>
        <time>2018-10-21T14:18:58Z</time>
      </trkpt>
      <trkpt lat="48.86612" lon="1.7232">
        <ele>120</ele>
        <time>2018-10-21T14:19:05Z</time>
      </trkpt>
      <trkpt lat="48.86608" lon="1.72306">
        <ele>120</ele>
        <time>2018-10-21T14:19:13Z</time>
      </trkpt>
      <trkpt lat="48.86604" lon="1.72292">
        <ele>121</ele>
        <time>2018-10-21T14:19:20Z</time>
      </trkpt>
      <trkpt lat="48.86599" lon="1.7228">
        <ele>121</ele>
        <time>2018-10-21T14:19:27Z</time>
      </trkpt>
      <trkpt lat="48.86595" lon="1.72267">
        <ele>121</ele>
        <time>2018-10-21T14:19:34Z</time>
      </trkpt>
      <trkpt lat="48.8659" lon="1.72255">
        <ele>121</ele>
        <time>2018-10-21T14:19:41Z</time>
      </trkpt>
      <trkpt lat="48.86585" lon="1.72243">
        <ele>121</ele>
        <time>2018-10-21T14:19:49Z</time>
      </trkpt>
      <trkpt lat="48.86579" lon="1.7223">
        <ele>121</ele>
        <time>2018-10-21T14:19:57Z</time>
      </trkpt>
      <trkpt lat="48.86575" lon="1.72218">
        <ele>121</ele>
        <time>2018-10-21T14:20:03Z</time>
      </trkpt>
      <trkpt lat="48.86568" lon="1.72206">
        <ele>121</ele>
        <time>2018-10-21T14:20:10Z</time>
      </trkpt>
      <trkpt lat="48.86562" lon="1.72194">
        <ele>122</ele>
        <time>2018-10-21T14:20:17Z</time>
      </trkpt>
      <trkpt lat="48.86558" lon="1.7218">
        <ele>122</ele>
        <time>2018-10-21T14:20:24Z</time>
      </trkpt>
      <trkpt lat="48.86553" lon="1.72168">
        <ele>121</ele>
        <time>2018-10-21T14:20:32Z</time>
      </trkpt>
      <trkpt lat="48.86547" lon="1.72156">
        <ele>121</ele>
        <time>2018-10-21T14:20:38Z</time>
      </trkpt>
      <trkpt lat="48.86543" lon="1.72142">
        <ele>121</ele>
        <time>2018-10-21T14:20:45Z</time>
      </trkpt>
      <trkpt lat="48.86537" lon="1.72131">
        <ele>121</ele>
        <time>2018-10-21T14:20:52Z</time>
      </trkpt>
      <trkpt lat="48.86533" lon="1.72119">
        <ele>121</ele>
        <time>2018-10-21T14:21:06Z</time>
      </trkpt>
      <trkpt lat="48.8654" lon="1.7211">
        <ele>120</ele>
        <time>2018-10-21T14:21:17Z</time>
      </trkpt>
      <trkpt lat="48.86547" lon="1.72098">
        <ele>120</ele>
        <time>2018-10-21T14:21:25Z</time>
      </trkpt>
      <trkpt lat="48.86553" lon="1.72087">
        <ele>119</ele>
        <time>2018-10-21T14:21:33Z</time>
      </trkpt>
      <trkpt lat="48.8656" lon="1.72077">
        <ele>119</ele>
        <time>2018-10-21T14:21:41Z</time>
      </trkpt>
      <trkpt lat="48.86566" lon="1.72066">
        <ele>118</ele>
        <time>2018-10-21T14:21:48Z</time>
      </trkpt>
      <trkpt lat="48.86575" lon="1.72058">
        <ele>118</ele>
        <time>2018-10-21T14:21:56Z</time>
      </trkpt>
      <trkpt lat="48.86583" lon="1.72049">
        <ele>118</ele>
        <time>2018-10-21T14:22:02Z</time>
      </trkpt>
      <trkpt lat="48.86589" lon="1.72037">
        <ele>117</ele>
        <time>2018-10-21T14:22:10Z</time>
      </trkpt>
      <trkpt lat="48.86598" lon="1.7203">
        <ele>116</ele>
        <time>2018-10-21T14:22:17Z</time>
      </trkpt>
      <trkpt lat="48.86606" lon="1.72022">
        <ele>115</ele>
        <time>2018-10-21T14:22:23Z</time>
      </trkpt>
      <trkpt lat="48.86613" lon="1.72014">
        <ele>115</ele>
        <time>2018-10-21T14:22:30Z</time>
      </trkpt>
      <trkpt lat="48.86622" lon="1.72006">
        <ele>115</ele>
        <time>2018-10-21T14:22:38Z</time>
      </trkpt>
      <trkpt lat="48.8663" lon="1.71998">
        <ele>114</ele>
        <time>2018-10-21T14:22:45Z</time>
      </trkpt>
      <trkpt lat="48.86637" lon="1.71991">
        <ele>114</ele>
        <time>2018-10-21T14:22:52Z</time>
      </trkpt>
      <trkpt lat="48.86647" lon="1.71985">
        <ele>114</ele>
        <time>2018-10-21T14:22:59Z</time>
      </trkpt>
      <trkpt lat="48.86656" lon="1.71981">
        <ele>114</ele>
        <time>2018-10-21T14:23:05Z</time>
      </trkpt>
      <trkpt lat="48.86665" lon="1.71975">
        <ele>113</ele>
        <time>2018-10-21T14:23:12Z</time>
      </trkpt>
      <trkpt lat="48.86673" lon="1.71965">
        <ele>113</ele>
        <time>2018-10-21T14:23:19Z</time>
      </trkpt>
      <trkpt lat="48.8668" lon="1.71956">
        <ele>112</ele>
        <time>2018-10-21T14:23:26Z</time>
      </trkpt>
      <trkpt lat="48.86688" lon="1.7195">
        <ele>112</ele>
        <time>2018-10-21T14:23:34Z</time>
      </trkpt>
      <trkpt lat="48.86697" lon="1.71942">
        <ele>111</ele>
        <time>2018-10-21T14:23:41Z</time>
      </trkpt>
      <trkpt lat="48.86706" lon="1.71936">
        <ele>111</ele>
        <time>2018-10-21T14:23:48Z</time>
      </trkpt>
      <trkpt lat="48.86714" lon="1.71926">
        <ele>110</ele>
        <time>2018-10-21T14:23:56Z</time>
      </trkpt>
      <trkpt lat="48.86721" lon="1.71917">
        <ele>110</ele>
        <time>2018-10-21T14:24:02Z</time>
      </trkpt>
      <trkpt lat="48.86725" lon="1.71905">
        <ele>110</ele>
        <time>2018-10-21T14:24:10Z</time>
      </trkpt>
      <trkpt lat="48.86731" lon="1.71893">
        <ele>110</ele>
        <time>2018-10-21T14:24:18Z</time>
      </trkpt>
      <trkpt lat="48.86736" lon="1.7188">
        <ele>110</ele>
        <time>2018-10-21T14:24:24Z</time>
      </trkpt>
      <trkpt lat="48.86742" lon="1.71868">
        <ele>110</ele>
        <time>2018-10-21T14:24:32Z</time>
      </trkpt>
      <trkpt lat="48.86747" lon="1.71856">
        <ele>110</ele>
        <time>2018-10-21T14:24:40Z</time>
      </trkpt>
      <trkpt lat="48.8675" lon="1.71842">
        <ele>110</ele>
        <time>2018-10-21T14:24:47Z</time>
      </trkpt>
      <trkpt lat="48.86756" lon="1.7183">
        <ele>110</ele>
        <time>2018-10-21T14:24:55Z</time>
      </trkpt>
      <trkpt lat="48.86761" lon="1.71817">
        <ele>110</ele>
        <time>2018-10-21T14:25:08Z</time>
      </trkpt>
      <trkpt lat="48.86765" lon="1.71804">
        <ele>110</ele>
        <time>2018-10-21T14:25:15Z</time>
      </trkpt>
      <trkpt lat="48.86769" lon="1.71791">
        <ele>110</ele>
        <time>2018-10-21T14:25:21Z</time>
      </trkpt>
      <trkpt lat="48.86773" lon="1.71778">
        <ele>110</ele>
        <time>2018-10-21T14:25:28Z</time>
      </trkpt>
      <trkpt lat="48.86778" lon="1.71767">
        <ele>110</ele>
        <time>2018-10-21T14:25:34Z</time>
      </trkpt>
      <trkpt lat="48.86784" lon="1.71754">
        <ele>111</ele>
        <time>2018-10-21T14:25:42Z</time>
      </trkpt>
      <trkpt lat="48.86787" lon="1.71741">
        <ele>110</ele>
        <time>2018-10-21T14:25:49Z</time>
      </trkpt>
      <trkpt lat="48.86792" lon="1.71729">
        <ele>111</ele>
        <time>2018-10-21T14:25:56Z</time>
      </trkpt>
      <trkpt lat="48.8679" lon="1.71713">
        <ele>111</ele>
        <time>2018-10-21T14:26:04Z</time>
      </trkpt>
      <trkpt lat="48.86789" lon="1.71699">
        <ele>110</ele>
        <time>2018-10-21T14:26:12Z</time>
      </trkpt>
      <trkpt lat="48.86784" lon="1.71686">
        <ele>111</ele>
        <time>2018-10-21T14:26:20Z</time>
      </trkpt>
      <trkpt lat="48.8678" lon="1.71672">
        <ele>112</ele>
        <time>2018-10-21T14:26:26Z</time>
      </trkpt>
      <trkpt lat="48.86777" lon="1.7166">
        <ele>112</ele>
        <time>2018-10-21T14:26:32Z</time>
      </trkpt>
      <trkpt lat="48.86769" lon="1.71649">
        <ele>113</ele>
        <time>2018-10-21T14:26:39Z</time>
      </trkpt>
      <trkpt lat="48.8676" lon="1.71644">
        <ele>114</ele>
        <time>2018-10-21T14:26:46Z</time>
      </trkpt>
      <trkpt lat="48.86754" lon="1.71632">
        <ele>115</ele>
        <time>2018-10-21T14:26:53Z</time>
      </trkpt>
      <trkpt lat="48.86745" lon="1.71627">
        <ele>115</ele>
        <time>2018-10-21T14:26:59Z</time>
      </trkpt>
      <trkpt lat="48.86736" lon="1.71627">
        <ele>115</ele>
        <time>2018-10-21T14:27:06Z</time>
      </trkpt>
      <trkpt lat="48.86727" lon="1.71628">
        <ele>115</ele>
        <time>2018-10-21T14:27:12Z</time>
      </trkpt>
      <trkpt lat="48.86717" lon="1.71627">
        <ele>115</ele>
        <time>2018-10-21T14:27:19Z</time>
      </trkpt>
      <trkpt lat="48.86708" lon="1.71627">
        <ele>114</ele>
        <time>2018-10-21T14:27:26Z</time>
      </trkpt>
      <trkpt lat="48.86698" lon="1.71628">
        <ele>114</ele>
        <time>2018-10-21T14:27:32Z</time>
      </trkpt>
      <trkpt lat="48.86688" lon="1.71631">
        <ele>114</ele>
        <time>2018-10-21T14:27:39Z</time>
      </trkpt>
      <trkpt lat="48.86679" lon="1.71635">
        <ele>114</ele>
        <time>2018-10-21T14:27:46Z</time>
      </trkpt>
      <trkpt lat="48.8667" lon="1.71637">
        <ele>113</ele>
        <time>2018-10-21T14:27:52Z</time>
      </trkpt>
      <trkpt lat="48.86661" lon="1.71639">
        <ele>113</ele>
        <time>2018-10-21T14:27:59Z</time>
      </trkpt>
      <trkpt lat="48.86651" lon="1.7164">
        <ele>113</ele>
        <time>2018-10-21T14:28:05Z</time>
      </trkpt>
      <trkpt lat="48.86641" lon="1.71642">
        <ele>113</ele>
        <time>2018-10-21T14:28:12Z</time>
      </trkpt>
      <trkpt lat="48.86632" lon="1.71646">
        <ele>112</ele>
        <time>2018-10-21T14:28:24Z</time>
      </trkpt>
    </trkseg>
  </trk>
</gpx>